GFSMA_700_spd_000.txt.gz
Wind_Speed
24 24 24 26 26 26 39 41 32 38 29 16 27 31 34 30 33 32 35 39 36 36 37 37 33 35 37 36 35 31 27 25 24 24 24 23 22 23 23 21 20 19 18
25 26 25 25 24 27 22 16 15 20 26 32 33 29 30 39 38 39 38 37 41 41 41 40 36 37 38 37 37 34 30 28 27 26 26 25 24 25 25 23 21 20 19
26 28 28 28 27 27 26 26 23 19 17 12 20 26 34 33 36 41 39 45 36 48 46 43 42 39 38 40 40 37 34 31 30 29 28 28 28 28 28 25 23 22 21
29 32 34 34 32 31 31 29 26 24 25 28 23 27 28 36 34 39 41 42 35 37 43 44 42 41 41 41 43 40 37 35 33 31 31 31 30 30 30 28 26 25 24
32 35 36 34 32 33 32 29 26 24 25 29 30 30 32 33 35 35 38 35 38 32 52 49 43 44 43 44 43 42 41 38 36 34 34 33 33 33 32 30 28 27 26
35 38 34 33 35 34 33 31 30 30 30 31 31 33 35 34 33 34 34 33 39 39 52 49 49 46 47 46 44 44 43 42 39 37 37 36 36 35 34 33 31 30 29
36 36 37 36 37 38 37 36 35 34 33 35 34 35 35 36 37 40 37 33 33 34 43 43 55 47 49 49 47 46 45 45 42 40 39 38 38 37 36 35 34 32 30
36 39 41 40 38 36 38 37 36 35 36 37 36 38 39 39 40 41 37 37 37 34 37 49 44 47 50 54 51 49 47 47 45 42 41 40 40 39 38 37 35 34 32
42 44 42 41 41 40 36 33 32 32 34 35 37 38 39 42 43 42 40 35 36 39 38 37 46 50 55 56 55 52 50 50 49 45 43 42 42 41 40 40 38 37 34
44 43 42 41 39 37 36 35 31 30 32 33 35 38 40 43 45 47 44 45 45 39 39 39 37 42 53 55 57 55 50 51 51 48 46 45 45 44 43 42 41 39 37
42 42 42 42 41 40 39 38 36 33 31 34 36 39 42 45 46 48 49 48 50 41 43 39 38 48 54 59 57 57 54 52 52 49 49 48 47 46 46 45 44 42 40
43 44 45 45 45 44 43 43 42 42 39 38 38 38 42 45 47 48 52 52 52 52 44 44 45 46 47 53 54 56 54 52 52 51 50 49 50 49 47 46 46 44 43
47 47 48 48 48 47 46 45 45 45 45 44 43 43 42 43 48 51 52 55 54 55 56 45 44 42 43 54 61 55 55 51 53 53 52 51 48 50 51 50 49 47 45
50 51 50 50 49 47 46 45 46 47 48 49 48 45 44 43 42 46 51 52 55 56 55 57 56 47 45 49 53 63 57 52 53 55 53 53 52 50 48 50 50 49 46
54 51 51 51 49 48 46 46 48 49 48 47 46 43 43 44 40 46 49 51 53 56 57 57 58 55 44 55 52 49 59 58 54 53 55 54 54 54 54 53 51 49 48
50 50 49 48 47 46 46 45 46 46 45 44 42 41 42 44 42 41 48 51 51 53 57 56 55 56 62 52 48 48 56 60 61 55 56 55 55 55 55 54 52 50 49
47 47 46 46 46 45 44 44 44 44 44 45 45 45 44 45 48 45 44 47 48 50 55 58 56 57 56 65 64 39 56 43 59 59 54 56 57 58 56 53 52 52 53
46 46 46 46 45 44 45 46 47 46 46 46 46 46 47 47 50 52 48 49 51 50 53 58 57 58 57 49 47 54 51 44 53 59 59 56 61 60 58 54 52 52 54
47 46 47 46 46 46 46 48 48 48 49 49 49 49 48 47 52 54 53 50 51 52 50 55 58 57 57 55 50 50 67 55 46 52 56 60 68 61 58 54 51 50 52
47 46 46 46 46 47 48 48 49 51 52 52 51 49 48 48 50 53 49 49 51 52 49 50 51 56 54 56 52 48 50 63 47 48 36 44 56 67 61 58 56 54 53
45 45 46 46 47 48 49 49 51 52 53 52 49 48 47 48 49 50 52 50 49 52 50 44 45 49 52 54 55 52 45 42 53 39 45 49 45 60 62 59 58 57 53
44 45 45 47 48 48 49 50 49 48 46 46 45 43 43 44 46 48 52 52 50 54 54 50 44 43 46 50 54 54 50 43 47 59 40 49 52 44 51 56 52 54 54
44 45 46 48 48 50 48 46 42 42 42 41 38 36 36 36 37 41 47 51 54 54 58 56 50 39 43 37 49 53 52 46 45 42 58 42 48 46 46 54 48 57 57
45 45 46 46 49 46 41 37 35 36 37 37 37 37 37 38 38 38 39 42 49 52 56 58 55 50 38 34 37 48 49 46 45 42 48 42 42 48 54 53 54 58 52
45 44 43 46 45 40 34 32 33 35 38 39 38 38 37 37 37 38 38 39 42 47 50 54 55 52 48 44 42 41 47 47 48 45 43 45 54 46 51 62 57 65 48
43 41 43 43 38 35 30 32 34 38 40 39 37 35 32 30 28 31 37 38 39 40 44 48 48 49 48 47 48 43 43 43 46 49 46 48 44 46 54 68 55 54 52

GFSMA_700_spd_003.txt.gz
Wind_Speed
20 20 21 21 24 27 30 32 22 16 30 42 44 41 29 36 31 33 33 35 36 38 47 42 41 40 34 34 35 36 36 33 30 26 25 26 26 26 26 25 24 24 23
20 22 24 24 26 28 29 28 25 22 16 16 9 17 24 25 30 26 33 35 33 33 37 40 40 40 37 35 38 38 39 37 33 30 28 29 29 28 28 28 27 27 25
26 27 27 27 27 29 30 30 29 25 24 21 16 18 20 21 25 26 36 40 35 37 35 37 38 43 44 39 39 41 41 40 37 34 31 32 31 31 31 31 30 29 28
31 30 30 31 32 31 29 30 29 28 26 25 27 24 26 28 30 28 30 32 30 34 34 35 38 38 41 49 42 43 43 44 41 38 35 35 34 33 33 33 33 31 29
34 33 32 32 34 35 32 29 32 33 31 29 27 27 31 30 29 31 32 32 31 30 33 34 38 40 46 53 49 46 45 46 44 41 38 38 37 36 36 36 36 33 32
34 33 36 37 38 38 38 37 34 35 37 35 33 32 35 34 33 32 33 34 34 34 32 35 31 36 47 53 50 47 46 47 47 46 42 41 39 39 38 38 38 36 34
36 35 36 38 39 39 40 40 38 37 38 40 39 36 37 35 35 35 33 34 34 34 33 36 33 32 46 47 50 50 52 49 50 49 45 45 43 42 41 41 41 38 36
36 37 40 38 39 40 40 41 39 36 37 38 41 41 39 37 36 40 36 34 36 36 34 37 36 35 39 52 58 64 55 53 50 50 49 47 46 45 44 44 43 42 39
40 40 41 39 40 38 37 36 37 37 35 36 37 40 41 41 42 41 41 41 40 39 38 42 41 39 39 42 47 59 59 55 52 52 51 50 49 48 48 47 46 45 43
39 38 36 37 38 37 37 37 32 35 36 35 34 34 37 41 43 47 44 45 44 44 43 40 41 45 44 42 39 52 60 57 56 56 55 53 52 51 52 49 48 47 46
40 41 42 42 43 42 41 40 40 38 36 36 33 31 35 38 40 45 49 46 46 45 47 42 43 41 45 41 41 51 63 55 59 58 59 55 55 53 53 52 50 49 48
43 43 46 47 48 50 49 47 44 43 43 41 39 37 37 37 38 39 48 50 51 48 51 53 44 45 46 45 46 45 58 64 57 59 59 58 57 55 57 55 53 52 51
42 45 47 48 51 53 52 50 49 47 45 44 44 43 42 42 41 42 44 53 54 54 55 52 54 54 53 48 46 46 52 62 75 63 60 60 59 56 59 58 56 54 53
47 46 48 51 55 55 53 51 49 48 46 46 46 46 47 48 46 45 45 45 48 56 57 59 56 55 55 59 59 50 48 56 64 69 63 62 61 57 59 60 59 57 55
46 48 52 55 54 54 52 50 48 48 47 46 47 46 43 45 46 45 46 48 47 50 57 58 57 51 54 57 56 52 53 50 62 57 65 63 61 61 58 58 56 56 57
48 50 52 51 50 48 47 46 46 45 43 42 42 42 41 41 41 41 46 49 53 54 59 55 56 52 38 55 60 62 51 55 55 59 66 64 65 65 62 61 56 56 54
49 48 47 48 48 47 45 45 44 42 41 41 40 41 41 41 41 42 41 45 51 52 50 55 47 51 47 48 54 61 71 53 61 59 63 65 66 68 64 65 63 60 56
44 46 48 50 49 47 46 45 43 42 42 44 44 44 44 43 43 43 45 48 50 52 52 49 48 46 40 43 52 56 58 62 60 54 61 57 68 68 68 68 67 66 66
45 48 51 51 48 47 46 44 45 45 47 47 47 47 47 45 45 44 45 49 51 52 52 52 54 51 45 41 40 53 58 62 67 57 46 63 60 70 70 70 68 67 68
47 49 51 49 48 46 46 46 47 49 49 50 52 53 51 49 48 47 48 48 52 54 52 53 53 51 48 43 42 47 52 56 59 58 62 53 64 67 71 69 69 70 68
48 52 51 47 44 46 46 48 49 49 52 54 53 50 48 46 44 43 45 49 51 47 50 49 51 52 48 42 41 43 46 49 52 49 49 57 47 72 55 72 70 70 68
51 49 46 45 46 46 47 47 47 51 52 50 48 44 41 41 41 40 41 44 47 53 54 49 47 49 49 45 41 40 42 42 44 51 48 51 62 42 52 60 73 69 66
49 46 45 46 47 45 44 46 47 49 47 44 42 39 36 34 35 36 37 38 41 47 52 54 56 49 46 43 38 35 40 38 40 44 41 39 52 40 31 50 62 68 68
46 45 46 46 43 43 44 46 44 42 41 39 39 38 38 36 36 37 38 39 40 40 42 50 56 56 50 44 39 36 37 39 36 39 38 38 40 59 57 41 48 57 66
44 46 44 41 44 44 44 39 37 37 39 39 39 38 38 38 37 36 38 40 41 41 39 41 45 54 55 52 45 40 42 39 38 36 39 38 39 47 41 39 47 50 54
46 42 39 42 44 42 33 32 34 36 38 39 38 36 32 30 27 27 31 34 38 39 37 39 39 43 51 54 47 45 42 42 40 35 36 38 38 37 44 47 50 47 53

GFSMA_700_spd_006.txt.gz
Wind_Speed
23 23 23 25 26 26 27 27 27 28 25 24 19 22 19 41 34 42 43 39 36 32 34 34 32 40 40 37 35 37 39 38 36 33 30 27 26 26 26 26 25 25 24
24 24 26 27 25 26 25 25 26 27 26 24 21 19 10 13 17 24 34 34 32 36 34 29 30 35 29 38 40 39 41 43 40 37 35 31 29 29 29 28 28 27 27
29 30 32 33 33 30 29 29 27 26 28 26 23 22 18 19 19 15 15 32 49 30 31 36 37 36 37 31 35 39 40 45 43 41 39 35 32 32 31 31 30 29 29
34 35 34 33 32 33 31 29 29 28 28 31 28 25 26 28 28 27 29 28 34 29 31 36 37 38 36 37 39 31 49 42 46 44 42 39 36 35 34 33 32 31 31
36 37 38 36 34 34 36 35 35 34 31 31 34 31 29 31 33 34 35 30 31 31 32 35 34 37 35 40 39 42 45 48 45 47 45 43 40 37 36 36 35 33 33
36 35 37 36 35 36 38 36 37 37 37 36 35 37 34 34 34 35 34 35 34 32 33 33 35 33 32 38 36 41 44 47 47 48 49 46 44 40 39 39 37 36 35
36 33 34 37 37 37 38 39 39 39 37 37 39 39 39 37 36 36 40 39 36 30 32 32 32 33 32 35 37 38 50 49 46 49 50 49 47 44 42 42 40 38 39
37 39 37 37 38 39 40 40 40 39 35 35 39 40 41 39 35 39 40 39 38 36 35 37 36 37 39 37 35 32 39 51 53 47 48 49 50 48 45 44 43 42 42
35 35 38 38 39 41 39 37 36 35 37 35 35 37 40 43 42 36 39 38 40 44 42 36 38 36 36 38 36 36 42 44 47 47 48 50 53 51 48 46 46 45 45
32 36 37 34 33 38 40 39 37 37 39 41 40 38 37 41 45 47 43 40 41 42 44 46 42 38 37 43 41 40 41 44 52 52 60 61 53 55 51 49 48 48 48
42 45 45 48 42 37 43 44 43 42 42 44 42 41 39 39 39 45 50 47 46 43 45 46 49 50 43 33 40 44 44 45 46 49 56 63 56 52 52 51 51 49 50
48 50 54 53 42 40 42 44 46 49 50 48 45 44 43 41 40 40 43 45 47 48 47 44 46 50 52 50 34 36 49 47 51 45 56 63 64 56 56 53 53 52 52
51 47 49 53 42 42 42 46 49 52 52 50 46 43 42 42 41 41 43 46 47 47 49 49 47 48 47 48 48 45 47 45 49 49 57 57 67 70 59 56 53 54 54
50 55 58 53 43 47 48 48 52 53 51 48 46 43 42 42 42 42 44 45 49 49 50 52 51 50 50 49 46 48 44 43 51 49 56 63 50 69 67 63 57 55 56
51 57 57 49 46 45 48 49 51 50 48 46 46 44 43 42 42 42 42 44 45 52 53 51 52 51 50 51 51 49 57 60 51 48 58 60 70 54 53 62 61 59 57
56 52 50 44 43 45 46 48 49 47 45 44 43 43 42 41 41 42 42 44 45 46 54 52 54 54 54 49 50 45 47 59 61 63 58 63 60 66 71 75 66 63 60
51 45 41 41 42 45 46 47 47 44 43 42 40 39 40 39 41 42 42 45 46 46 51 58 54 56 55 55 49 54 47 48 57 61 56 60 68 60 58 67 70 65 61
42 42 39 41 44 47 48 49 46 43 41 41 40 40 40 40 42 42 42 43 46 49 52 55 51 52 53 54 50 40 54 53 50 59 66 65 64 63 67 64 63 72 67
39 38 39 42 46 48 51 46 42 41 41 42 42 43 44 44 44 43 43 44 44 46 49 54 54 51 50 52 56 53 45 55 52 53 59 64 59 68 66 71 49 59 67
37 39 42 45 48 50 46 42 43 45 45 45 45 46 47 47 48 48 46 47 47 48 49 52 54 50 51 51 53 54 49 44 54 48 57 58 56 66 65 57 67 60 68
39 43 46 47 47 46 43 44 46 46 45 45 46 48 50 50 50 48 47 46 46 49 51 54 52 53 53 54 54 52 51 44 41 49 48 48 53 58 60 62 58 65 57
43 45 46 45 45 43 45 45 44 43 45 48 49 49 47 44 41 39 39 40 41 44 48 52 56 58 57 56 52 48 47 44 44 41 43 42 44 48 53 66 52 59 59
45 45 44 44 44 45 43 41 43 47 48 47 45 41 39 36 35 34 34 35 36 37 40 43 51 57 59 53 49 45 45 46 45 45 40 37 40 44 46 50 58 52 51
44 44 43 44 44 40 41 44 46 46 42 38 36 36 37 36 35 35 36 37 38 37 38 39 43 46 52 57 52 48 46 44 45 41 37 38 36 38 41 47 46 50 47
43 42 43 40 40 42 42 44 39 36 37 37 35 36 36 36 33 30 32 35 38 40 39 39 40 41 42 48 54 54 51 45 44 44 29 30 32 35 35 38 40 46 39
41 42 39 38 40 42 42 33 30 33 34 37 37 37 35 34 32 30 30 30 34 33 33 36 39 40 40 42 44 56 56 50 43 46 37 26 27 32 31 29 30 41 42

GFSMA_700_spd_009.txt.gz
Wind_Speed
24 23 23 23 24 23 23 23 23 22 22 19 18 20 20 19 18 23 42 45 38 39 40 38 36 36 35 35 35 31 31 31 31 37 37 34 30 28 26 26 26 25 25
26 26 26 26 27 28 29 28 26 25 24 25 23 19 18 17 18 25 40 34 39 47 39 39 34 36 40 34 34 36 36 33 33 34 38 39 36 32 29 27 28 28 27
33 33 33 33 32 32 31 31 30 28 27 24 23 24 22 22 25 21 18 28 27 39 42 38 44 39 35 34 33 35 33 35 39 38 38 42 41 37 33 30 30 30 29
34 36 36 36 37 37 34 32 33 33 31 29 26 26 28 28 27 29 29 29 28 27 30 40 50 48 38 39 37 37 36 36 39 41 39 39 45 43 38 34 32 32 31
33 35 36 35 37 38 38 35 34 34 34 33 33 32 31 33 31 32 35 35 35 34 33 32 34 29 36 42 40 41 43 39 36 41 44 39 44 46 43 39 36 34 33
30 33 35 35 36 37 39 36 36 36 36 37 39 40 37 35 35 34 36 39 42 40 38 36 36 35 39 41 38 41 44 45 46 43 45 45 44 47 46 44 40 37 36
31 30 34 38 38 37 36 37 38 39 41 41 41 39 39 39 37 36 38 42 45 43 42 40 38 38 37 38 39 40 43 46 48 48 47 48 47 47 49 47 45 41 38
37 36 33 35 38 36 35 37 37 38 36 39 41 40 40 37 36 36 39 39 43 46 46 43 40 39 38 40 38 36 36 42 43 46 46 48 53 47 48 49 48 44 41
35 33 35 34 35 38 40 40 38 34 34 32 33 34 39 42 40 37 37 38 38 41 44 45 45 42 37 34 40 41 40 40 41 46 48 54 47 46 47 46 48 47 44
42 40 37 38 39 41 44 47 44 44 39 35 34 36 38 41 45 47 41 40 38 40 41 44 46 47 45 36 36 31 40 39 38 42 44 45 57 57 49 44 48 48 46
43 39 41 44 43 38 38 41 53 41 40 40 41 41 43 44 44 46 51 46 43 41 43 45 46 50 46 48 43 42 34 41 42 42 41 48 43 52 46 40 52 48 47
46 48 50 48 45 45 53 57 35 46 46 44 42 43 45 48 48 45 48 47 46 44 43 42 46 49 50 51 55 44 44 33 44 44 46 44 45 51 50 54 49 52 52
49 52 50 54 56 56 59 50 59 59 45 42 41 44 46 47 45 44 44 48 48 44 44 43 42 43 46 49 50 53 51 50 35 47 48 50 51 47 43 49 54 50 57
52 56 58 59 61 61 62 56 51 42 40 41 42 44 45 45 44 42 43 44 48 47 44 44 42 42 42 43 44 46 50 58 60 50 47 52 54 54 52 49 53 53 55
58 59 62 59 58 54 50 44 41 40 39 42 45 46 45 44 43 41 41 41 44 50 49 44 44 41 41 42 43 44 45 49 56 60 54 52 51 57 53 51 50 56 64
57 59 54 47 45 45 42 35 36 38 42 44 44 43 43 42 42 41 40 40 42 46 54 48 47 46 44 43 47 47 45 46 48 53 58 55 57 62 53 55 58 53 63
49 46 40 41 42 37 34 35 38 41 43 44 42 40 40 40 41 41 41 41 43 43 51 53 51 50 50 50 48 48 51 46 48 48 52 60 68 60 59 63 60 59 58
37 39 41 37 33 34 36 39 42 44 43 41 39 38 39 38 39 41 42 42 43 44 48 56 52 53 54 54 52 50 50 56 48 51 52 53 59 64 66 63 74 69 48
36 34 34 34 36 37 40 41 42 41 40 39 40 41 41 40 40 40 42 44 46 46 47 52 55 54 54 53 52 49 47 49 50 49 46 55 58 55 63 71 71 71 66
30 33 34 35 37 39 39 40 40 40 41 42 43 42 41 41 42 42 43 43 45 48 49 52 54 54 53 51 51 50 49 47 46 48 47 49 49 58 58 66 69 71 72
32 34 37 39 39 38 39 39 42 44 44 43 42 42 43 44 45 47 47 47 47 47 48 50 53 54 54 52 52 48 49 47 46 44 45 43 47 53 61 63 68 73 74
34 38 39 39 39 39 40 42 42 42 43 44 45 45 45 45 44 43 42 42 42 43 44 45 48 50 51 51 53 52 47 46 48 46 45 46 43 42 52 59 61 69 77
37 38 37 38 38 40 40 39 40 44 46 47 46 43 40 36 35 35 35 36 38 39 41 41 45 47 48 48 51 53 51 43 50 44 44 44 40 40 40 51 59 63 62
36 35 36 37 39 37 38 40 42 44 46 41 37 35 36 34 32 33 35 36 36 36 39 40 43 41 42 43 46 48 51 54 55 50 46 47 43 37 36 37 44 51 55
34 35 36 37 37 37 37 40 43 43 37 35 34 34 36 36 33 32 36 37 36 36 34 38 41 42 40 40 41 43 49 51 58 53 46 44 42 36 35 32 35 41 47
35 36 37 37 36 37 39 41 36 33 33 35 34 35 35 36 34 31 32 33 35 35 31 30 33 37 38 39 39 42 43 49 53 56 49 43 38 37 39 31 30 36 40

GFSMA_700_spd_015.txt.gz
Wind_Speed
22 24 25 25 25 25 25 25 26 26 27 27 28 27 27 28 27 26 28 27 24 25 33 37 36 39 38 39 40 39 36 37 36 34 32 31 33 33 32 29 27 25 24
26 26 27 28 29 28 27 28 28 28 29 30 31 31 31 30 31 31 28 27 26 26 35 38 42 42 44 45 42 44 41 42 42 39 37 35 35 35 36 35 32 30 27
28 29 29 29 29 30 30 30 30 30 30 31 31 32 33 33 33 33 33 30 28 28 28 38 42 44 45 49 49 50 48 44 45 42 41 39 40 36 38 39 37 35 33
29 30 30 31 30 29 29 29 29 30 30 31 31 32 33 34 36 36 36 35 34 32 34 38 39 44 47 48 53 55 53 51 58 43 46 44 43 43 41 40 41 40 38
28 29 29 30 32 32 32 32 32 31 31 33 33 34 35 35 35 37 40 40 40 39 38 38 42 41 42 41 41 54 56 57 57 54 48 50 48 47 46 46 43 43 42
28 29 29 31 32 32 31 31 31 31 32 34 35 34 34 34 36 37 38 42 44 45 44 42 43 46 47 45 48 44 45 61 64 59 58 47 51 54 48 46 47 45 45
30 30 31 31 32 33 33 33 34 33 33 33 34 34 36 37 35 36 36 36 38 46 47 46 45 47 50 52 54 56 48 42 55 60 53 49 54 41 48 50 46 46 45
32 33 33 34 34 36 37 38 39 39 37 37 38 38 42 38 36 34 35 38 40 39 45 47 46 46 48 52 53 56 54 49 48 56 57 64 50 63 47 51 44 49 49
37 37 37 37 38 39 41 42 43 44 43 41 42 43 47 48 44 41 41 40 42 42 40 39 42 42 45 48 52 54 52 55 55 48 42 62 54 54 44 43 54 53 50
39 40 40 40 41 44 46 44 46 48 48 46 46 46 47 51 50 51 43 41 42 46 44 41 39 40 41 44 48 53 54 53 53 50 46 49 46 44 41 48 39 50 55
41 42 42 42 44 47 49 48 48 52 51 52 52 53 50 53 51 52 58 50 45 44 42 42 43 40 40 40 42 48 55 55 54 49 52 46 47 48 40 43 53 52 49
45 47 48 47 48 52 56 52 53 57 55 58 60 53 56 55 52 52 55 56 51 46 45 44 44 43 41 42 45 50 52 56 53 54 52 51 52 48 49 42 45 54 52
45 46 47 49 50 54 58 55 61 56 63 65 58 58 58 53 48 49 53 56 57 50 49 49 45 44 45 43 44 48 50 54 56 53 57 54 55 55 58 48 52 51 43
50 52 51 46 44 52 57 62 57 60 59 53 54 48 45 49 49 55 57 53 56 58 54 51 51 47 47 47 42 44 47 50 54 57 55 67 60 47 41 50 46 52 45
49 45 40 38 40 46 55 55 55 56 47 44 43 46 49 50 49 50 50 50 51 58 57 54 55 50 46 46 45 42 45 48 49 53 57 61 61 70 55 42 51 50 46
35 32 28 32 39 44 49 41 38 43 45 42 42 43 45 47 49 49 50 50 51 54 61 56 55 51 48 47 45 43 41 44 49 49 51 55 55 54 60 63 46 49 55
30 30 29 30 38 43 44 41 39 39 40 42 42 44 46 47 48 49 49 49 49 49 55 56 55 53 51 50 50 46 43 42 47 52 50 51 54 51 53 55 56 50 48
32 28 28 30 32 36 37 38 40 42 44 45 45 45 46 45 46 45 45 45 46 46 49 55 55 55 53 51 51 51 48 46 45 50 54 52 54 52 52 53 55 59 57
36 29 31 32 34 35 37 40 44 45 46 46 45 44 43 42 43 43 44 46 48 49 51 54 56 56 55 51 49 50 51 50 48 47 49 53 53 53 52 51 54 55 57
35 33 29 29 30 34 38 41 43 44 43 42 41 41 42 42 42 42 42 43 45 47 48 50 52 53 54 53 50 48 48 48 48 47 48 49 51 53 52 51 53 55 55
30 31 30 32 32 35 38 40 41 42 42 42 40 40 40 41 42 44 46 46 47 49 50 51 52 52 53 53 52 49 49 46 47 45 46 47 47 50 53 52 52 52 53
32 32 32 33 36 38 39 41 43 43 43 42 42 41 41 43 43 45 46 46 45 46 47 47 49 49 49 48 47 46 45 44 45 43 44 44 45 47 49 52 52 49 50
36 36 37 37 38 39 40 42 42 43 42 41 42 43 44 43 39 36 35 36 38 40 42 43 44 43 42 39 39 40 39 39 39 38 39 42 43 46 45 47 48 47 49
37 37 36 37 38 39 41 41 41 41 41 40 41 42 36 32 31 33 35 37 38 39 40 41 43 42 40 40 40 38 36 36 36 36 35 39 37 42 43 43 44 45 46
37 36 36 38 40 40 39 39 40 39 37 38 34 29 30 32 32 33 36 37 36 34 33 35 39 40 41 40 39 38 37 35 37 33 30 35 32 36 38 41 42 42 40
36 37 37 38 39 39 38 38 38 36 37 29 26 26 29 32 34 33 34 35 34 27 25 25 28 31 33 34 35 36 35 35 34 35 27 31 31 32 37 38 39 38 36

GFSMA_700_spd_018.txt.gz
Wind_Speed
22 23 24 25 25 26 26 27 28 28 28 29 29 29 29 30 30 28 27 27 29 30 30 31 29 30 34 38 36 36 35 34 30 30 31 31 33 32 30 29 27 26 24
27 28 28 29 29 29 29 29 29 29 30 31 31 31 32 32 33 34 33 32 31 32 33 31 31 29 33 37 42 39 38 39 38 35 37 35 34 35 35 34 32 31 30
28 29 30 31 30 31 31 31 31 31 31 31 32 32 33 32 33 36 37 36 34 33 34 34 33 32 34 36 41 43 44 41 42 42 39 39 42 41 39 35 39 36 35
29 30 31 32 32 31 31 31 31 31 32 32 32 32 32 32 32 34 36 38 39 36 35 37 37 36 35 35 38 43 47 49 47 45 44 45 44 53 47 43 41 40 40
29 30 31 32 34 35 35 35 34 34 33 32 32 32 32 32 33 35 36 35 37 39 40 40 40 40 40 40 42 40 45 45 52 53 52 51 46 52 51 47 46 44 38
30 31 31 31 31 32 32 34 35 36 34 33 32 33 33 33 33 35 34 36 37 38 39 42 42 42 44 44 44 43 40 41 41 49 57 61 58 57 61 46 46 49 46
31 32 32 33 33 33 32 32 33 34 34 34 35 34 33 33 33 35 36 37 38 38 38 40 42 44 45 46 48 48 46 47 48 46 47 57 58 60 49 62 53 56 53
34 35 36 35 37 38 38 38 38 39 39 37 37 36 37 35 33 34 36 35 35 40 39 43 43 43 44 45 47 50 51 51 52 52 54 54 52 60 62 62 47 53 55
37 40 41 41 40 42 43 42 42 43 44 43 42 39 42 40 36 37 37 37 35 37 39 41 45 46 45 46 45 46 50 52 54 54 57 56 55 56 49 58 46 45 55
41 41 43 46 45 45 46 44 43 46 47 49 49 50 46 45 49 44 41 41 37 34 36 36 39 44 48 48 46 46 46 49 53 54 54 54 55 53 51 43 57 42 47
44 45 47 50 51 50 50 48 46 48 52 55 56 53 53 51 55 51 49 40 39 39 43 43 42 44 46 49 48 47 46 47 49 51 52 53 52 51 52 54 51 47 44
48 47 47 49 52 52 52 53 52 53 55 59 61 60 58 59 59 61 56 53 52 47 45 48 48 50 47 47 47 47 46 47 48 51 51 50 52 51 51 47 42 39 30
50 51 51 52 53 55 55 53 51 52 56 62 64 66 61 60 59 57 57 54 51 48 49 52 53 54 49 47 48 48 48 48 48 49 52 51 53 52 52 55 50 48 48
51 51 52 52 50 47 45 43 42 47 60 56 62 45 44 42 47 47 46 49 53 56 56 54 53 52 51 51 51 50 49 48 48 48 51 53 54 55 52 56 55 49 43
50 49 47 45 42 37 34 31 40 49 56 46 39 43 40 44 43 41 43 46 49 56 57 54 51 52 54 54 52 52 51 51 48 47 48 52 54 55 54 52 61 57 44
53 43 35 32 30 28 27 34 40 47 42 42 43 39 39 40 43 43 44 46 48 52 58 55 55 53 54 56 55 54 52 50 47 46 46 51 52 52 54 53 55 63 59
43 34 30 32 32 26 30 34 36 38 41 39 37 39 41 42 44 46 46 47 49 51 56 57 56 55 54 55 55 51 51 50 48 44 45 49 52 51 51 52 54 60 69
36 33 35 34 31 31 32 32 33 35 38 40 43 45 46 45 45 45 45 45 46 46 49 53 50 50 49 49 50 49 47 50 48 45 44 47 51 52 52 52 52 54 52
34 37 38 33 30 30 30 33 34 36 39 42 44 45 44 43 43 42 42 44 45 46 47 50 51 50 51 49 50 50 46 47 47 44 44 46 48 52 54 53 52 50 50
33 33 32 31 30 32 32 34 35 37 40 41 41 41 41 41 42 42 42 42 43 45 47 50 50 50 51 49 49 48 46 43 45 43 42 44 47 49 52 53 54 51 49
28 29 29 36 30 30 32 35 37 40 41 40 39 39 39 40 40 41 43 43 46 47 48 50 51 49 50 51 50 47 46 43 43 43 42 41 44 48 49 50 52 55 51
33 35 35 35 35 36 36 38 40 42 43 43 41 39 39 39 40 42 43 44 44 43 42 42 42 42 41 41 41 41 40 41 40 38 39 39 41 43 46 47 48 50 54
33 34 35 35 35 36 38 40 42 43 42 40 39 40 39 39 40 39 36 34 34 35 38 40 43 41 41 37 36 37 36 35 34 32 36 37 37 40 43 46 47 48 49
35 35 35 35 36 36 39 40 41 40 38 37 39 37 38 35 30 32 34 34 35 34 33 35 38 39 39 39 38 37 35 33 32 30 32 34 30 33 37 42 45 47 48
35 35 36 37 38 38 39 40 40 38 36 37 34 33 30 29 29 31 34 36 36 33 32 32 30 31 31 32 34 35 35 33 33 28 26 32 29 30 33 37 42 45 46
35 37 37 37 38 38 38 38 38 37 36 33 29 24 26 27 28 31 34 35 35 32 29 27 25 25 25 25 25 31 32 32 31 30 21 29 27 27 29 32 37 40 42

GFSMA_700_spd_024.txt.gz
Wind_Speed
16 18 20 21 22 23 24 26 27 28 30 31 32 33 33 34 34 34 35 33 31 31 31 30 29 29 29 29 29 30 33 33 31 32 30 29 26 27 28 26 25 25 23
17 18 20 23 25 26 27 27 27 28 29 30 31 32 33 35 35 35 36 36 35 34 33 34 34 32 31 31 30 30 31 37 39 36 35 34 34 31 32 31 30 28 27
21 20 19 21 24 26 28 29 30 30 31 32 32 32 32 33 34 35 36 37 37 36 35 34 34 34 33 32 32 31 32 33 36 40 40 38 36 36 35 34 35 33 32
26 26 24 25 27 29 29 29 29 30 30 31 32 33 32 33 34 34 35 36 38 39 38 38 36 36 34 33 33 33 34 34 36 40 44 43 43 38 35 37 36 34 34
29 29 30 30 33 33 33 31 31 32 33 33 33 34 34 35 36 35 35 36 37 37 39 40 39 38 36 35 34 34 35 39 39 37 41 47 50 45 43 36 41 38 38
28 30 32 32 34 34 33 35 37 37 38 36 38 39 39 39 39 39 37 38 38 38 37 39 39 41 39 37 35 35 34 37 40 39 37 43 47 49 49 51 46 38 43
33 36 38 38 37 37 36 35 38 40 40 41 44 45 44 45 45 43 42 41 39 40 43 42 38 39 42 39 39 37 36 37 38 39 43 42 44 45 47 49 53 50 52
37 42 44 41 40 42 44 42 41 43 44 43 46 46 50 45 47 50 49 44 41 40 42 44 44 40 38 39 42 40 40 38 37 37 39 43 45 45 45 44 49 56 57
43 47 44 43 45 46 46 43 43 44 46 45 46 48 48 44 35 35 50 49 45 42 43 44 44 42 40 38 39 41 41 41 39 38 38 39 42 46 47 47 46 48 53
48 46 42 45 46 44 45 46 48 49 51 53 51 49 54 52 55 43 45 52 52 54 49 48 47 45 45 42 42 40 41 41 41 38 37 38 40 42 45 48 50 51 53
44 43 43 42 43 46 48 49 51 54 56 56 55 54 51 59 56 62 61 49 53 56 58 57 53 50 45 47 43 44 42 43 42 42 40 37 38 40 43 44 47 52 54
39 39 45 48 50 51 53 54 56 56 55 55 54 53 54 55 60 59 62 59 54 49 59 63 62 55 54 50 50 48 48 46 45 44 44 43 42 41 41 45 47 47 50
43 49 52 53 53 55 57 59 58 56 53 49 48 47 48 48 50 52 54 55 54 59 61 66 68 65 59 59 58 55 53 53 50 49 47 47 46 46 44 43 46 48 45
52 54 55 56 57 57 58 55 48 44 41 40 40 36 34 36 40 45 47 46 42 44 49 51 46 48 54 53 53 54 51 51 53 53 51 50 50 49 50 48 46 47 48
54 56 57 55 51 47 42 36 34 34 33 31 32 34 29 30 29 32 33 34 34 34 34 33 30 32 39 42 44 47 48 50 53 53 56 55 56 54 53 53 50 48 48
58 54 45 39 35 29 28 32 34 32 29 28 31 34 34 35 36 38 38 33 33 35 37 34 36 37 38 42 45 48 50 52 55 56 57 59 59 57 57 57 55 52 50
45 36 32 29 26 29 33 31 30 27 28 29 30 31 33 34 34 34 34 33 33 34 38 37 38 38 41 44 45 45 47 52 54 57 58 56 55 55 55 56 55 54 53
32 28 28 26 29 33 36 38 38 36 34 33 33 35 35 33 34 35 36 38 38 37 37 40 40 40 41 42 44 45 46 48 50 51 54 56 53 52 53 54 55 54 54
30 30 28 26 29 32 35 35 34 32 31 31 31 31 31 32 33 34 36 38 40 41 42 43 45 43 43 42 43 44 45 45 46 47 49 51 52 49 50 51 53 54 54
23 23 25 30 32 34 33 31 30 31 31 31 32 32 33 34 35 37 39 40 41 41 41 42 42 42 41 40 42 43 44 44 45 45 45 47 49 50 49 49 50 52 54
27 28 35 35 32 31 32 30 30 31 32 33 34 34 34 35 36 38 39 38 38 39 40 41 40 40 42 43 43 43 44 43 43 44 45 44 45 46 47 48 48 50 52
36 37 36 33 31 31 31 32 33 34 35 35 35 34 34 36 36 36 34 36 36 35 37 39 39 39 37 35 35 36 37 38 38 36 38 40 41 44 44 46 48 49 51
35 33 32 32 31 32 34 35 36 36 36 35 34 33 34 34 34 33 33 32 32 32 32 32 34 33 34 34 35 36 36 37 38 36 37 39 37 40 41 43 45 47 48
32 31 32 33 34 35 36 36 36 36 35 33 33 33 34 32 30 30 29 28 29 29 30 31 34 34 34 33 33 34 35 37 37 37 36 40 37 37 38 40 41 44 46
32 33 34 35 35 34 35 34 34 33 33 32 32 33 32 30 27 26 26 27 27 27 30 33 33 34 35 34 32 32 34 34 33 32 29 33 35 36 36 38 39 40 42
35 35 34 34 33 33 33 33 34 34 34 34 32 30 29 26 24 23 24 25 27 26 22 18 18 19 19 22 23 27 28 30 29 29 23 25 26 28 33 34 35 36 38

GFSMA_700_spd_027.txt.gz
Wind_Speed
20 21 22 22 23 23 24 27 28 30 31 30 30 30 31 32 32 32 34 34 32 32 32 31 30 28 27 28 29 28 28 29 31 31 34 29 27 26 27 25 26 26 23
22 23 23 25 25 24 24 25 27 28 29 31 33 33 30 30 31 32 32 37 31 32 32 32 32 33 32 32 32 32 30 29 31 34 35 36 32 31 29 31 27 27 25
26 26 26 25 25 25 27 28 27 28 30 29 30 31 31 31 31 33 32 34 35 33 34 34 34 33 33 33 33 33 34 33 32 34 39 39 38 38 37 35 31 32 29
26 26 26 26 29 30 31 33 32 32 32 33 34 34 35 35 35 35 34 33 36 37 34 35 36 35 34 33 33 34 35 36 36 34 33 39 41 40 38 36 41 38 36
29 28 29 28 32 33 32 31 31 35 39 38 37 37 40 40 40 40 40 38 37 37 39 40 35 37 37 35 34 34 34 37 38 37 35 36 38 44 43 43 45 48 40
32 33 33 34 36 37 35 35 36 37 40 41 41 44 42 44 47 46 46 45 44 43 39 41 41 38 38 38 37 35 35 35 37 39 39 39 38 39 43 49 49 42 39
37 39 41 41 41 44 46 43 42 44 43 42 44 45 46 46 49 49 48 49 48 48 48 43 46 41 44 41 40 39 37 35 35 37 39 42 41 41 40 43 47 51 56
44 45 45 45 48 50 49 44 44 45 42 41 43 44 48 46 45 47 48 50 46 47 47 50 46 43 42 45 44 40 39 39 37 36 38 40 43 43 44 43 45 47 53
48 51 53 49 48 45 43 42 41 42 46 44 45 45 46 49 41 34 41 45 47 49 47 47 50 47 46 42 46 45 40 39 38 37 36 37 41 43 44 45 46 46 47
48 47 45 46 44 41 42 44 47 50 52 53 53 52 45 46 49 50 45 41 41 45 45 49 46 53 52 47 45 46 46 40 39 39 38 37 37 39 43 44 45 47 48
48 45 43 41 42 43 48 52 55 57 57 57 57 58 58 56 54 55 57 49 52 45 45 42 45 50 54 53 50 49 48 45 45 42 41 39 38 37 38 42 45 46 47
40 40 43 46 49 52 55 57 58 58 58 58 57 56 54 53 52 54 53 55 56 47 59 55 44 45 50 53 54 53 52 49 44 45 44 44 41 38 37 37 39 43 46
43 46 49 51 55 58 60 61 60 57 53 52 52 50 48 46 47 48 49 51 52 53 54 58 54 53 50 50 56 51 59 57 51 47 48 48 47 43 41 39 39 39 42
49 52 56 59 61 61 55 48 45 45 39 36 37 36 37 36 36 39 42 45 48 50 51 41 46 53 48 41 42 51 59 56 54 52 50 52 50 50 46 44 42 40 38
54 57 58 56 49 42 40 37 34 35 37 37 34 33 33 32 31 32 32 32 34 36 41 43 46 42 39 28 29 37 43 43 46 46 46 47 49 51 53 51 46 44 43
55 53 48 40 36 34 34 32 31 33 30 28 26 25 29 30 32 35 35 34 34 34 35 33 33 34 34 36 36 37 39 40 41 41 42 45 48 50 52 52 54 51 48
51 43 37 33 32 33 33 32 33 35 37 38 34 33 33 30 30 31 29 28 27 30 33 33 32 32 34 35 37 40 41 44 46 47 47 48 48 50 52 54 54 55 54
40 37 32 27 25 24 31 34 36 38 36 34 31 29 29 28 30 30 30 30 30 27 30 34 32 33 34 35 38 40 42 40 41 43 47 50 52 54 53 55 57 57 58
31 25 26 29 32 34 37 39 37 31 33 34 33 32 32 32 32 33 33 34 34 31 32 36 38 35 36 35 37 38 39 40 42 43 44 45 47 50 51 51 56 57 58
29 27 33 37 37 39 38 30 29 32 33 33 33 34 34 34 34 35 35 36 35 36 37 38 39 38 33 29 30 32 33 34 37 35 34 39 43 47 50 50 49 52 54
33 34 35 38 35 33 29 34 31 33 33 34 35 36 36 38 37 36 38 38 37 38 37 37 38 37 34 38 36 35 38 39 40 40 41 41 41 43 44 46 47 48 51
33 34 34 33 31 28 34 35 34 37 37 36 36 36 36 36 35 36 37 36 34 35 36 37 37 38 39 38 37 36 36 37 39 34 36 38 38 41 41 43 44 48 49
32 33 32 31 31 32 37 36 35 36 36 36 36 35 35 32 33 34 35 35 34 32 33 32 33 32 33 32 33 35 36 37 38 36 37 38 36 37 37 38 39 41 45
33 33 32 33 34 32 36 35 34 35 35 35 35 34 34 32 31 32 32 33 31 30 28 27 29 29 31 33 35 37 37 37 37 36 36 39 34 37 36 39 40 38 40
33 32 32 33 33 32 35 35 36 36 36 35 34 33 32 31 29 29 30 29 26 24 24 25 28 28 27 27 28 34 39 38 36 33 30 32 30 32 33 35 38 39 37
30 32 30 31 33 33 34 35 35 34 35 34 32 30 29 27 26 26 24 25 24 22 23 24 21 19 20 19 18 22 22 28 30 30 26 27 26 24 26 26 28 32 35

GFSMA_700_spd_030.txt.gz
Wind_Speed
21 24 25 26 27 28 29 29 28 28 29 30 32 30 25 25 27 27 31 30 31 28 29 29 28 27 26 26 26 25 30 32 30 27 28 28 27 24 25 22 21 25 24
25 27 28 30 30 31 32 31 30 29 28 28 27 30 32 28 26 27 29 30 29 29 30 30 30 28 27 27 29 30 31 30 30 29 29 32 34 36 28 27 29 25 24
28 28 29 30 30 30 30 30 31 31 29 27 29 32 34 32 30 28 30 32 32 30 29 30 31 31 30 29 29 31 33 34 33 32 32 33 35 38 37 34 31 34 30
29 28 29 30 31 33 33 33 32 30 31 32 36 40 41 41 40 39 36 32 33 35 34 31 31 30 31 31 31 31 32 34 34 34 33 33 35 38 40 38 34 35 37
32 34 35 36 37 38 37 35 35 36 38 39 41 43 43 44 45 45 47 45 40 38 42 37 36 32 32 31 32 32 32 33 34 35 36 35 35 37 41 42 42 39 42
40 38 38 38 39 44 46 44 45 46 46 46 47 45 44 45 44 44 46 48 49 48 46 46 41 39 35 34 35 34 33 33 33 34 36 38 38 38 39 41 45 45 49
42 45 48 51 46 45 46 46 49 49 48 46 45 47 45 43 43 43 43 44 45 46 46 47 48 43 39 38 37 36 36 34 34 34 35 38 40 40 40 40 42 45 48
48 47 51 52 50 48 45 43 43 44 44 41 41 42 46 46 44 43 42 44 43 42 43 46 48 48 49 39 35 34 36 35 35 35 36 36 39 40 41 42 43 44 45
48 53 54 52 50 47 45 41 40 41 45 44 44 47 49 53 53 50 47 43 40 39 42 48 43 55 53 51 45 43 37 35 35 35 35 36 37 40 42 42 44 45 45
53 53 51 50 49 47 46 44 46 48 50 52 54 55 55 55 57 60 56 51 43 44 41 46 42 44 44 49 49 49 43 39 37 35 36 36 36 37 40 42 43 44 45
47 47 48 45 45 47 49 51 54 56 57 59 58 58 58 54 48 48 59 59 56 49 53 55 49 49 48 42 43 47 50 46 42 38 38 38 39 38 38 41 42 44 45
44 42 42 45 48 51 53 55 58 59 59 57 52 49 51 54 54 49 48 53 56 56 52 58 58 50 49 53 48 46 48 47 46 43 38 40 39 40 41 40 42 43 44
40 42 45 50 54 56 57 56 53 49 47 45 43 40 39 39 40 42 43 45 49 52 51 51 58 51 60 55 55 52 48 47 47 45 45 46 44 43 43 44 43 43 43
47 51 53 55 55 54 52 47 40 41 39 38 36 36 36 33 34 35 37 37 36 39 44 47 47 46 53 57 64 52 53 48 51 53 50 48 51 49 46 45 45 45 45
49 51 52 53 50 46 42 38 36 35 35 35 32 30 29 32 31 30 31 32 32 32 31 29 34 44 50 48 44 50 46 44 45 50 47 46 49 48 47 48 47 47 48
49 50 50 48 44 40 36 34 32 32 33 32 30 30 33 34 33 29 27 25 31 32 35 27 32 32 35 39 33 41 41 39 42 43 45 38 39 42 46 49 48 49 48
47 47 45 40 32 28 28 27 34 35 34 37 37 33 29 29 27 29 30 29 28 29 32 33 28 29 32 35 34 34 36 39 39 39 41 38 39 40 43 46 47 48 50
47 45 34 33 32 33 33 38 41 39 38 32 34 32 35 33 34 30 30 30 29 28 31 35 35 32 31 32 33 34 34 36 39 40 42 43 43 43 45 45 46 48 48
43 36 35 35 34 39 45 43 40 35 38 32 32 34 34 33 32 31 31 32 32 32 33 36 38 36 34 33 33 34 36 37 38 41 41 42 44 45 46 47 47 50 51
35 34 35 34 35 37 37 37 36 34 34 34 34 35 35 35 35 36 36 34 34 36 36 37 38 37 36 32 29 29 32 31 32 33 36 37 42 46 47 47 49 49 48
37 34 32 33 33 33 33 33 36 36 35 36 36 36 36 35 35 36 36 40 39 36 36 36 37 38 37 34 33 32 34 34 36 36 37 36 35 37 40 40 40 43 46
33 34 35 32 32 32 35 38 36 33 33 35 36 35 35 34 32 31 32 35 34 32 31 33 35 37 35 34 34 36 38 39 40 36 39 40 39 40 40 41 41 40 43
36 36 33 33 33 32 34 36 34 34 36 36 37 36 35 34 33 34 34 34 33 33 34 33 34 31 31 29 31 32 33 35 36 33 33 35 33 34 33 34 35 37 38
36 36 33 31 29 29 34 36 36 36 37 38 37 36 35 33 32 32 32 33 33 34 33 31 29 26 28 26 28 30 32 35 37 36 33 37 31 33 31 32 33 34 36
37 34 29 28 30 31 33 36 37 35 34 35 33 32 30 30 29 29 30 29 29 28 25 25 26 25 24 25 25 26 27 30 33 36 36 36 29 29 28 29 29 31 34
33 31 26 28 31 33 35 36 36 35 35 33 31 30 28 26 25 25 24 25 25 23 24 23 24 23 22 17 18 21 22 24 23 23 21 31 32 30 29 23 21 21 24

GFSMA_700_spd_036.txt.gz
Wind_Speed
23 23 23 24 24 24 25 25 25 26 28 28 26 26 27 26 22 22 22 22 24 25 25 24 21 21 22 23 25 27 26 26 25 25 29 28 28 28 29 28 26 27 31
25 26 26 25 25 27 28 29 32 33 33 32 30 32 31 30 31 31 31 31 30 28 28 28 27 25 22 22 24 27 28 28 28 29 28 32 30 28 29 28 28 28 30
27 26 25 25 29 30 31 34 36 38 39 37 38 38 37 36 37 36 36 38 40 40 36 31 30 29 27 25 24 25 29 30 30 31 31 32 35 34 32 31 32 31 30
27 27 28 31 35 35 39 39 40 42 43 43 45 40 38 39 40 41 43 44 43 42 41 40 38 33 30 30 29 27 27 30 33 33 34 35 35 35 35 36 36 34 33
32 31 34 36 38 38 42 42 43 46 47 47 46 42 38 38 39 41 41 40 41 43 44 42 43 41 38 30 30 31 31 30 32 35 36 36 36 36 36 37 37 37 38
37 39 39 40 39 42 43 45 47 47 47 47 45 44 42 40 39 39 40 39 39 41 44 46 45 43 39 37 30 29 31 33 33 34 36 37 38 37 37 38 39 39 41
38 39 41 44 45 47 48 49 48 45 42 44 47 46 44 41 41 41 40 41 44 43 42 43 43 45 46 42 38 31 31 30 33 35 36 36 37 38 38 38 40 41 42
40 42 44 46 47 48 47 45 44 45 44 44 46 48 51 48 46 46 46 46 48 48 48 47 45 45 46 46 44 41 39 38 34 35 38 38 38 38 39 40 40 41 42
40 42 45 46 46 45 45 44 43 43 44 46 48 50 53 56 58 54 51 52 52 53 52 52 51 49 49 48 46 46 44 42 39 36 39 39 41 41 41 41 41 41 42
43 43 43 43 44 45 46 45 46 48 50 51 51 51 51 53 56 61 58 56 53 52 52 53 54 53 51 50 49 48 44 46 46 44 40 37 40 42 43 42 43 43 42
42 42 44 45 45 45 46 48 49 50 51 52 52 51 49 46 45 45 54 52 47 40 39 44 49 52 53 53 54 51 49 43 51 43 45 44 46 42 43 43 43 42 43
40 41 41 43 45 46 46 48 50 50 51 50 48 45 43 41 38 37 37 38 37 35 33 31 33 36 42 49 53 54 55 56 45 49 55 54 49 46 46 46 45 43 42
40 41 44 44 44 47 48 50 51 48 45 44 39 35 33 30 30 34 34 34 32 30 30 29 32 30 31 35 42 48 51 40 52 54 50 52 53 53 50 49 49 47 45
45 47 47 46 47 50 52 50 46 43 39 35 34 32 30 31 34 35 34 31 33 31 28 31 30 28 26 29 30 35 38 55 44 42 49 53 52 56 53 51 52 53 49
48 48 50 50 52 52 50 45 41 35 34 34 35 35 35 34 35 33 34 33 33 41 43 41 39 37 33 33 32 32 31 33 40 52 49 47 51 60 61 58 54 57 55
48 50 52 52 50 46 43 41 38 35 35 35 31 33 39 37 31 30 28 30 33 34 40 37 35 35 32 30 28 32 31 30 26 33 39 55 53 55 56 57 55 58 57
46 45 47 44 42 43 41 38 38 36 37 38 38 38 37 36 30 34 29 34 36 38 41 41 40 37 35 28 27 28 30 30 27 28 36 46 47 46 54 58 50 53 53
38 39 35 34 36 38 39 36 35 36 37 37 35 35 34 36 37 38 38 40 40 38 39 40 39 36 35 32 29 29 28 28 31 30 27 35 46 50 53 55 51 54 55
44 40 37 35 34 34 34 34 36 36 34 34 34 36 37 39 40 40 40 40 38 38 39 41 41 40 38 36 33 31 31 30 30 32 31 34 35 38 41 49 54 46 48
46 45 38 33 31 32 36 38 36 34 32 32 33 35 37 39 40 40 40 40 38 36 36 38 38 39 38 37 37 35 34 33 32 33 31 33 36 38 38 40 40 42 47
50 47 31 31 31 33 40 37 32 30 31 33 35 37 39 40 40 40 41 40 39 38 36 36 37 37 34 31 32 32 34 34 34 33 34 33 35 38 40 45 45 46 49
40 27 25 30 33 37 37 33 32 31 33 35 38 40 39 38 38 37 37 36 37 38 37 37 37 38 35 32 30 31 32 32 33 30 31 33 36 38 40 42 44 47 50
21 29 31 32 33 34 33 32 32 33 36 38 39 38 38 38 37 37 35 34 33 33 35 36 36 35 34 31 31 28 29 31 31 27 31 33 35 39 39 40 41 43 45
30 26 30 31 32 30 32 32 32 35 37 39 38 37 36 36 36 34 33 32 30 30 29 31 33 32 31 28 29 28 27 28 27 22 24 30 27 33 35 38 40 41 43
25 26 28 31 29 30 31 32 33 35 38 37 35 35 35 33 29 27 27 26 24 20 23 26 27 27 28 26 25 24 22 24 21 18 21 28 21 29 33 36 37 39 39
23 27 31 28 29 30 31 32 35 36 38 37 37 32 27 24 23 23 23 23 22 19 19 20 22 23 24 22 20 20 18 17 14 15 13 19 18 22 23 26 33 39 38

GFSMA_700_spd_039.txt.gz
Wind_Speed
20 21 23 23 23 24 27 29 29 29 30 30 30 29 28 29 31 31 30 29 28 27 26 23 21 21 22 23 25 27 28 28 29 28 27 27 30 31 32 30 29 28 28
24 25 25 24 26 29 31 32 34 35 37 36 35 35 33 34 36 38 37 36 36 36 34 31 28 26 25 25 25 26 28 29 30 31 30 29 31 32 33 32 32 32 30
26 27 28 29 31 32 35 36 39 40 41 40 41 41 41 40 38 37 37 40 41 40 40 40 40 35 30 28 28 28 28 30 31 32 34 34 34 36 37 35 35 34 35
29 31 34 35 35 36 38 40 40 41 44 45 46 45 45 42 39 36 35 37 39 42 43 43 42 41 40 35 31 32 32 31 33 34 35 36 38 37 39 38 39 36 35
33 36 37 36 37 37 39 42 45 47 49 51 51 48 45 42 40 40 40 40 41 42 43 44 43 43 42 41 40 34 34 35 35 37 37 37 38 39 38 40 43 39 38
36 35 40 40 37 39 46 48 50 51 54 55 53 50 47 44 44 43 41 42 41 43 43 43 43 42 43 43 43 40 37 35 36 39 40 40 39 40 41 41 42 42 42
34 37 39 46 46 47 49 51 53 55 54 53 53 52 49 45 43 43 43 44 44 44 46 47 47 46 46 45 44 43 41 40 39 37 41 43 43 41 41 42 43 44 44
36 39 41 44 47 49 52 54 53 51 49 49 50 50 52 49 47 47 47 47 49 49 49 51 52 52 51 50 49 47 45 41 40 41 39 43 46 44 42 42 42 44 44
40 42 44 46 47 47 47 48 48 48 48 46 46 47 51 54 55 52 51 52 52 52 52 53 53 54 55 55 54 52 50 46 43 43 43 44 43 45 45 44 43 42 44
40 41 44 45 45 46 48 48 47 47 47 48 48 48 48 50 53 59 54 50 48 46 48 50 53 54 54 54 55 56 55 54 49 45 46 47 46 45 46 47 46 44 43
43 41 42 44 46 48 49 50 51 51 51 52 53 52 50 47 45 47 52 50 46 38 35 36 40 44 48 49 51 51 54 56 55 51 47 49 49 49 48 48 49 48 46
42 42 44 46 47 50 52 53 53 53 54 54 52 48 47 45 42 41 41 41 41 39 35 33 34 33 35 37 39 42 45 49 55 54 53 48 52 48 51 52 49 51 49
42 43 46 49 50 49 51 52 52 52 50 47 45 42 39 37 34 35 36 38 42 39 35 33 31 32 30 30 29 32 36 39 44 53 56 51 52 55 46 53 53 56 54
43 44 45 48 51 52 53 54 50 43 43 42 40 38 34 32 33 34 34 34 41 41 40 36 36 31 30 30 32 31 30 32 33 37 48 51 55 47 49 53 54 59 58
41 43 49 52 51 51 47 39 36 37 40 41 42 36 34 34 34 39 39 39 36 40 39 36 34 36 36 34 34 40 40 36 34 30 34 52 47 47 48 53 55 61 60
49 51 45 44 46 41 37 34 33 36 39 40 39 38 38 38 38 34 33 29 35 34 42 40 39 39 39 38 33 32 36 37 34 31 31 36 50 56 43 44 58 54 56
47 45 45 44 43 41 39 35 34 37 40 41 40 38 36 36 37 36 33 37 36 39 44 45 42 40 39 37 35 33 33 36 35 33 33 31 38 45 43 44 47 58 63
49 47 40 46 42 44 35 34 35 37 40 40 38 36 35 36 37 39 40 41 41 39 40 42 40 39 40 38 35 34 31 32 35 34 34 32 31 33 37 43 49 49 51
43 41 45 45 48 37 27 30 34 39 38 33 33 34 35 36 38 39 41 42 42 41 40 40 39 38 38 38 36 36 36 34 34 33 34 32 33 33 32 36 42 47 54
41 48 48 39 29 24 28 32 37 37 31 32 33 34 36 38 40 42 42 42 41 41 40 39 38 38 38 36 36 34 36 36 36 35 33 32 31 37 37 37 37 41 44
44 48 34 23 19 25 33 36 37 32 31 32 33 36 39 41 41 41 41 40 40 39 39 37 37 37 37 36 35 33 33 33 34 35 34 33 33 33 36 41 38 40 41
44 39 33 21 23 29 34 36 33 31 32 34 37 38 41 41 41 41 40 39 38 37 37 36 35 35 35 34 34 34 33 31 32 29 31 32 36 36 35 38 40 41 41
32 28 32 23 24 29 35 33 31 32 35 37 39 41 42 41 42 42 39 36 35 34 34 34 34 33 32 30 31 31 30 30 28 26 30 29 32 35 36 38 39 40 42
24 25 25 23 25 32 32 30 31 33 35 37 39 41 40 41 38 34 32 29 27 25 23 26 29 30 28 26 27 27 27 27 26 24 26 29 27 32 34 37 39 40 41
27 24 22 25 30 28 29 31 33 34 35 36 38 38 38 36 30 28 28 27 25 22 21 23 25 25 25 24 23 23 22 22 22 19 22 25 20 26 31 32 34 37 39
26 25 25 29 26 27 29 32 34 35 36 37 38 37 35 28 25 25 25 24 23 21 18 17 19 21 20 19 19 19 18 18 18 15 16 19 18 22 22 24 28 33 36

GFSMA_700_spd_042.txt.gz
Wind_Speed
19 19 21 24 27 26 26 26 26 29 30 31 33 34 34 34 34 34 35 34 34 33 33 33 31 29 27 26 26 25 26 28 29 31 32 31 32 33 32 31 29 28 27
21 23 27 29 28 28 29 29 30 32 34 34 34 36 36 36 37 39 40 40 39 38 37 37 37 36 35 33 31 31 30 30 30 32 33 34 34 34 33 34 33 32 30
25 28 30 32 31 32 33 33 35 36 39 39 39 40 41 40 40 43 43 42 41 40 39 38 38 39 39 37 36 37 36 34 33 33 35 35 37 37 35 35 35 35 34
28 29 30 32 35 34 33 35 35 40 41 44 48 45 45 44 44 43 43 42 42 41 41 41 41 41 41 41 39 37 37 38 38 37 37 37 38 39 39 39 40 38 38
28 28 33 35 37 39 34 39 43 48 49 49 51 50 49 49 48 45 43 44 44 44 43 42 42 42 42 42 42 41 40 39 40 41 41 41 40 41 42 43 43 43 41
28 30 33 35 38 45 47 50 49 51 54 56 57 57 54 49 47 45 44 44 45 45 45 45 45 44 44 43 43 43 43 42 41 41 42 44 44 43 44 46 46 45 45
29 31 35 39 43 47 50 53 55 57 58 58 59 57 55 53 49 47 47 46 44 44 45 47 49 49 48 47 46 47 46 46 45 43 42 43 45 47 46 46 48 49 47
29 31 35 39 43 47 50 52 53 53 53 53 54 54 55 52 48 45 47 49 49 47 49 51 51 51 52 52 52 51 51 50 49 47 44 44 46 46 48 48 49 50 50
37 40 42 45 44 44 46 47 48 50 51 50 50 51 53 54 54 49 47 49 50 52 53 53 53 53 53 54 54 55 54 53 53 52 51 47 48 47 47 49 50 51 51
44 43 46 46 45 44 45 46 47 48 50 51 50 49 50 52 53 59 54 46 43 42 43 47 48 50 52 52 52 52 54 55 55 55 55 53 49 51 50 48 49 52 51
47 49 48 46 45 46 49 51 53 54 55 55 56 55 54 51 48 50 54 52 46 39 33 33 36 39 41 44 45 47 48 50 53 56 57 57 54 53 52 51 49 49 52
49 48 47 47 48 50 50 50 50 52 54 54 51 45 41 41 42 44 45 44 44 42 37 32 32 33 35 37 38 40 41 42 44 49 54 58 58 56 56 59 47 47 53
45 45 46 47 47 48 50 49 48 45 42 35 32 34 37 40 41 41 39 38 39 39 38 38 36 35 34 33 33 34 36 37 36 36 41 49 56 58 53 58 52 51 43
46 47 45 46 47 47 46 45 41 38 36 34 32 35 38 40 40 36 36 38 43 42 46 43 39 36 31 30 33 34 35 34 32 32 33 36 43 52 58 57 57 56 39
46 47 48 48 47 48 45 41 39 38 35 34 35 36 37 38 38 38 40 46 45 45 43 40 37 33 35 34 33 34 36 39 41 39 37 34 33 39 54 53 60 47 51
48 49 51 49 47 41 39 42 36 42 35 35 37 38 41 39 36 34 34 34 36 36 43 42 39 38 37 38 36 35 34 35 38 39 37 38 36 33 41 58 43 53 56
52 50 43 41 39 41 42 36 39 31 31 34 37 40 36 34 33 33 34 35 37 38 42 42 40 37 38 37 38 37 33 32 34 36 37 34 35 35 35 46 57 49 42
48 42 40 39 43 46 43 29 25 28 32 35 39 35 33 33 32 34 37 38 40 41 43 46 42 40 38 36 36 34 32 33 34 33 34 34 32 32 35 38 40 47 46
48 43 42 43 42 38 24 23 26 31 35 39 36 33 33 33 34 36 38 41 42 41 41 42 42 40 38 37 35 34 32 31 33 34 33 31 32 32 32 34 37 47 50
44 43 40 37 31 28 23 22 26 33 37 35 33 33 34 35 38 40 41 42 41 40 39 39 38 38 36 33 35 34 33 32 30 32 33 32 30 30 31 34 35 40 44
37 38 34 30 28 25 22 28 31 36 35 32 32 34 35 37 39 42 43 42 42 40 39 38 36 34 33 32 32 32 34 32 30 29 29 31 33 32 31 31 37 36 38
37 34 29 26 23 24 23 29 32 32 31 33 34 35 37 37 40 40 40 39 37 35 34 33 31 31 31 29 28 30 31 32 29 28 30 27 30 33 32 31 31 35 39
34 26 24 26 28 25 25 28 28 30 32 34 36 37 38 40 40 41 38 32 30 28 29 29 30 28 28 26 25 26 27 28 28 25 28 26 26 28 31 32 33 34 34
28 24 23 25 25 26 27 26 27 30 32 33 35 37 38 39 39 37 32 30 28 25 23 24 26 26 26 24 22 23 22 24 24 21 25 25 24 26 30 33 34 34 35
29 28 27 27 27 25 25 27 29 30 32 33 35 36 38 38 36 30 29 29 27 24 22 21 22 22 21 20 19 20 19 19 18 19 22 24 20 23 29 30 31 33 34
29 28 27 27 23 23 25 27 30 32 33 34 34 36 37 36 30 27 27 26 25 23 20 17 16 17 17 15 13 16 16 17 16 18 15 19 17 19 20 22 24 28 30

GFSMA_700_spd_045.txt.gz
Wind_Speed
18 18 20 22 24 25 25 25 25 26 28 30 31 32 33 33 34 35 33 32 32 32 32 33 33 34 34 33 32 29 28 28 29 32 33 34 34 33 33 30 29 30 29
18 20 23 26 27 27 26 29 30 30 29 32 34 36 35 37 39 39 38 37 37 38 38 37 36 36 36 36 37 37 35 32 31 32 34 36 37 37 36 35 35 33 33
20 23 26 29 31 33 31 33 28 32 39 39 39 42 45 44 43 43 43 43 43 44 43 42 40 39 39 38 37 37 39 40 38 35 36 38 38 39 40 38 36 35 35
23 26 27 29 30 36 32 35 36 41 37 46 47 47 48 47 48 49 50 49 47 45 44 43 43 43 43 43 42 40 39 40 40 39 39 39 40 41 41 42 41 39 36
28 30 31 32 34 34 37 40 42 44 46 48 49 50 51 51 50 49 49 49 48 48 47 46 46 46 46 46 45 44 43 41 41 41 41 41 41 43 43 44 44 42 40
27 28 30 33 36 37 40 43 45 48 50 52 53 53 51 50 47 47 47 48 48 47 47 48 48 47 48 48 47 46 46 46 44 42 42 42 43 44 46 46 46 46 45
27 31 35 37 39 40 41 42 44 46 47 50 52 52 51 52 50 48 47 46 46 46 47 48 48 48 49 50 50 49 50 48 47 46 45 43 44 45 46 48 49 48 48
33 36 34 35 37 40 42 43 44 46 48 50 52 54 54 54 53 52 51 51 50 49 51 52 52 53 53 52 52 53 53 52 52 51 49 47 46 46 47 47 48 49 50
38 39 40 40 42 42 42 42 43 45 47 48 49 50 53 55 56 51 49 49 49 47 47 48 50 52 53 53 53 52 52 53 54 54 54 53 51 49 48 49 49 48 49
42 43 44 44 44 44 45 45 46 48 48 49 50 50 50 52 50 51 45 37 33 35 37 40 44 46 47 48 49 50 50 50 51 53 55 56 55 54 51 50 51 51 49
44 43 44 45 46 47 49 48 47 47 48 47 47 44 39 37 33 34 37 37 40 37 35 35 37 40 41 43 45 45 46 47 48 50 53 55 56 57 57 54 54 54 51
43 44 45 46 49 49 48 46 46 46 44 40 36 35 33 31 32 36 39 38 35 39 41 37 35 36 36 38 39 40 41 43 45 47 51 53 55 56 59 59 56 56 56
44 45 47 48 48 47 48 47 46 45 43 40 34 34 36 34 35 36 31 32 33 31 36 41 40 38 39 41 41 40 40 41 43 44 45 46 49 51 55 60 61 59 59
46 46 47 47 48 49 48 46 43 40 39 37 33 34 34 34 35 37 36 38 35 36 40 47 46 41 38 33 33 34 37 38 41 43 43 41 42 42 44 51 59 62 61
47 48 49 50 49 47 44 40 37 37 28 29 34 26 30 34 38 36 34 33 32 36 38 33 37 38 35 36 37 34 34 36 38 39 42 42 40 39 38 38 44 57 60
49 50 49 47 45 41 38 39 39 32 26 27 27 29 32 37 36 33 33 33 33 35 43 36 36 37 36 36 37 35 35 35 36 37 40 41 43 42 39 37 35 40 43
48 48 47 44 41 38 36 37 34 27 26 26 29 33 36 37 34 34 34 34 36 37 42 41 41 41 41 39 38 36 36 34 33 35 36 38 39 38 38 38 37 34 36
47 47 45 41 38 34 35 33 28 27 26 29 32 37 37 35 34 35 35 36 38 38 42 45 41 39 39 38 36 36 35 34 33 34 34 35 35 34 35 34 37 37 41
44 41 40 36 35 32 31 27 27 28 28 32 35 39 34 34 35 36 37 38 39 40 41 42 41 40 39 36 35 35 33 33 33 33 33 33 34 32 31 32 33 38 37
42 40 35 34 30 25 24 25 23 27 32 35 38 33 34 35 36 36 37 38 40 39 39 40 39 37 35 34 33 32 32 31 32 33 32 32 32 32 30 31 29 33 35
41 38 32 30 24 22 22 26 27 28 31 33 30 32 33 33 34 35 38 38 39 39 37 34 33 32 31 29 28 29 30 31 31 32 30 30 30 29 29 31 29 28 33
39 34 29 26 23 24 23 23 25 28 26 29 31 32 32 33 34 36 36 36 33 30 30 31 31 30 28 26 24 25 27 28 28 27 28 29 30 27 26 30 30 28 32
38 32 29 28 26 26 26 26 24 25 27 29 32 33 33 33 34 36 36 31 27 26 28 29 29 28 27 25 24 22 22 24 24 24 26 28 27 25 25 28 31 31 30
35 32 30 28 27 27 26 22 23 25 27 30 32 32 32 32 34 36 33 28 27 26 26 25 25 25 23 22 21 21 21 21 21 21 22 24 23 23 27 28 30 31 30
34 31 29 27 25 24 20 21 23 25 28 29 29 30 32 33 34 33 30 27 26 25 24 23 23 21 19 18 16 16 18 19 18 16 19 21 20 22 24 26 27 28 29
31 29 26 23 22 19 19 21 24 26 28 28 28 29 31 32 33 31 28 26 26 24 24 21 20 17 13 10 8 8 10 15 16 15 14 19 15 17 18 22 24 25 27

GFSMA_700_spd_048.txt.gz
Wind_Speed
13 14 17 20 21 21 23 25 28 30 31 32 31 32 31 35 35 34 34 35 32 33 33 33 33 32 31 31 31 32 32 34 33 32 31 31 32 33 34 32 31 30 30
24 24 21 25 26 26 29 32 31 33 31 30 33 36 36 40 41 41 40 40 39 37 37 38 39 39 38 36 34 34 34 35 37 37 36 35 34 33 34 36 35 33 32
23 21 23 27 29 31 32 34 35 33 34 36 39 40 41 45 45 46 45 45 46 45 42 42 42 41 41 40 39 38 37 38 38 40 41 41 40 38 37 35 37 38 36
26 25 28 29 30 31 33 36 37 37 40 41 44 44 45 45 47 47 48 46 46 45 47 45 44 43 43 43 43 43 42 42 42 42 41 42 43 44 43 41 38 38 39
25 25 27 28 31 34 37 39 41 43 43 45 46 46 47 46 46 47 48 49 48 45 46 50 45 46 46 46 46 45 46 46 47 44 43 43 43 44 44 44 42 40 39
22 25 29 33 37 40 40 40 41 42 44 46 44 45 46 46 46 48 48 49 50 48 48 48 47 47 48 48 48 48 48 49 49 47 46 45 44 44 45 45 43 43 43
23 28 32 33 33 36 36 38 40 41 41 44 45 47 48 51 52 51 51 51 52 52 54 56 53 51 50 52 51 49 50 51 51 50 49 49 47 46 46 47 48 46 44
27 29 32 35 35 36 37 38 39 41 43 46 47 46 47 42 39 43 50 54 55 53 54 57 58 56 53 52 55 53 54 54 55 54 52 51 52 50 49 48 48 49 49
32 34 37 38 39 38 40 42 43 44 45 44 47 46 46 43 45 46 44 44 51 51 51 52 53 54 51 49 49 54 54 54 55 55 56 56 54 53 52 51 50 49 50
39 40 41 41 41 42 43 44 45 45 46 44 43 41 43 42 43 44 39 39 32 31 34 36 38 42 44 45 46 46 48 50 53 53 53 54 56 54 53 54 53 52 51
40 42 42 42 43 43 44 44 44 44 43 44 41 38 33 31 26 32 36 31 28 27 26 28 36 40 36 42 44 38 47 46 47 50 50 50 52 54 54 54 55 55 55
42 43 42 42 42 43 44 44 44 43 38 30 26 27 30 32 25 24 29 32 31 35 30 34 34 36 33 33 31 40 45 46 46 46 48 49 49 49 52 53 54 56 57
41 42 43 44 44 45 45 37 35 25 27 32 29 32 32 32 28 27 30 32 37 41 40 30 28 34 36 33 32 37 42 43 45 46 47 48 48 46 47 50 53 55 58
43 43 43 44 45 41 30 29 31 33 33 33 35 32 31 34 28 28 31 31 34 37 27 25 24 26 27 33 32 34 33 34 38 41 44 47 47 47 45 44 46 53 57
44 45 45 46 45 33 29 31 31 34 34 32 34 27 27 27 32 32 30 26 28 36 33 28 30 28 29 30 33 38 36 34 36 39 37 43 45 47 45 42 41 43 49
43 44 44 45 43 36 28 31 34 33 32 31 25 28 28 31 34 36 30 27 27 31 37 33 33 35 36 35 34 39 39 38 36 37 38 40 41 43 44 44 41 39 39
43 43 43 42 41 37 28 29 32 35 31 27 29 30 32 35 38 38 31 33 34 33 34 37 35 36 39 37 34 34 37 33 31 33 36 38 39 40 41 41 41 39 38
41 41 41 40 39 35 29 34 30 30 27 28 32 32 35 38 42 36 35 34 34 34 33 36 39 36 37 36 35 37 38 34 30 26 35 39 34 38 38 38 37 36 38
41 40 41 40 38 32 30 25 25 25 25 26 32 35 37 39 36 35 36 37 36 38 40 43 43 41 38 34 33 33 33 32 30 30 33 35 35 37 35 35 34 31 33
40 40 41 39 33 28 25 22 23 24 27 29 32 33 34 34 35 35 35 36 38 40 41 41 39 36 33 30 29 28 27 25 24 25 30 33 35 34 33 32 32 30 30
40 40 40 36 30 28 27 25 25 24 25 28 28 30 32 33 33 33 34 35 37 38 37 33 32 32 32 27 24 23 24 23 24 24 28 30 28 26 26 29 29 29 28
41 41 38 34 31 30 28 27 25 25 24 25 27 30 31 33 33 33 33 33 34 32 29 29 29 30 28 26 25 23 25 23 24 20 19 23 25 26 25 22 27 30 28
40 39 37 34 31 31 28 25 24 22 22 25 28 30 31 31 32 32 33 33 30 26 27 27 28 28 27 25 24 24 23 23 23 21 21 22 21 25 27 27 28 27 30
39 37 35 33 31 30 25 23 20 20 22 25 28 29 30 30 31 32 33 32 28 25 25 26 27 28 27 24 21 21 22 21 21 23 22 24 21 24 24 26 27 24 28
36 36 33 30 27 25 21 18 17 19 22 24 26 28 28 29 30 31 32 30 26 24 25 25 25 25 23 18 14 17 18 19 20 19 16 16 19 19 21 22 23 23 24
35 32 30 26 23 22 18 16 17 19 21 23 24 26 28 27 29 31 31 28 25 24 24 22 20 20 18 14 11 9 10 11 13 16 10 14 16 12 15 16 18 21 21

GFSMA_700_spd_051.txt.gz
Wind_Speed
16 14 15 20 27 20 27 27 29 32 31 34 32 33 31 35 38 37 37 39 39 35 32 32 33 33 33 33 33 32 33 32 33 35 36 34 31 28 26 27 28 29 29
20 22 26 22 23 25 29 31 34 31 34 34 35 36 38 38 40 41 42 43 42 42 41 37 38 38 38 38 37 36 35 35 35 35 37 38 38 34 31 29 27 28 30
23 22 28 26 25 30 33 33 35 35 38 39 40 40 42 43 43 45 44 44 43 42 43 41 37 38 40 41 40 39 39 38 38 38 38 39 40 41 37 33 32 30 29
31 25 26 27 30 32 31 33 36 39 40 41 42 43 44 43 43 43 42 44 46 42 44 47 44 40 42 42 42 42 42 43 43 43 42 41 42 42 43 43 35 35 33
22 24 27 27 29 33 35 37 37 39 42 41 42 44 43 44 44 44 43 45 48 49 44 43 50 42 46 45 45 45 45 46 46 48 46 46 44 44 45 44 45 41 37
20 22 27 29 32 34 35 39 38 38 39 41 42 43 43 44 44 48 45 44 43 47 50 48 49 47 51 51 47 47 49 50 49 49 49 49 48 48 46 46 46 47 44
19 22 29 32 33 35 38 39 38 39 40 41 45 46 46 44 41 41 41 41 44 47 51 52 50 53 50 48 52 54 51 50 53 54 52 52 52 52 50 48 48 48 48
22 27 28 31 33 33 37 37 37 39 40 42 43 46 48 44 41 29 39 38 39 46 43 44 48 49 49 50 45 50 55 52 52 53 55 55 55 55 54 51 50 50 50
29 32 33 33 37 39 39 42 42 43 42 43 42 43 43 42 40 37 39 39 33 39 43 41 36 36 33 34 35 34 51 54 43 49 54 54 56 57 57 55 52 52 52
35 36 37 39 40 41 42 43 42 42 43 42 39 33 32 33 32 37 34 32 32 28 27 24 24 32 33 40 36 39 44 49 47 43 47 50 53 55 55 56 56 55 55
42 42 42 42 42 42 42 41 41 41 39 39 32 32 32 26 26 27 34 29 28 29 33 32 36 37 36 41 42 36 36 43 46 45 46 47 49 50 53 54 56 57 56
39 42 43 44 44 43 40 38 38 36 38 32 29 27 31 30 31 34 35 35 38 37 28 33 37 35 33 33 35 36 38 43 46 46 44 47 50 50 48 50 52 55 57
38 40 42 42 41 41 40 39 32 31 34 32 30 32 35 35 35 33 33 38 37 35 38 31 28 27 23 32 30 31 37 38 42 39 44 47 46 48 50 48 48 51 54
38 41 43 44 43 41 40 38 32 31 35 36 35 35 36 34 32 34 30 34 36 37 36 33 25 26 29 32 34 37 42 43 40 37 37 42 42 43 46 49 47 47 50
41 43 43 43 42 41 40 37 37 29 35 37 35 35 34 33 31 34 33 33 30 39 38 30 32 29 32 33 36 39 43 47 48 46 37 39 41 42 43 43 46 45 46
42 43 43 42 41 39 38 36 33 28 32 34 35 36 36 31 33 34 36 35 32 32 40 34 34 33 36 36 36 37 39 41 43 42 36 36 40 41 43 42 41 42 43
42 42 42 41 40 39 39 34 30 30 36 36 37 34 33 34 35 36 39 36 31 30 35 38 37 35 35 37 39 39 39 41 39 38 33 31 28 39 41 41 41 39 38
41 41 41 41 40 39 37 35 31 30 28 28 29 27 29 32 36 38 33 28 31 32 35 39 38 40 39 38 40 40 39 34 36 33 29 30 35 38 38 39 40 38 35
41 42 42 41 40 38 35 31 29 28 27 28 26 28 33 33 36 35 35 37 37 38 38 39 41 41 44 39 37 33 32 30 30 29 26 25 30 34 37 36 35 35 33
42 43 42 40 37 36 33 30 29 29 29 27 27 30 31 30 33 35 37 37 38 39 39 41 42 41 38 34 31 30 28 26 26 27 26 26 31 34 36 32 30 32 30
42 42 40 40 41 36 34 29 29 29 28 28 28 27 28 31 33 35 34 34 34 37 38 39 38 34 32 30 27 26 27 27 24 26 27 25 26 25 23 22 24 28 27
41 40 38 38 36 35 34 28 28 25 26 27 26 26 28 31 34 34 34 33 32 35 35 35 32 31 30 28 25 24 26 27 27 23 23 22 21 22 22 18 24 23 27
41 38 38 36 34 27 31 29 27 24 24 23 24 26 28 30 32 31 32 34 34 34 32 30 30 29 29 27 29 30 27 26 26 22 22 24 21 22 20 24 27 30 28
40 37 38 35 32 26 30 27 25 24 21 21 23 26 27 28 31 29 31 32 33 31 28 27 28 29 29 28 27 24 20 20 21 21 21 22 20 22 24 25 24 26 21
38 36 34 34 31 29 27 24 24 20 20 20 22 24 26 26 28 29 31 32 31 27 25 25 26 25 23 23 21 16 11 15 18 18 18 21 16 15 16 17 17 18 19
37 35 33 31 30 28 28 22 19 20 20 20 21 23 26 24 26 28 30 31 29 25 24 23 21 20 21 20 15 13 12 16 18 15 11 16 13 12 11 7 9 12 13

GFSMA_700_spd_054.txt.gz
Wind_Speed
13 16 17 16 20 25 23 24 28 30 34 35 34 35 35 35 36 34 36 38 38 37 37 34 32 31 33 33 33 34 34 34 33 33 32 31 30 26 26 25 23 22 22
19 22 21 19 21 22 25 28 33 33 35 35 37 38 40 40 41 40 40 42 42 40 39 37 35 32 34 35 34 35 37 36 35 35 35 34 33 32 31 29 28 26 24
24 26 23 23 23 25 28 31 33 34 36 37 38 40 40 41 41 41 40 41 42 44 44 41 42 38 35 37 38 38 37 38 38 38 38 36 36 36 35 34 33 30 29
29 24 26 23 26 29 30 31 34 35 37 39 40 41 41 40 39 39 40 42 40 46 50 49 46 45 42 41 41 41 40 41 41 41 43 40 39 39 39 38 36 35 32
27 25 28 23 26 28 31 35 36 37 39 40 40 39 40 40 40 40 42 41 37 41 45 48 47 46 43 45 42 42 44 46 46 45 46 45 44 43 42 41 40 39 38
22 27 26 24 24 30 34 35 37 38 40 41 42 43 42 43 42 40 40 35 33 39 44 48 50 52 55 53 50 47 43 47 49 50 51 49 49 46 46 44 43 43 42
21 23 24 27 30 34 38 40 40 40 39 41 42 42 43 42 40 36 40 39 40 43 42 46 51 54 54 54 56 59 61 54 46 47 50 53 53 52 51 48 46 45 45
21 26 26 31 35 36 37 40 39 41 40 40 41 43 45 42 40 39 40 40 41 41 44 48 49 51 47 45 41 41 49 53 51 42 39 45 52 55 54 51 50 47 47
23 27 29 33 36 38 38 40 41 42 42 40 39 41 43 44 44 42 36 39 41 45 46 48 44 42 44 32 29 37 49 49 45 43 37 35 39 47 54 55 52 51 49
27 30 32 36 36 37 39 41 41 42 40 41 41 37 37 38 42 45 37 32 31 31 35 38 42 37 35 35 42 48 48 48 48 45 44 40 37 41 45 51 54 53 53
34 36 38 38 40 41 42 43 44 43 41 42 38 35 34 31 29 34 41 36 33 34 33 31 37 39 39 38 43 38 39 44 46 44 41 41 41 41 41 45 49 52 52
36 37 36 39 40 40 40 40 41 40 37 35 35 38 37 36 35 37 40 41 40 40 34 38 34 36 38 37 37 35 33 33 39 43 43 40 37 37 41 43 46 49 52
33 33 35 37 38 39 39 39 38 41 37 35 35 37 39 40 40 38 36 34 36 36 38 35 37 37 37 32 33 37 37 36 40 46 51 50 46 38 39 39 41 44 50
33 34 36 37 39 39 39 38 38 40 42 31 31 36 39 39 38 38 34 36 39 39 39 41 40 40 34 31 34 38 41 45 49 51 51 52 48 45 44 42 40 41 43
33 35 38 40 40 40 40 39 39 39 39 33 31 36 37 37 35 33 35 33 36 41 45 45 42 38 37 37 38 39 42 45 48 49 50 50 46 42 41 44 44 40 39
35 38 40 40 40 40 40 39 38 38 34 32 32 36 39 37 38 38 39 37 37 42 46 39 39 38 37 39 41 42 43 45 43 43 43 43 41 38 37 39 42 42 38
37 40 41 40 40 40 40 39 37 36 34 33 31 32 32 32 33 35 35 38 42 37 37 41 42 41 40 43 45 42 40 42 42 41 40 39 38 38 34 34 37 40 40
40 40 41 41 41 39 39 36 36 34 33 32 31 31 31 31 29 32 39 38 36 37 39 45 44 43 43 44 46 44 40 36 34 33 32 32 30 33 31 33 37 39 34
40 40 40 41 41 39 35 35 35 32 31 31 31 30 31 29 32 34 31 34 36 39 40 41 43 41 42 42 43 39 33 32 30 28 27 28 25 25 24 26 27 31 32
40 40 41 42 40 42 38 35 34 32 30 29 28 27 28 32 30 29 32 34 37 37 38 39 40 40 40 38 35 33 32 28 28 26 25 25 25 27 28 28 31 32 28
39 41 41 41 36 36 39 39 35 29 29 29 28 28 30 29 29 30 32 33 34 35 35 36 37 38 37 33 31 30 31 29 25 23 25 24 24 23 21 25 24 22 23
40 41 42 38 35 35 37 35 33 31 31 28 28 30 26 26 29 31 31 33 33 35 35 37 37 35 32 31 30 30 31 32 32 25 27 25 22 24 21 21 21 25 21
41 41 41 37 35 35 35 33 28 31 32 28 28 26 24 25 27 28 30 31 32 33 35 36 34 30 30 30 31 30 28 29 26 19 22 25 21 24 24 24 23 24 25
39 37 39 34 35 36 35 31 25 32 29 27 24 23 24 26 26 28 29 29 31 32 32 30 28 27 28 27 26 27 25 20 11 11 17 22 17 19 19 21 22 22 26
36 36 36 33 34 35 34 30 27 27 26 23 22 22 24 24 24 27 28 29 29 30 30 27 26 25 24 22 23 23 16 15 11 12 15 20 15 18 15 13 13 17 17
35 36 33 33 33 34 32 27 25 24 24 23 20 22 23 23 24 26 27 29 29 30 29 24 22 21 21 20 20 17 16 16 17 16 12 18 15 17 14 11 9 10 11

GFSMA_700_spd_057.txt.gz
Wind_Speed
13 16 18 16 15 19 22 21 21 25 28 29 31 34 34 35 36 35 35 35 34 35 36 36 35 32 31 31 32 32 32 31 30 32 32 31 30 29 26 22 24 22 22
19 19 19 21 21 20 21 21 22 27 30 32 33 33 36 39 39 38 38 37 38 38 38 39 40 38 37 36 34 36 35 35 34 32 34 33 32 32 31 28 27 26 26
23 23 24 22 21 20 21 23 25 30 32 33 35 37 39 38 37 36 36 38 40 41 43 44 43 43 42 39 38 37 38 39 38 36 38 35 34 33 33 33 31 31 30
24 23 24 27 25 25 26 25 27 30 32 36 37 37 38 37 37 37 39 40 40 43 43 45 46 47 44 42 39 39 38 40 42 42 41 40 38 37 36 36 35 33 34
31 36 28 29 28 29 30 29 31 34 37 38 39 37 37 37 38 37 38 38 38 39 40 42 46 49 51 51 49 45 43 44 44 44 45 45 43 41 40 39 38 37 36
28 32 33 27 29 32 33 34 34 37 40 41 40 41 40 40 40 40 42 41 39 40 41 44 47 49 51 52 54 56 56 54 50 44 43 45 47 47 44 43 41 40 40
24 26 26 28 29 31 33 33 39 39 37 39 40 39 39 38 38 39 40 41 40 39 40 44 49 53 55 56 58 58 56 58 56 57 54 45 46 48 51 48 45 44 42
19 24 26 27 28 28 31 36 37 37 38 38 39 40 41 37 37 37 37 39 39 39 39 41 46 51 50 52 56 54 55 49 46 42 47 42 34 34 41 48 48 48 46
21 23 24 28 30 32 34 34 36 37 37 36 37 39 42 44 43 38 37 35 38 40 41 44 48 52 52 50 49 46 41 41 46 49 44 43 41 37 36 39 43 45 47
25 26 29 33 33 34 36 37 38 39 39 39 39 39 38 41 45 48 46 40 32 33 35 36 38 38 39 38 38 42 45 45 46 45 45 43 39 39 38 39 40 42 44
29 32 35 33 34 35 36 38 39 40 40 40 40 41 42 41 39 42 48 45 41 36 36 36 36 38 40 43 42 41 42 46 47 47 47 46 41 33 32 32 34 39 42
34 39 36 39 39 38 39 39 39 40 40 40 38 39 41 41 39 39 40 41 41 40 37 34 33 34 36 35 38 41 45 49 47 44 43 42 41 41 40 37 34 35 38
35 36 35 34 35 36 37 38 38 38 40 42 41 38 38 39 35 40 41 40 41 38 37 36 33 33 34 37 42 42 41 42 43 40 43 45 48 49 49 46 43 38 37
34 36 33 33 33 36 37 38 37 38 40 41 41 39 39 38 34 38 38 41 44 44 43 40 32 34 39 39 37 37 38 41 45 48 50 50 51 51 50 46 42 41 40
32 33 33 32 35 37 38 38 39 39 40 38 38 38 37 35 36 39 39 40 41 43 41 40 39 41 39 38 37 38 39 39 41 43 45 48 47 46 44 44 41 40 40
34 32 32 34 37 38 39 39 38 38 38 37 36 34 35 34 34 36 34 35 32 39 42 40 42 39 40 40 40 40 41 39 38 39 40 43 45 44 43 41 40 38 38
35 34 35 37 38 40 38 38 37 36 36 36 36 36 34 34 34 34 34 33 35 38 43 42 40 40 41 41 41 41 40 39 39 40 38 38 39 38 37 36 35 34 35
37 35 37 38 40 40 36 36 37 35 34 35 34 34 34 33 33 33 34 32 34 37 37 41 41 41 40 40 40 40 39 40 38 35 32 32 33 34 32 33 33 32 34
33 36 35 38 42 40 39 37 35 35 35 33 32 32 31 31 31 29 29 27 28 31 34 39 41 39 40 38 39 38 37 36 33 31 31 31 30 31 31 30 29 29 28
36 33 36 40 41 38 38 37 36 35 36 33 30 30 30 31 29 29 25 26 29 32 34 36 37 37 37 35 36 35 33 30 30 28 30 29 28 28 28 28 29 28 30
31 32 39 42 39 36 36 35 36 36 36 32 31 33 33 30 29 26 25 26 29 31 33 35 35 35 35 33 32 29 29 30 27 27 29 28 29 29 26 28 27 26 23
31 36 40 40 37 35 35 34 34 34 32 25 34 36 35 29 25 24 25 27 29 32 34 36 36 36 32 30 28 29 31 30 29 21 26 21 22 25 25 25 24 23 23
33 36 38 39 36 33 35 33 33 32 29 25 32 38 30 25 23 23 24 26 27 29 32 34 34 31 29 27 28 27 24 25 25 16 16 12 14 15 18 22 23 24 26
34 36 37 36 34 34 34 33 32 31 29 29 29 27 25 24 21 22 23 24 25 27 30 31 32 30 27 25 25 25 24 25 19 11 14 18 14 16 16 18 20 20 24
35 36 34 33 34 34 33 31 31 30 28 27 24 24 25 24 21 22 22 24 25 25 28 29 30 27 26 25 25 25 23 22 18 11 13 20 14 18 16 14 14 17 18
38 37 34 33 34 32 32 30 30 28 26 25 23 23 24 23 21 22 22 23 23 25 26 27 27 24 23 22 22 23 21 19 14 9 9 20 16 18 20 12 15 18 18

GFSMA_700_spd_060.txt.gz
Wind_Speed
16 16 16 18 16 19 22 22 22 22 22 25 26 29 31 31 32 33 34 35 35 35 35 35 36 37 37 35 31 29 31 31 30 32 32 32 32 30 30 28 26 25 25
16 18 18 18 18 21 22 20 20 21 22 24 26 29 32 34 34 33 33 35 35 36 38 39 40 40 40 40 37 34 33 35 35 35 35 33 32 33 32 32 31 31 29
20 22 21 21 22 22 21 21 21 21 25 28 31 33 34 36 36 36 36 37 37 37 38 40 41 42 43 43 43 38 37 36 36 38 38 37 37 34 34 34 34 33 34
25 27 27 26 27 28 24 19 22 27 30 32 34 37 38 36 37 38 37 37 37 38 38 40 42 44 45 45 45 44 42 41 39 37 39 39 39 39 37 37 36 36 37
27 28 29 33 32 29 28 28 30 32 33 34 38 37 36 36 37 38 38 38 40 39 40 42 44 48 50 51 52 54 54 50 50 46 43 40 40 41 42 41 40 40 40
19 21 24 25 28 30 31 33 33 33 33 38 38 39 38 37 38 38 39 40 39 40 42 44 46 48 50 52 54 54 55 57 56 56 56 53 49 46 43 43 42 43 43
18 18 22 25 27 31 33 33 33 33 36 40 40 39 38 36 35 35 37 38 39 40 41 43 47 49 52 53 54 53 53 52 52 51 54 53 53 54 52 48 46 44 44
17 19 20 24 28 29 31 34 35 38 39 40 40 40 39 35 36 35 35 37 38 40 41 42 44 49 50 54 54 54 53 53 54 51 52 53 48 47 42 39 40 41 42
18 21 24 29 30 31 32 33 37 40 40 39 38 38 40 40 40 36 37 38 37 37 39 39 39 40 43 45 46 45 44 43 43 44 44 42 41 41 40 37 36 36 37
22 21 25 27 26 26 32 35 37 39 40 39 39 39 39 42 44 49 47 45 40 37 38 37 38 38 40 41 42 44 39 39 43 43 43 41 42 43 44 42 39 37 37
25 29 31 30 30 35 36 36 38 38 40 40 41 41 41 41 42 44 48 47 43 40 37 36 34 35 37 38 38 41 43 45 44 44 46 46 47 47 40 37 36 33 33
24 35 39 31 35 36 37 38 38 40 41 41 41 41 42 42 42 43 44 44 42 38 36 33 31 31 32 34 37 40 41 42 44 46 48 46 41 40 40 39 40 42 41
38 43 48 37 34 35 36 38 40 40 41 42 43 43 43 42 41 41 42 43 41 41 40 42 35 34 33 32 33 36 37 38 40 43 44 46 47 46 44 43 43 44 44
40 41 42 35 33 34 37 40 40 39 41 42 42 42 42 42 42 41 39 37 39 41 42 38 38 32 34 33 36 38 35 36 38 41 43 44 46 47 48 46 43 43 44
37 47 39 36 33 36 39 39 39 40 41 42 42 41 40 40 40 40 38 36 37 39 36 37 36 38 38 40 38 39 41 42 42 42 42 42 44 47 47 46 44 42 43
42 39 36 36 36 39 39 38 39 41 42 42 43 42 41 40 39 38 38 37 37 37 36 36 39 39 41 40 40 42 44 44 42 41 41 40 41 45 46 46 44 42 41
45 38 37 37 37 40 36 37 40 42 41 40 39 39 39 38 37 37 37 35 31 38 34 37 39 39 39 41 42 41 41 41 41 40 40 39 40 41 41 40 38 37 36
47 42 42 38 40 38 34 39 41 41 39 38 38 37 36 35 34 34 33 31 29 30 32 33 35 36 37 39 41 41 38 38 39 38 38 36 33 33 34 35 35 35 35
42 39 42 43 32 32 37 41 41 40 39 37 36 36 35 32 31 31 29 27 28 27 30 32 34 35 37 37 39 38 37 35 34 34 32 31 30 31 33 35 34 34 35
44 41 30 30 32 36 39 39 38 39 38 36 35 35 34 31 31 32 29 28 25 27 29 30 32 34 35 34 36 36 32 30 27 27 29 31 32 32 32 32 31 31 31
30 26 30 34 37 38 38 38 38 38 37 36 36 35 33 34 39 37 30 25 25 28 28 30 31 34 34 34 34 31 30 28 26 25 29 26 29 29 29 32 32 31 30
23 27 31 35 36 37 37 36 37 37 37 35 34 32 29 34 38 35 26 24 26 27 27 29 31 33 33 34 32 29 29 28 27 21 27 20 23 21 21 22 23 26 27
24 29 32 34 36 37 37 36 36 37 36 35 33 31 30 31 30 25 24 24 25 26 28 29 30 32 32 32 30 28 26 26 25 23 26 18 17 16 18 19 20 21 22
27 30 32 33 36 38 38 37 38 37 34 33 32 31 30 29 26 24 24 23 23 25 26 27 29 30 30 30 28 28 26 25 23 18 21 17 16 18 18 17 19 21 22
30 32 33 35 36 37 37 36 36 35 32 32 31 30 29 28 26 24 23 23 22 23 24 26 28 29 30 29 28 28 26 27 20 15 14 18 17 21 19 17 17 20 20
33 35 36 36 36 35 35 35 35 33 31 30 29 28 28 27 26 24 23 22 22 22 22 23 25 27 28 27 26 26 26 25 18 10 8 13 13 20 24 17 16 19 22

GFSMA_700_spd_063.txt.gz
Wind_Speed
13 15 16 17 18 16 17 20 22 22 22 23 24 25 27 30 31 32 33 33 33 34 35 35 35 35 34 34 34 31 29 28 29 31 30 29 29 28 28 28 29 30 29
13 15 16 18 18 18 16 19 23 22 24 23 25 27 30 33 35 36 35 34 34 34 35 36 36 35 35 35 36 35 33 31 30 32 32 31 31 30 31 31 31 32 33
15 18 19 21 21 20 22 25 23 23 24 26 29 31 33 36 38 37 36 34 34 34 34 34 35 37 38 39 39 38 38 35 33 33 33 33 33 31 32 34 34 35 36
18 20 22 25 24 25 25 27 25 24 29 31 31 32 35 37 39 40 40 39 37 37 38 37 39 40 43 44 46 46 45 44 43 42 38 35 36 37 36 35 36 37 38
19 21 23 22 22 23 23 23 27 30 32 33 34 34 37 40 42 43 42 41 39 39 40 40 42 44 47 48 49 50 53 55 54 54 52 51 46 41 39 39 39 39 41
18 19 21 21 21 21 24 27 30 32 34 36 37 39 43 42 42 41 40 39 37 38 40 41 43 45 48 49 51 52 52 53 55 58 59 58 58 55 53 48 45 43 42
18 18 20 22 23 25 29 31 33 34 36 37 38 41 43 43 42 40 38 37 35 37 39 42 44 45 47 49 50 52 53 54 56 57 57 59 60 55 51 52 53 50 47
16 19 19 22 26 28 31 33 33 35 36 40 41 43 44 41 40 38 38 39 39 40 40 42 44 46 47 47 48 48 48 48 46 46 46 47 44 45 45 44 43 40 42
17 21 23 24 25 28 31 30 31 36 38 40 40 40 43 43 42 39 40 40 41 40 40 42 43 44 45 46 46 46 45 44 44 44 43 43 42 43 43 41 40 38 37
18 22 23 24 26 30 33 34 36 36 39 39 39 40 40 41 43 46 45 44 43 42 40 41 41 40 41 42 43 42 43 44 42 40 40 41 42 43 43 41 39 39 34
24 24 28 24 34 38 38 35 38 38 39 39 41 42 41 42 42 44 48 48 48 45 40 41 37 34 33 36 37 40 43 44 44 43 40 39 41 40 40 39 38 34 31
28 22 25 37 33 35 43 40 38 40 40 41 44 45 44 44 45 45 47 48 48 48 39 35 30 29 33 37 37 38 39 41 43 42 43 45 43 40 39 37 37 38 39
35 27 44 34 37 43 40 40 40 41 40 42 43 43 44 44 45 45 46 47 47 48 42 35 30 33 31 30 34 33 35 37 38 41 43 43 44 44 44 44 44 44 44
24 32 37 44 43 43 39 41 41 40 40 42 43 44 44 44 44 44 45 45 46 45 39 36 34 34 31 33 32 37 38 39 38 39 41 43 45 47 48 49 49 49 46
34 31 42 39 47 41 44 43 42 42 45 42 43 45 45 45 45 44 43 42 41 41 38 36 35 35 35 32 38 39 39 39 41 42 44 45 46 48 49 49 49 48 46
34 40 45 43 43 50 44 44 45 41 39 41 44 46 46 45 43 41 40 38 36 36 36 34 34 41 39 39 38 37 39 41 43 44 45 45 44 44 45 45 46 45 44
41 45 51 46 53 47 44 39 34 35 39 43 45 46 45 44 42 40 38 35 33 32 33 32 34 38 36 35 36 38 40 42 43 42 42 42 42 41 41 42 42 41 39
47 45 47 47 47 40 31 31 35 40 42 44 45 44 42 41 39 37 34 30 30 31 32 33 33 32 32 33 36 39 40 41 42 40 39 39 38 36 36 37 36 36 34
43 48 52 43 36 26 28 33 37 40 43 45 44 44 41 39 38 37 34 32 34 34 33 31 30 30 31 32 35 37 38 37 35 35 34 33 33 32 32 33 34 36 36
44 48 45 39 29 28 32 36 39 41 43 44 44 43 41 39 37 35 31 34 37 34 28 28 28 29 30 32 34 37 35 34 29 29 30 31 34 34 33 34 34 34 34
46 44 36 28 27 31 35 38 40 42 44 45 44 43 41 38 36 33 31 36 36 28 27 28 28 29 30 31 34 35 35 31 27 28 27 26 29 28 29 30 29 29 30
43 35 30 28 31 33 36 38 41 43 44 43 42 41 39 36 34 33 33 31 27 27 27 28 27 28 29 31 33 34 34 31 27 27 25 19 28 23 23 23 22 23 24
37 30 30 31 32 34 37 40 42 43 43 43 42 39 37 35 33 32 31 28 28 27 27 28 27 28 28 31 33 32 31 30 28 24 30 21 20 20 19 20 22 23 23
31 31 31 32 33 36 38 40 42 43 42 41 40 37 35 34 32 32 31 28 27 26 27 27 27 27 28 29 31 32 31 29 27 24 27 20 15 13 17 20 22 22 22
31 31 33 35 37 38 39 40 42 41 40 39 37 35 34 32 32 31 30 29 27 25 26 26 26 27 28 28 30 31 31 29 26 21 19 18 13 14 16 18 20 22 24
33 34 37 39 42 43 43 43 43 42 39 37 36 34 32 32 31 31 29 28 26 25 25 25 25 26 26 27 28 30 30 29 26 21 15 15 11 16 15 13 13 16 21

GFSMA_700_spd_066.txt.gz
Wind_Speed
9 10 12 14 15 17 18 19 17 20 22 22 22 24 26 28 30 30 31 32 33 33 34 35 33 30 28 28 28 28 26 25 26 26 26 28 28 28 28 28 28 29 30
9 11 13 15 16 17 19 19 21 21 23 22 24 27 30 31 31 30 31 33 35 35 34 34 34 33 32 29 29 29 28 29 27 25 27 28 29 30 30 31 32 31 33
9 10 12 13 17 19 20 20 20 21 21 24 27 29 32 32 32 34 35 36 37 38 37 35 35 35 35 36 36 35 35 32 32 31 29 28 29 32 33 34 35 35 35
10 14 14 16 18 15 15 16 18 21 24 26 29 31 33 35 36 38 40 41 40 39 39 39 38 38 39 39 41 42 42 42 41 41 40 38 33 32 33 35 38 39 39
12 16 15 16 16 14 16 17 20 24 27 29 31 33 35 37 39 41 42 42 42 41 40 39 40 41 42 43 44 45 46 47 48 49 48 48 47 44 41 40 39 40 43
13 15 15 15 15 16 17 20 24 29 32 33 34 35 36 39 41 42 41 40 40 40 39 39 40 41 44 45 46 46 47 48 48 50 52 54 55 56 53 50 49 48 45
14 15 15 16 17 21 24 27 30 32 33 33 34 38 38 41 42 41 41 40 39 39 39 40 41 42 43 45 46 47 48 48 46 42 33 30 44 54 54 52 47 47 51
15 15 17 19 22 24 24 26 29 30 30 35 38 39 42 41 41 42 42 41 39 39 40 41 43 44 45 46 47 48 49 50 48 44 42 43 43 43 46 46 45 43 37
16 18 19 22 26 27 24 28 31 33 31 37 39 40 43 44 43 42 41 42 42 42 42 42 44 45 45 47 48 48 48 46 43 39 36 36 37 40 42 43 44 43 47
17 20 21 21 23 28 29 40 32 37 38 37 39 41 40 42 45 48 46 45 44 44 44 42 45 45 45 47 47 46 46 43 41 41 40 38 38 37 36 35 37 36 35
21 22 26 27 26 25 34 39 40 47 41 41 44 44 45 45 45 45 48 47 48 48 47 43 44 43 44 43 41 42 41 43 45 46 47 45 42 38 38 35 30 33 29
23 28 26 33 26 30 34 39 45 42 41 45 45 46 47 48 46 44 46 47 48 48 48 43 40 38 37 35 36 40 42 43 41 41 40 43 45 45 44 43 39 35 34
25 30 28 31 33 36 39 40 42 45 43 43 44 46 47 42 42 43 45 47 48 47 47 44 35 35 31 31 33 34 35 38 41 39 40 40 42 44 45 45 44 43 42
29 39 37 35 36 41 40 49 44 41 43 44 44 42 39 40 42 44 45 46 47 47 47 43 40 35 32 30 30 31 35 36 37 42 42 41 40 42 45 46 47 48 47
33 34 40 36 42 40 46 44 40 41 42 40 36 38 41 43 44 45 44 43 41 42 44 40 38 36 34 33 34 37 36 37 38 37 39 40 42 44 46 47 48 47 46
42 38 41 34 45 42 45 47 41 38 35 35 37 40 42 44 45 45 44 42 40 39 39 37 35 35 35 35 35 35 33 33 34 37 39 41 42 44 45 46 44 44 43
31 38 38 45 46 41 47 47 41 34 33 36 40 42 42 45 46 46 45 43 40 38 38 33 32 34 36 35 32 31 32 33 35 38 41 43 42 41 41 41 41 41 40
29 44 38 41 42 46 45 41 34 34 36 40 40 41 43 45 45 45 44 42 40 38 36 35 35 36 32 29 30 31 31 33 36 38 40 40 38 36 35 35 35 35 35
38 37 41 46 43 42 36 31 32 36 38 39 41 43 44 46 46 44 42 39 38 37 35 36 39 32 29 28 29 29 31 33 35 37 37 36 34 31 31 31 31 31 32
39 41 45 44 42 35 31 33 36 37 38 40 42 44 46 46 44 42 40 37 36 35 35 38 34 29 29 28 29 30 30 32 33 33 33 31 30 31 30 30 30 29 29
41 44 42 42 38 31 34 37 37 38 40 42 44 46 46 45 43 41 38 35 35 33 34 33 30 29 28 28 29 29 31 32 31 31 30 27 30 29 29 28 28 26 25
45 41 44 38 33 34 38 38 39 41 43 45 46 46 46 45 43 39 36 35 33 32 31 31 29 28 27 28 29 29 31 33 33 31 28 23 28 26 27 24 22 21 21
42 45 37 34 35 37 38 39 41 44 46 46 47 47 47 45 42 37 35 34 32 31 31 30 28 27 27 27 27 28 29 31 30 29 30 25 25 20 20 17 18 20 23
42 35 33 36 37 38 40 42 44 47 47 47 47 47 47 45 39 36 35 33 32 31 30 30 28 26 27 27 28 29 29 30 29 28 28 30 23 18 14 13 16 20 23
34 33 35 37 40 41 44 46 48 50 50 49 47 46 45 41 36 35 34 32 32 30 30 29 27 26 27 27 28 28 28 29 29 26 23 30 21 17 12 12 13 19 21
33 36 39 42 44 45 47 49 50 52 53 51 48 44 42 39 36 34 34 33 32 29 30 27 26 26 27 27 27 27 27 29 30 28 25 26 20 21 12 9 11 16 18

GFSMA_700_spd_069.txt.gz
Wind_Speed
10 9 10 9 11 12 13 15 16 17 19 19 18 19 21 23 25 26 28 30 31 32 34 36 35 31 27 25 24 23 24 25 22 22 24 25 23 24 25 25 27 28 28
9 8 9 12 14 13 14 16 15 17 18 17 19 21 23 25 26 28 29 31 33 34 35 36 36 35 33 30 27 26 26 27 27 26 24 25 28 28 27 28 28 28 30
7 7 10 11 10 13 16 12 14 16 16 20 22 25 27 28 29 30 31 33 36 37 36 35 36 35 35 36 34 33 33 32 31 30 29 27 27 27 31 32 32 32 31
9 10 12 13 12 13 11 12 15 16 19 23 27 29 30 30 32 34 36 37 38 37 36 36 36 38 38 37 39 40 39 39 37 37 36 37 35 33 33 33 34 36 36
9 10 12 12 11 11 13 14 16 19 22 26 28 27 28 30 34 36 38 40 39 39 39 38 39 39 40 40 40 41 42 44 43 42 44 44 44 44 40 38 39 39 39
10 11 12 12 12 13 14 17 21 24 26 27 28 28 29 33 35 38 40 40 39 38 39 39 39 40 41 42 44 44 44 44 45 45 46 47 48 51 52 48 45 44 45
12 13 14 14 15 16 19 22 24 25 28 30 33 35 35 36 38 39 40 40 39 40 40 40 41 42 42 43 44 45 45 45 46 45 44 40 29 30 48 54 54 51 52
14 15 15 16 16 19 24 27 27 25 31 28 31 35 37 39 40 41 41 41 42 42 41 41 41 43 45 46 47 47 47 48 47 47 45 45 41 41 46 45 44 43 39
16 16 16 16 17 21 23 24 27 29 36 31 37 36 38 41 42 42 42 42 45 42 40 40 41 43 45 47 49 49 49 49 48 47 45 40 36 37 37 36 37 32 46
15 16 16 16 19 24 31 29 26 30 32 32 35 38 40 39 42 45 46 44 42 40 41 42 43 45 47 49 49 49 49 47 46 46 45 42 38 36 35 34 35 36 27
16 18 19 21 30 31 30 29 33 40 33 37 38 39 39 40 40 43 43 41 42 42 44 45 45 47 48 48 47 47 46 46 45 44 45 44 43 40 37 35 36 29 42
17 20 23 29 31 32 33 34 31 44 45 37 40 40 39 39 39 37 38 38 42 42 43 46 46 46 45 43 43 42 43 43 44 44 44 43 42 42 41 41 42 40 38
22 24 26 29 36 35 35 33 42 41 42 41 40 40 38 35 34 36 38 40 43 44 47 47 45 44 42 40 38 37 38 39 40 41 41 42 42 41 43 43 44 43 43
24 27 31 31 35 36 37 33 42 37 40 38 42 36 31 33 34 37 39 42 44 45 47 49 46 44 41 38 35 35 35 35 38 38 39 39 40 41 41 41 42 43 45
23 25 26 34 44 34 43 44 40 42 42 42 36 32 33 35 36 38 40 42 44 45 45 45 43 42 39 36 34 34 34 34 34 35 33 34 35 37 39 41 43 45 45
26 25 24 34 30 38 44 41 42 42 42 37 33 33 35 38 38 40 42 44 43 43 44 41 40 38 38 36 37 36 33 31 29 30 31 32 34 37 40 42 44 44 44
34 34 26 31 42 36 40 43 42 42 38 33 34 37 37 39 40 42 44 45 44 43 42 40 39 36 36 36 38 33 29 29 29 28 30 32 35 38 39 40 40 39 38
28 28 32 35 33 37 41 42 41 37 33 34 37 38 39 41 42 44 46 46 45 43 42 39 37 35 35 36 34 30 29 28 28 29 31 34 37 39 37 35 35 34 32
29 29 36 34 39 41 40 41 36 32 34 37 38 39 40 42 44 46 47 47 44 42 39 38 36 35 35 34 31 29 28 28 28 29 32 34 38 37 34 32 32 30 29
28 35 33 38 38 40 41 36 33 34 37 38 39 40 42 44 46 47 47 46 43 41 37 36 35 34 34 32 31 29 28 28 27 28 31 34 37 35 31 31 29 27 26
39 39 41 36 41 40 36 33 34 36 38 39 40 42 45 46 47 48 47 45 42 38 36 35 34 34 32 32 30 29 28 27 26 27 30 32 32 32 31 31 28 24 22
40 37 39 41 38 34 33 33 35 38 40 42 44 45 47 48 49 48 46 44 40 37 35 35 33 33 31 31 29 28 28 27 26 28 29 30 31 28 27 25 21 19 17
34 43 42 38 34 32 33 35 38 42 44 46 48 49 49 49 48 47 45 42 38 35 34 34 33 31 31 29 29 28 27 27 26 26 28 29 30 27 24 20 17 15 15
39 40 36 33 33 33 36 39 42 45 47 49 51 52 51 50 47 44 43 40 35 34 33 33 32 31 30 29 28 27 26 26 26 25 27 29 29 26 21 18 16 17 18
38 33 32 33 35 37 39 43 46 49 52 53 53 53 50 48 43 40 40 35 33 32 32 32 31 29 28 28 27 27 25 26 25 25 25 28 26 26 19 15 15 17 22
32 32 34 36 39 42 44 47 50 54 56 57 57 55 50 42 39 37 36 32 31 29 31 31 30 28 28 27 27 26 25 26 25 25 26 28 26 26 22 12 13 16 20

GFSMA_700_spd_072.txt.gz
Wind_Speed
13 11 8 8 9 9 10 12 14 15 17 18 15 14 15 17 20 23 25 26 27 30 32 35 34 31 28 25 24 23 23 23 24 24 23 23 25 24 23 24 25 26 27
11 10 9 9 10 12 13 15 17 16 15 13 13 16 19 22 22 23 26 27 29 31 34 35 35 35 33 30 28 27 27 26 26 28 28 26 25 27 27 26 26 28 28
11 10 11 11 11 14 15 15 14 14 14 14 17 20 22 22 23 23 26 29 32 33 34 35 36 36 36 36 33 32 32 31 30 30 30 31 30 30 30 30 29 30 31
12 12 12 12 12 11 12 13 13 13 15 18 22 24 24 25 25 25 28 31 32 34 36 34 36 37 37 37 38 37 36 37 37 36 37 37 38 38 36 35 35 35 34
14 15 14 13 11 11 12 11 13 16 20 21 23 25 26 28 30 32 33 34 35 35 34 35 35 38 38 39 39 39 39 40 42 42 43 43 44 44 43 43 41 40 40
15 14 13 12 12 12 12 13 17 20 20 21 23 26 25 27 31 33 33 35 37 35 35 36 38 40 40 39 40 40 41 41 42 43 42 43 44 46 49 51 50 47 44
13 11 14 13 13 12 14 16 19 22 23 24 27 33 33 32 31 32 35 36 38 39 38 39 39 38 39 42 40 39 42 44 44 44 44 45 45 44 45 47 53 48 52
13 14 13 13 14 15 17 19 21 24 22 20 26 29 31 35 42 38 35 38 39 37 39 39 37 37 38 39 42 44 46 47 49 48 47 45 44 43 42 44 31 30 31
14 13 13 14 15 18 22 23 24 27 33 35 32 34 34 33 36 39 42 36 37 36 35 34 35 36 38 40 44 47 51 50 52 52 51 49 46 43 41 40 38 34 31
14 13 13 15 17 21 25 27 32 34 30 34 34 40 37 37 35 38 37 41 41 33 33 34 35 37 40 41 45 48 50 52 53 52 50 48 46 43 39 38 38 35 33
17 15 16 19 21 24 28 32 35 33 38 32 38 41 39 36 37 37 37 32 34 36 37 36 37 39 41 43 44 49 50 50 50 50 49 48 45 44 42 41 39 37 36
19 18 19 22 24 25 29 36 34 29 27 33 38 36 35 36 36 35 34 33 34 33 35 39 41 42 43 43 45 45 46 46 45 45 45 46 45 44 42 41 40 40 37
20 21 24 25 26 28 32 31 30 24 32 33 37 38 38 37 34 31 33 35 36 35 38 42 44 44 45 46 44 45 43 42 39 41 41 42 43 43 42 42 42 41 41
24 25 27 27 25 28 32 38 31 36 38 38 40 40 39 37 32 32 34 37 38 38 39 39 31 45 47 46 44 43 37 41 38 37 38 38 38 38 39 38 37 37 39
26 27 26 27 31 29 33 34 37 39 38 40 41 41 37 32 33 34 36 37 39 41 42 38 37 40 48 44 42 40 37 39 38 38 36 35 33 32 33 33 34 36 39
26 24 27 33 34 30 28 35 39 38 39 41 41 39 34 34 35 37 36 38 40 42 46 41 40 33 43 41 38 39 37 37 36 31 30 30 30 30 31 32 35 38 41
30 23 31 36 21 26 28 33 35 37 39 40 38 35 34 36 37 36 38 41 43 44 45 46 40 33 41 41 38 38 37 35 31 30 29 28 30 30 31 33 37 40 40
25 17 29 33 24 31 30 34 37 39 39 37 34 34 35 35 37 39 41 43 45 45 40 47 44 35 35 40 39 38 36 33 30 30 29 29 29 29 32 35 37 37 34
27 16 27 29 24 23 33 34 40 37 34 33 33 34 35 37 39 41 43 45 45 42 39 40 44 39 39 38 39 38 34 33 30 29 28 28 28 29 32 34 34 32 29
28 22 32 30 25 27 35 36 36 33 32 32 33 34 37 39 41 43 45 47 47 47 46 45 42 40 37 32 33 32 30 28 29 28 28 28 28 29 30 33 31 29 27
28 23 34 31 30 36 34 32 31 31 32 34 35 38 41 43 44 45 47 48 46 48 47 43 40 37 31 26 26 25 30 30 28 28 27 27 28 29 29 30 30 28 22
21 29 28 32 34 34 30 30 32 33 34 36 39 42 45 48 50 50 50 48 46 46 42 33 32 33 30 28 28 29 29 30 28 27 27 25 27 27 28 28 27 23 20
31 30 33 33 33 30 30 31 33 36 38 40 43 47 49 51 53 54 52 50 47 42 39 34 34 34 34 34 35 34 31 30 28 26 26 26 26 26 27 26 25 21 18
30 35 36 33 32 29 30 33 35 39 43 45 48 50 53 54 53 49 47 44 42 39 36 33 32 32 33 32 33 33 31 29 28 26 25 26 24 24 25 24 24 22 18
36 33 32 30 31 32 33 35 40 44 47 49 51 53 55 55 51 46 43 40 38 35 34 31 31 32 31 30 30 30 30 28 26 25 24 25 24 24 25 22 22 22 20
34 30 29 31 33 34 37 39 42 46 50 53 55 55 54 53 49 38 41 36 34 30 30 31 30 28 28 29 27 27 27 27 25 24 23 25 24 24 25 23 17 21 21

GFSMA_700_spd_075.txt.gz
Wind_Speed
13 15 11 9 8 8 8 10 11 13 14 14 12 9 10 12 14 17 18 18 21 23 26 29 29 27 26 26 26 25 24 23 24 24 25 25 26 27 26 25 24 25 26
14 13 12 10 9 9 11 14 14 14 13 11 9 11 14 16 15 17 24 22 24 27 29 32 33 33 30 27 27 28 28 27 27 27 27 28 28 27 28 29 29 28 27
14 15 12 10 10 11 15 14 14 13 12 12 13 13 16 16 18 19 22 30 33 31 31 32 34 34 34 34 32 31 33 33 31 30 31 30 31 31 30 31 32 33 33
16 14 13 11 10 13 13 12 12 12 13 14 14 15 17 20 21 23 25 30 30 35 39 32 34 35 35 35 36 35 34 34 35 34 35 35 36 37 38 38 37 37 38
16 15 14 12 13 13 12 11 12 13 14 16 17 16 17 25 25 27 30 31 31 31 32 39 34 36 34 34 34 33 33 34 34 37 37 38 39 42 44 46 45 44 41
15 16 15 14 14 13 13 14 14 15 16 18 20 22 21 18 25 28 30 32 34 33 32 33 36 38 38 33 32 32 33 33 35 37 39 41 41 41 42 44 47 50 50
17 18 17 14 14 14 15 16 16 17 19 20 19 18 24 32 34 34 38 38 35 35 38 37 35 33 33 36 37 32 33 35 38 40 42 43 45 47 46 45 47 48 49
19 19 16 14 13 14 16 17 18 20 22 21 25 30 29 29 39 46 45 34 36 35 35 37 36 34 31 30 33 37 38 35 39 43 47 49 49 48 48 47 44 43 36
18 18 15 15 15 16 18 19 21 22 24 28 27 29 27 29 34 34 37 44 41 37 34 32 33 33 32 31 33 38 38 39 42 43 47 50 52 52 52 49 44 43 44
19 18 16 18 17 19 20 21 24 27 28 32 31 25 28 32 34 35 32 37 38 39 39 35 32 32 33 35 36 40 39 41 44 47 48 48 50 51 52 50 45 43 42
23 22 20 20 21 21 23 25 27 28 32 34 33 26 32 33 34 36 38 36 34 34 35 37 40 36 38 39 40 45 42 44 46 46 48 49 49 50 49 48 45 43 42
18 25 25 24 25 25 25 27 32 33 34 31 26 32 33 32 34 36 39 37 36 34 34 36 38 41 41 43 43 46 45 45 48 48 47 47 48 47 46 45 43 42 40
27 26 27 28 29 28 28 32 35 32 37 36 31 34 33 36 37 38 37 35 36 36 36 36 36 41 43 44 45 48 49 45 46 45 43 44 45 44 43 42 40 39 39
29 29 30 32 31 31 30 33 32 28 37 37 36 35 35 37 40 36 34 35 38 39 38 38 36 32 35 43 48 50 49 46 47 44 42 40 41 41 39 38 36 35 34
32 32 31 31 33 28 32 38 37 35 32 35 33 35 38 40 37 35 36 37 39 42 42 39 38 34 32 37 45 50 50 46 46 41 40 39 38 36 33 31 30 30 30
35 32 30 32 31 32 41 37 30 27 30 31 35 39 39 37 36 36 38 39 40 42 46 41 41 39 37 35 38 47 48 46 43 41 37 35 32 33 32 30 29 30 32
35 30 30 33 35 37 35 29 27 29 33 34 38 38 39 36 36 36 37 39 41 41 44 48 42 40 44 43 37 47 47 45 41 41 37 35 31 31 30 30 30 31 33
31 30 36 29 20 29 25 26 25 30 34 36 36 35 36 36 37 36 38 41 44 43 42 47 49 47 39 43 41 42 48 44 42 36 35 32 31 30 29 30 30 31 33
35 43 38 16 25 26 26 24 27 33 34 33 33 34 34 34 36 37 40 43 44 44 46 45 48 43 44 46 39 44 40 39 33 33 31 29 28 29 29 29 30 30 33
29 44 43 34 26 35 32 26 31 32 34 32 33 33 34 35 37 39 42 44 46 47 47 45 46 47 49 46 36 32 34 31 32 27 37 30 27 30 29 29 29 29 30
32 22 29 21 23 29 30 30 32 31 32 33 34 34 36 39 42 43 44 46 47 48 49 50 48 48 42 33 32 30 31 36 30 39 36 26 26 28 28 29 30 30 30
33 32 27 27 30 30 34 30 30 32 34 34 35 37 39 43 46 49 52 53 53 49 48 43 43 40 38 34 36 37 38 40 40 33 31 27 27 28 27 27 28 26 28
29 28 27 30 33 33 34 31 32 34 35 35 37 40 42 44 46 49 50 51 49 47 46 44 41 37 34 34 36 40 38 34 33 31 30 31 28 29 27 26 27 26 26
31 32 31 34 34 33 32 31 33 35 37 38 41 42 44 46 48 50 51 52 43 42 43 45 42 36 33 32 30 31 33 36 36 32 30 30 26 27 26 26 24 25 25
30 33 32 34 34 29 34 34 33 36 39 40 41 42 45 48 49 50 51 51 51 45 42 43 40 34 33 32 30 31 33 34 33 30 26 23 26 27 25 24 23 23 24
34 34 33 32 31 31 35 35 35 38 40 42 43 44 47 49 50 50 50 49 48 45 34 37 35 34 30 28 27 28 29 28 29 29 24 23 25 25 26 23 24 22 23

GFSMA_700_spd_078.txt.gz
Wind_Speed
19 15 13 12 11 11 10 7 8 9 11 10 8 6 6 8 11 10 10 13 16 21 24 25 26 25 25 25 24 24 24 23 23 23 24 24 25 25 26 28 28 28 27
21 16 13 11 11 11 9 9 10 11 10 8 8 9 10 10 10 16 13 17 20 24 25 28 30 30 27 26 24 26 26 26 25 25 24 25 26 27 27 27 29 29 30
16 17 13 12 12 9 9 10 12 11 9 10 10 12 9 9 10 14 22 20 23 26 28 29 30 31 30 30 30 28 28 28 27 26 25 26 27 28 29 29 30 30 32
16 16 14 14 11 9 10 11 10 10 11 12 14 14 12 10 13 10 17 25 32 37 34 28 28 31 31 32 32 31 30 29 28 29 28 29 31 33 35 36 36 36 35
19 18 16 15 11 11 11 11 10 12 13 15 15 15 15 16 14 16 23 23 28 29 35 36 32 33 32 31 31 31 29 28 28 29 30 31 31 33 36 37 41 43 44
19 17 18 13 15 14 12 12 12 14 15 14 17 19 17 15 20 26 24 28 34 33 29 32 35 36 34 32 32 30 28 29 29 30 31 34 36 38 39 40 42 44 44
19 18 19 16 16 15 13 14 14 15 16 15 16 17 22 24 24 27 27 31 35 32 34 36 32 31 34 34 35 34 28 27 29 33 35 36 38 41 44 46 46 45 47
19 18 20 17 19 17 15 16 15 18 21 19 18 21 23 27 27 25 31 36 35 32 33 34 37 36 33 31 33 36 33 30 31 34 37 40 41 43 45 48 50 49 47
18 20 21 18 21 20 17 18 18 21 23 23 20 23 23 21 25 28 33 37 38 41 39 35 33 34 35 35 35 37 35 36 37 39 40 41 43 46 47 48 49 51 51
21 20 23 24 23 23 21 21 22 23 22 28 29 28 27 30 28 30 30 33 35 40 41 42 41 38 35 36 39 41 39 37 39 42 43 44 46 47 49 50 50 50 50
23 20 21 25 26 25 26 24 25 24 26 26 30 35 31 28 31 34 37 34 35 35 35 36 38 38 42 41 40 44 43 39 39 43 45 46 48 49 50 49 49 49 48
24 25 23 26 29 29 31 29 26 27 29 29 30 31 32 34 35 33 35 37 38 36 34 35 34 36 39 43 44 47 48 45 42 44 46 46 46 48 49 48 48 46 44
25 31 33 31 31 32 34 31 30 32 32 32 31 30 32 34 34 35 36 38 39 36 36 36 35 37 38 40 44 49 50 51 48 46 45 44 44 46 45 46 45 42 40
27 29 35 36 34 37 35 33 34 35 37 36 36 34 30 31 36 37 36 37 38 38 38 37 35 36 37 39 42 46 52 54 53 51 49 46 46 43 43 43 40 35 33
33 32 33 37 38 40 34 34 36 39 40 44 34 29 29 34 36 35 32 33 36 41 41 38 39 38 38 38 40 45 50 52 53 52 52 48 48 43 40 41 38 32 31
30 32 35 37 40 43 29 36 39 45 42 37 31 30 32 36 36 31 32 34 35 38 44 41 42 42 42 43 43 44 45 50 53 50 54 54 52 45 35 36 35 32 30
31 30 38 39 38 26 31 35 38 32 34 34 31 33 35 36 33 32 32 32 35 38 43 45 45 45 46 47 45 46 48 49 50 53 51 51 53 43 37 34 31 31 29
23 27 22 33 28 34 36 25 22 29 33 29 33 34 35 31 32 33 34 36 37 39 43 48 49 50 50 47 47 47 51 51 53 49 45 42 40 38 33 31 30 29 28
28 25 27 30 35 45 28 23 28 30 29 29 31 31 31 30 32 32 34 36 39 41 44 48 52 52 51 49 52 52 47 52 48 36 37 37 41 40 45 38 30 28 28
29 26 30 35 39 39 41 30 31 35 31 33 32 30 30 30 32 33 35 37 40 43 46 49 52 52 51 52 53 49 41 40 37 35 35 36 41 40 48 38 30 27 27
28 32 32 37 31 37 31 26 30 33 34 31 29 29 30 32 34 37 39 41 42 45 47 50 51 50 48 45 42 42 41 36 36 36 37 43 43 45 42 33 29 29 29
31 33 31 33 32 28 29 29 31 32 31 29 30 31 32 34 36 38 40 42 45 48 51 52 51 48 48 43 39 37 36 33 37 41 37 47 43 38 34 31 31 30 27
29 31 30 31 30 30 30 29 30 32 31 31 33 34 36 36 37 39 41 44 46 48 49 50 49 48 51 44 39 40 37 37 37 35 37 39 36 34 32 31 29 27 25
29 31 31 31 30 31 34 32 31 31 32 34 35 36 37 38 38 41 44 46 47 48 48 50 47 45 49 43 43 38 38 34 34 34 33 37 31 30 29 27 26 24 24
28 30 30 30 32 34 35 34 31 33 35 36 36 38 39 39 40 42 46 48 49 48 45 45 45 42 42 42 36 35 37 32 31 30 28 32 28 28 27 25 23 22 22
30 30 32 33 32 36 37 34 33 35 35 36 38 39 40 41 42 44 47 49 49 47 47 45 42 38 39 33 32 35 31 28 27 30 24 29 27 27 28 24 22 21 22

GFSMA_700_spd_081.txt.gz
Wind_Speed
25 28 20 17 13 11 5 7 9 7 7 6 4 5 6 7 7 5 5 7 10 15 18 21 22 22 21 22 22 22 22 21 22 21 21 22 22 23 23 23 24 26 27
28 25 20 14 12 10 6 10 9 8 8 6 6 6 6 9 7 6 4 8 12 16 22 24 23 23 23 23 22 23 24 24 23 22 22 22 22 23 24 24 25 25 27
29 18 14 16 14 9 9 10 9 9 7 7 7 7 9 9 9 6 4 9 13 19 24 24 24 24 25 26 26 24 24 24 25 25 24 24 25 25 26 26 28 28 28
26 25 20 15 11 9 11 9 10 8 7 6 8 8 9 9 13 13 11 16 18 20 25 26 24 26 27 27 26 25 26 26 26 26 26 26 25 26 29 31 33 35 36
27 20 18 15 12 14 11 11 9 9 8 9 11 10 11 11 12 15 18 23 21 23 28 27 27 28 27 27 26 25 26 26 26 26 26 27 29 31 33 35 35 36 38
23 19 16 16 17 16 12 11 10 11 11 11 13 14 12 13 16 18 19 20 20 25 30 31 32 32 31 30 29 23 23 25 26 27 28 30 33 35 37 38 39 40 41
21 18 18 18 18 15 14 13 14 15 13 12 14 15 18 20 21 21 19 20 23 27 32 33 31 31 31 31 32 28 25 26 28 29 32 35 36 38 40 41 42 43 43
18 20 19 17 19 18 17 17 17 18 18 15 16 15 21 23 20 21 24 24 28 31 31 32 34 35 33 32 33 32 29 28 30 33 35 37 39 41 42 44 45 46 48
18 19 14 17 21 21 19 19 21 21 21 18 18 20 24 26 28 24 22 25 31 33 34 35 34 34 34 35 35 34 34 33 33 34 36 39 41 42 44 46 47 47 48
19 18 19 18 20 25 22 23 25 24 24 23 21 23 27 27 29 23 25 30 33 33 34 37 38 38 36 36 37 37 38 38 35 36 37 40 41 43 45 47 48 49 49
17 19 20 17 19 23 26 27 29 28 26 28 28 29 30 28 25 25 25 24 27 32 34 38 38 37 37 38 41 42 42 42 40 38 39 40 41 43 46 48 49 50 49
20 21 22 25 27 25 27 31 32 31 28 30 33 32 32 33 30 30 28 27 31 33 34 35 32 32 34 37 40 41 43 44 45 46 44 42 44 45 46 47 49 49 48
22 22 23 25 29 34 33 34 35 35 34 32 34 34 37 38 37 33 28 31 33 36 36 35 30 31 33 34 37 40 42 43 46 49 51 48 47 47 48 48 46 47 46
20 21 24 27 29 33 38 41 36 38 35 34 36 37 39 41 40 29 27 32 38 38 38 33 29 30 32 33 36 39 42 44 47 49 51 50 49 50 51 50 48 48 48
20 23 27 28 30 35 39 41 42 39 31 35 37 37 43 36 35 33 33 34 37 40 39 32 33 32 32 33 35 38 41 44 47 49 50 49 50 49 55 51 52 54 46
24 26 27 28 31 33 43 44 39 29 31 39 41 40 39 36 32 31 33 32 33 37 41 35 34 34 36 39 40 43 44 46 48 49 49 48 50 51 56 48 46 39 34
26 27 26 23 28 25 27 29 30 30 32 32 26 36 34 31 33 33 32 31 32 33 37 38 37 36 40 43 45 46 47 48 45 48 50 50 52 53 54 44 39 38 36
29 28 27 26 28 22 22 23 27 31 31 31 29 30 30 32 33 32 31 32 33 31 36 41 41 40 42 45 48 48 49 50 47 49 53 55 48 40 38 37 39 41 42
26 27 26 30 24 25 25 32 31 36 37 31 31 30 31 32 31 30 31 32 33 34 37 41 43 44 45 47 49 50 50 49 48 49 51 48 42 37 38 37 40 43 46
30 28 33 29 26 29 30 35 34 35 32 29 29 31 30 30 30 31 32 33 35 37 38 40 43 45 46 47 49 49 50 46 46 45 43 41 37 34 38 41 43 44 39
31 35 36 29 29 26 37 32 36 32 28 30 31 31 30 30 30 32 35 37 39 40 41 42 46 48 49 50 51 48 46 45 45 37 38 36 30 36 38 40 38 36 32
37 35 32 31 35 34 39 28 30 30 30 31 30 30 29 30 31 34 37 39 41 41 42 45 48 51 51 52 52 48 44 45 47 39 35 36 38 37 36 37 37 37 35
33 33 34 39 40 32 37 27 29 30 30 30 30 30 30 32 34 37 39 40 41 41 43 47 49 50 52 51 52 49 42 51 43 36 34 34 34 35 34 35 35 33 31
33 36 34 38 31 41 34 29 29 30 30 29 29 31 34 35 37 40 42 43 43 42 43 45 48 50 51 50 49 47 43 42 42 35 33 33 31 31 31 31 30 28 27
30 34 33 38 39 34 31 31 29 29 29 30 32 34 36 38 40 41 43 45 45 44 44 46 47 48 47 47 44 41 34 35 35 32 28 28 27 29 29 28 26 25 23
33 34 35 34 30 31 32 31 30 31 31 33 34 35 36 39 41 43 44 46 47 46 47 46 45 45 44 41 38 37 33 30 32 29 26 27 26 30 30 26 22 21 22

GFSMA_700_spd_084.txt.gz
Wind_Speed
33 26 24 20 19 18 10 11 7 5 7 10 9 3 2 3 4 3 2 1 3 7 12 16 16 18 17 18 19 20 20 19 19 19 20 20 20 20 21 21 21 21 21
31 28 26 19 19 14 13 11 8 6 10 11 5 5 5 7 6 4 3 3 4 8 14 17 19 20 20 18 19 20 19 20 21 20 20 21 22 21 22 22 23 24 24
29 33 29 22 19 14 12 11 8 9 12 9 7 6 7 8 9 6 6 7 7 12 14 17 19 21 21 21 20 20 21 22 23 23 23 23 24 24 25 26 28 30 32
32 33 23 22 18 13 13 12 9 11 11 8 9 9 9 10 10 11 12 14 15 15 15 17 20 23 23 23 22 22 23 24 24 25 25 26 26 26 28 31 33 33 35
37 25 25 21 18 15 15 13 11 11 12 12 11 9 12 12 9 10 13 16 18 19 17 19 23 24 24 24 23 22 24 24 25 25 25 26 28 30 32 34 36 38 39
32 26 27 25 19 17 16 13 14 15 15 13 12 11 10 11 14 15 17 18 18 16 17 22 25 26 24 24 24 23 23 23 24 26 27 29 31 33 35 37 39 41 42
27 32 27 24 19 17 16 17 17 16 15 14 14 13 13 14 15 17 19 21 21 20 20 22 25 29 26 26 28 25 25 24 24 26 28 31 34 36 38 41 42 44 46
32 28 27 22 16 18 17 18 19 19 17 18 17 18 18 18 19 21 23 23 21 19 22 26 27 30 30 30 28 30 28 26 25 27 29 32 35 37 40 43 45 47 49
27 27 25 21 18 18 19 21 22 23 21 21 21 20 21 23 22 23 26 25 23 24 24 25 27 31 33 33 34 33 32 30 29 30 31 34 36 39 42 45 47 49 51
29 23 20 19 19 20 23 21 24 25 26 24 25 25 25 27 27 30 28 24 24 26 26 27 31 34 36 36 35 37 35 35 35 35 35 36 38 40 43 46 48 49 51
22 23 20 21 21 23 23 23 24 28 29 29 30 29 31 31 31 33 32 30 33 31 30 32 33 36 37 36 37 39 38 37 39 39 40 40 40 41 43 46 48 49 51
17 19 18 18 19 23 25 25 25 30 33 35 36 35 35 34 34 34 36 34 33 31 32 33 35 36 38 36 38 40 39 39 40 42 44 45 46 47 47 46 48 50 52
17 16 19 19 20 22 23 23 29 31 38 38 41 36 33 35 36 37 38 40 35 30 31 33 33 34 37 36 38 40 40 40 42 44 45 46 48 50 50 48 48 50 51
18 20 22 23 23 24 26 28 28 37 36 42 44 41 33 37 37 42 38 40 37 39 38 33 31 32 34 35 37 39 41 42 43 44 45 47 49 51 51 49 50 51 50
25 25 25 25 25 25 25 22 29 32 35 42 42 32 34 39 40 37 43 36 39 40 39 34 34 32 34 36 37 39 41 41 41 44 46 48 49 51 51 51 51 55 52
27 29 29 24 20 24 25 24 24 25 35 29 34 35 24 25 34 38 38 37 38 40 43 37 35 35 35 37 38 39 40 41 43 46 48 48 48 44 46 44 50 50 39
27 29 29 28 23 25 25 24 22 20 20 21 29 26 27 29 31 36 36 37 38 39 41 39 39 37 38 38 38 40 42 45 46 48 50 48 45 49 49 56 58 46 39
29 26 28 29 28 27 25 25 24 22 28 26 30 31 37 32 32 35 35 38 38 37 39 41 39 39 40 39 39 41 44 46 49 50 50 49 49 48 46 44 41 40 37
16 26 28 28 26 28 30 32 31 21 28 34 32 39 35 33 33 35 37 38 38 37 38 40 42 42 42 41 43 44 46 48 50 49 50 48 45 45 43 40 39 37 35
20 21 26 26 29 30 31 31 32 27 32 36 39 37 34 33 35 36 37 37 37 38 38 40 43 44 44 43 45 46 49 50 53 53 51 47 44 42 43 36 35 34 34
22 24 27 29 35 37 35 37 29 30 36 42 33 33 34 34 36 37 37 37 37 39 40 43 45 45 45 46 47 49 51 52 53 53 48 43 36 39 40 35 40 35 36
27 29 31 34 37 36 33 37 37 35 34 38 33 33 34 37 37 36 38 39 39 40 43 45 46 47 47 49 49 51 53 54 55 52 48 45 45 37 36 32 32 36 37
34 36 38 38 39 38 34 37 39 33 32 32 33 34 35 37 37 37 38 39 40 42 44 47 48 49 51 50 51 52 53 54 53 50 46 42 35 35 33 30 31 33 33
40 38 38 40 46 35 38 45 34 30 31 35 36 36 36 36 37 39 39 40 41 42 43 46 48 49 50 50 51 52 52 52 50 47 36 33 30 31 29 28 29 29 31
32 35 33 30 35 41 41 36 37 35 36 39 39 38 36 37 39 40 41 43 44 44 45 46 48 48 47 47 49 50 49 48 48 42 32 30 28 28 26 26 26 28 29
31 33 34 33 36 43 34 40 42 40 39 38 36 35 38 38 38 41 43 44 46 47 48 48 47 47 47 46 46 47 45 44 42 38 29 24 25 25 25 24 27 28 27

GFSMA_700_spd_087.txt.gz
Wind_Speed
41 33 30 25 24 19 14 16 10 9 10 6 7 7 7 5 4 3 4 6 5 4 4 8 10 14 16 18 19 19 17 16 16 16 17 17 17 18 18 18 18 18 19
38 26 27 24 22 18 16 14 10 13 12 9 8 8 8 6 6 6 7 8 8 7 8 10 10 14 18 21 21 21 20 21 20 18 18 19 19 20 20 20 20 21 22
32 25 28 22 23 18 19 15 11 13 13 10 8 10 9 7 7 7 9 12 11 10 12 14 15 18 22 24 23 22 22 23 24 23 21 21 20 20 22 24 25 27 29
27 30 29 26 25 20 19 13 12 13 12 9 11 12 11 9 8 10 12 13 14 15 16 17 18 19 22 23 23 22 21 22 25 27 25 25 24 24 24 27 29 31 33
32 32 30 26 25 22 17 14 14 14 14 12 14 13 12 10 11 11 10 11 14 16 18 21 20 19 19 20 22 22 23 23 25 27 28 28 27 28 29 31 33 35 37
38 28 32 32 28 23 17 16 17 16 14 14 15 15 14 12 12 13 12 12 15 18 19 20 20 19 18 19 22 23 25 26 25 26 28 29 30 31 33 34 36 38 40
33 33 34 29 24 20 17 20 19 16 14 15 17 17 17 17 16 14 14 15 16 20 22 24 22 21 20 21 22 25 26 26 27 26 28 30 32 33 35 37 38 40 43
35 38 31 28 22 23 23 22 18 17 18 16 17 19 21 20 20 20 19 20 21 22 20 23 24 25 26 27 29 26 28 28 25 27 30 31 33 36 38 40 42 44 46
38 38 34 26 25 24 25 22 21 20 21 21 21 23 24 23 22 24 24 25 26 26 24 26 29 31 30 33 31 32 30 28 29 28 31 33 34 37 40 42 44 46 49
32 33 31 27 25 27 28 26 23 20 21 24 25 26 28 27 28 30 28 29 31 31 30 32 33 32 35 33 35 36 36 34 35 32 34 36 38 40 42 44 45 47 50
31 29 26 28 31 32 28 25 22 22 19 22 27 29 32 33 33 33 31 31 35 35 34 34 36 35 35 37 39 39 37 37 38 35 37 39 42 44 45 46 47 48 50
26 26 26 24 27 28 27 26 22 26 26 24 29 32 37 36 36 35 36 33 37 37 36 34 36 35 38 41 42 39 40 40 40 39 40 43 45 46 48 49 51 51 52
21 20 24 26 27 25 25 26 25 25 27 28 34 36 28 39 40 42 35 38 37 38 39 39 36 37 41 41 40 40 40 41 40 40 43 44 46 47 48 50 52 53 52
21 23 26 27 27 25 27 26 26 26 30 35 33 37 36 35 41 39 37 39 39 40 41 42 37 36 38 41 40 41 42 41 42 43 45 45 46 47 49 51 52 52 50
24 27 29 31 29 29 27 26 26 25 25 25 31 36 35 32 35 30 31 32 33 41 42 40 38 35 36 39 39 41 42 42 44 44 45 46 47 49 50 52 52 51 48
27 29 31 33 33 33 29 26 29 29 27 28 28 33 31 22 29 26 29 31 33 36 44 41 39 39 38 38 39 40 42 43 43 44 45 47 47 50 52 52 50 45 48
30 31 33 36 38 40 33 21 26 28 29 28 26 34 31 26 29 35 34 34 35 39 43 43 44 41 39 39 38 40 41 42 44 46 47 49 50 51 52 51 50 46 44
35 39 39 38 39 33 30 32 28 30 31 30 28 27 32 32 33 37 40 37 38 40 43 45 43 41 41 40 40 42 42 43 45 47 48 50 52 53 55 52 50 45 40
36 44 45 43 32 26 29 29 31 32 34 31 34 27 38 40 35 36 45 41 40 41 42 44 43 42 42 41 42 43 44 46 47 48 49 51 52 53 54 52 49 45 41
28 18 12 17 25 29 32 31 32 35 36 36 39 36 32 35 45 40 44 43 42 42 43 43 44 44 44 43 44 46 49 48 50 49 50 51 53 53 53 51 46 37 38
27 21 20 24 24 28 32 32 36 36 33 39 38 37 38 37 43 45 42 42 44 44 43 43 44 45 45 45 46 49 51 51 51 50 50 51 53 53 51 46 43 42 35
27 27 28 28 29 31 35 39 37 39 35 47 37 44 46 43 44 43 43 44 45 44 43 44 45 46 46 47 49 51 52 52 55 52 51 51 50 51 46 40 34 33 32
32 34 34 36 37 39 33 40 46 43 37 38 37 43 43 43 43 43 45 47 44 43 44 46 46 47 48 49 51 52 52 53 53 52 53 53 49 49 43 35 31 30 32
39 40 39 37 37 34 42 40 45 41 37 37 39 42 40 41 43 45 46 45 43 42 45 47 48 49 50 50 51 52 53 53 53 52 52 53 49 46 36 33 30 29 30
35 36 37 31 35 42 36 48 39 40 40 43 42 42 41 43 45 46 44 43 44 44 46 48 48 48 48 50 50 51 51 52 52 50 50 50 44 41 33 32 28 27 28
33 32 28 31 32 38 34 44 41 42 44 43 42 44 48 47 43 43 44 47 48 48 48 47 47 47 48 48 48 48 48 50 50 50 46 45 40 34 28 25 23 25 27

GFSMA_700_spd_090.txt.gz
Wind_Speed
40 36 33 30 21 16 12 12 11 7 6 8 10 7 4 5 7 6 6 7 7 6 4 4 5 8 13 19 20 19 16 16 15 15 16 16 17 17 16 15 15 15 16
39 39 33 27 20 15 12 12 14 10 9 9 9 9 6 7 8 8 7 7 8 8 8 9 10 11 14 17 17 16 16 16 16 16 18 18 18 19 19 18 19 19 19
39 37 36 30 29 20 18 19 15 11 10 10 11 10 9 9 10 8 8 8 9 11 13 14 14 15 16 17 15 15 15 16 18 21 21 21 21 20 21 22 22 23 24
36 38 29 27 25 21 18 22 17 16 11 12 13 12 9 9 10 8 9 11 13 14 16 16 17 18 19 19 18 17 18 18 21 23 25 26 26 25 25 25 26 27 29
38 30 25 25 29 22 22 22 19 16 13 13 13 13 11 11 11 9 9 10 13 14 16 17 18 18 19 20 19 19 20 21 24 25 26 26 27 27 27 27 29 30 32
37 33 30 30 30 29 24 22 21 17 14 13 13 13 13 13 13 11 12 13 14 13 14 17 20 21 23 21 21 21 23 25 25 27 28 29 29 26 27 29 30 33 34
48 40 36 34 32 31 24 23 22 17 15 15 15 14 15 16 16 16 16 16 16 17 17 19 21 20 22 23 23 26 29 28 28 29 29 30 32 31 30 31 32 34 37
39 41 42 35 30 30 26 25 19 18 19 19 17 16 19 18 17 18 20 21 21 20 19 20 21 22 24 26 29 29 30 30 31 32 33 31 31 33 32 32 34 36 38
34 45 32 31 32 30 26 23 20 21 23 23 21 22 23 20 19 21 24 26 26 25 24 25 25 28 29 32 31 32 32 31 32 34 33 33 33 32 33 33 36 38 41
29 34 34 34 34 30 27 24 24 24 25 25 25 24 25 23 25 27 28 29 31 31 30 31 32 31 32 32 33 33 34 35 37 32 32 33 34 36 35 37 39 42 44
33 38 38 38 34 33 27 28 29 28 28 28 25 22 25 27 28 32 38 32 34 36 36 36 35 32 32 33 35 36 37 39 37 35 34 35 35 36 39 40 42 44 45
29 29 34 36 32 31 32 32 34 34 31 30 30 32 31 32 37 29 37 35 42 40 40 38 36 33 36 41 39 38 40 40 39 37 36 37 38 39 40 42 45 47 48
22 24 27 30 30 33 33 32 31 32 35 33 33 33 34 30 32 37 35 34 38 40 39 38 33 33 38 43 41 42 41 40 39 39 38 40 41 42 43 45 46 47 49
18 21 24 27 31 33 33 31 33 37 37 34 33 31 36 35 40 29 36 30 35 35 34 36 35 34 37 42 43 42 42 41 39 39 40 41 43 44 44 46 47 49 49
21 23 26 28 31 31 33 37 39 39 38 35 34 34 32 33 31 34 35 27 31 36 33 32 32 33 36 43 42 42 42 40 40 41 42 43 45 45 46 47 48 49 50
24 26 28 31 34 38 40 42 44 42 41 39 38 36 38 36 33 37 33 30 34 37 37 35 33 34 36 39 41 42 41 40 40 41 44 45 46 46 46 47 49 50 51
24 27 31 35 39 41 44 46 49 49 50 36 37 38 35 36 38 33 37 32 37 37 39 38 39 39 39 39 39 40 39 41 42 43 45 45 46 47 48 48 49 51 51
30 31 34 37 41 43 49 50 50 36 43 26 31 36 36 35 36 37 42 32 47 39 40 47 43 41 40 40 41 40 39 41 42 44 45 45 46 47 49 50 50 52 53
31 33 34 29 41 51 36 50 53 40 29 34 34 36 37 36 38 36 42 40 39 47 49 48 47 43 43 42 43 43 43 43 44 45 45 45 46 48 49 49 51 51 52
29 28 29 35 23 22 25 25 26 28 34 34 38 40 39 38 43 36 34 46 42 48 47 49 46 46 46 45 45 45 46 45 47 46 46 47 47 48 48 50 50 51 51
28 27 26 25 27 27 27 29 33 35 36 39 40 42 39 48 45 51 46 50 48 46 48 46 48 50 48 46 46 47 48 47 49 49 47 48 47 47 47 48 48 49 48
25 27 27 26 27 29 30 33 37 40 40 40 41 45 46 47 52 48 52 46 43 48 47 49 50 50 48 47 44 46 48 51 53 51 52 50 46 46 46 47 47 47 45
28 29 31 33 34 34 35 39 40 40 46 48 39 46 51 53 46 40 49 49 53 50 50 51 51 49 49 47 51 48 49 52 55 53 50 49 45 46 46 47 46 45 43
31 33 33 36 38 39 40 37 36 42 49 36 44 54 49 44 41 44 51 52 50 51 52 53 53 47 47 50 50 54 51 54 53 48 46 48 45 45 47 46 43 43 40
33 33 33 34 35 34 36 38 35 40 43 38 50 37 44 48 47 49 50 52 54 52 54 53 46 48 53 51 50 50 52 52 49 46 45 47 45 46 46 44 42 39 35
30 32 33 35 35 33 33 34 35 43 42 39 48 47 48 51 52 50 54 55 56 53 49 51 54 54 55 54 51 52 51 48 46 46 44 45 44 44 44 41 37 34 26

GFSMA_700_spd_093.txt.gz
Wind_Speed
37 36 35 30 27 25 19 15 13 8 9 6 7 5 8 7 7 5 7 9 10 9 6 5 5 6 9 11 12 10 8 7 8 9 11 13 14 13 13 13 13 13 14
38 36 35 30 28 22 17 17 13 10 11 11 8 8 9 9 8 6 8 10 10 10 10 9 9 11 12 13 12 10 10 8 9 12 15 16 16 16 15 15 15 16 17
39 37 34 32 27 23 19 17 12 9 15 12 10 9 11 11 7 8 9 10 10 10 12 12 14 15 16 16 16 14 13 14 15 17 19 19 19 19 19 19 19 19 20
38 37 36 29 27 25 16 13 13 15 18 13 11 10 11 11 9 9 9 10 11 12 12 14 15 16 17 17 16 17 17 18 19 22 24 21 21 21 22 23 24 24 23
39 37 31 32 28 25 21 22 18 19 17 13 14 12 12 12 11 9 11 11 11 11 13 15 16 17 18 19 19 19 20 20 21 25 24 25 25 26 25 25 25 26 25
36 34 34 30 26 21 21 22 21 21 17 17 15 12 13 13 12 11 13 13 13 13 14 15 17 18 19 20 20 21 23 24 26 28 27 27 27 30 29 28 27 27 28
45 39 35 33 28 25 30 25 23 22 20 18 16 14 14 14 14 15 16 16 16 17 17 18 19 18 19 20 21 23 25 27 28 28 27 27 31 34 31 30 30 30 31
47 50 44 36 33 31 31 31 24 23 21 21 18 17 19 17 15 17 18 19 21 23 23 23 22 23 22 22 24 27 30 31 30 29 30 31 34 32 32 32 31 31 32
35 41 37 40 39 33 33 25 26 26 23 23 20 22 23 22 20 20 21 22 25 26 27 28 28 29 29 27 30 31 31 30 30 30 33 39 35 33 32 31 32 32 34
40 36 48 52 45 35 30 25 27 27 26 25 26 26 25 24 25 26 24 24 26 29 33 33 35 35 34 33 34 33 30 29 31 31 35 36 36 36 38 35 35 35 37
45 33 32 41 40 34 28 29 29 30 29 28 27 28 29 28 27 28 29 30 28 27 32 34 42 41 42 38 36 32 33 34 36 37 36 36 35 34 35 37 37 38 40
24 28 32 36 30 33 31 29 30 31 32 32 31 32 35 37 35 33 36 28 33 36 36 35 38 41 43 37 35 33 36 36 38 39 38 35 34 33 34 34 36 39 41
29 31 33 32 32 35 32 34 36 32 38 38 39 40 43 38 35 35 35 41 42 39 37 34 35 34 37 39 36 39 37 38 39 40 38 36 36 36 36 37 37 38 40
20 23 21 25 32 38 38 38 37 37 40 42 43 44 45 35 35 37 38 35 38 43 39 31 34 34 30 35 39 38 39 40 42 41 40 39 39 39 39 39 40 40 41
20 19 21 24 30 35 36 37 39 40 45 45 44 48 48 38 40 41 42 41 40 44 42 35 35 32 32 35 35 37 38 38 41 43 42 42 42 41 40 41 42 42 43
19 21 23 25 27 30 33 38 41 45 49 48 49 49 49 45 44 43 40 44 44 40 44 37 33 36 37 37 37 39 38 40 43 45 44 44 43 42 42 43 43 43 45
21 24 26 28 31 35 38 43 47 51 53 55 54 57 57 49 51 45 48 43 40 45 42 38 37 38 45 42 41 40 42 44 45 45 45 45 44 43 43 45 45 45 46
25 26 29 33 35 39 42 48 52 51 53 54 49 49 44 52 43 46 48 43 43 44 46 45 37 43 42 42 47 44 43 44 46 47 46 45 45 43 46 46 45 46 48
29 30 31 33 35 36 42 43 40 43 45 48 44 58 63 49 34 43 39 44 46 47 48 44 46 44 43 49 48 45 44 44 47 48 45 45 45 45 46 45 46 46 47
31 32 34 37 40 38 43 36 36 35 33 30 33 32 35 41 40 55 44 50 50 49 46 46 45 52 51 50 47 46 49 49 47 47 45 47 45 45 44 45 48 46 46
28 32 33 34 35 36 34 34 35 33 36 36 36 38 42 44 47 45 51 53 51 54 50 54 51 54 48 48 49 51 53 51 50 50 49 48 47 47 44 48 49 45 44
30 31 32 31 32 33 32 32 34 37 40 41 42 44 42 48 46 45 52 58 55 54 55 52 54 50 53 56 49 51 55 54 55 56 51 51 51 50 49 46 43 42 44
28 29 30 32 32 34 34 35 37 41 43 45 45 46 45 51 49 47 58 47 62 49 45 53 51 51 50 50 53 53 55 53 53 55 55 60 56 52 45 42 40 41 43
30 31 31 32 32 33 32 37 39 40 42 45 44 45 46 47 42 40 47 54 49 47 50 52 51 50 52 55 57 56 55 56 58 58 56 57 51 46 42 40 39 41 41
31 31 31 30 33 35 34 35 37 37 39 38 44 45 45 42 32 36 44 51 53 57 59 58 55 53 56 59 59 61 56 56 57 57 52 51 45 42 40 40 40 38 39
31 32 33 34 34 33 35 36 36 34 35 37 39 44 40 43 51 51 51 54 56 55 52 51 54 57 58 59 56 53 52 54 53 51 50 45 41 40 41 40 39 37 38

GFSMA_700_spd_096.txt.gz
Wind_Speed
40 32 30 31 31 28 23 19 17 13 12 9 5 4 3 4 5 8 9 10 11 11 10 8 8 9 9 10 9 6 5 4 4 6 10 14 15 14 14 13 13 13 14
38 38 31 32 31 27 24 20 16 14 11 8 4 8 6 5 7 9 9 10 11 12 11 11 12 12 12 12 12 11 9 9 10 10 12 14 15 14 14 15 15 16 16
40 43 34 33 32 28 25 21 17 14 12 7 9 11 10 7 9 10 9 10 10 12 12 13 15 14 15 15 15 15 15 15 15 15 14 16 16 16 16 18 19 19 19
43 43 38 35 34 29 25 19 18 17 13 11 13 13 10 9 9 10 11 9 10 12 14 15 16 15 15 16 16 16 17 18 19 18 18 19 19 19 18 20 22 24 24
42 36 38 36 33 32 26 23 20 15 15 15 18 15 12 11 11 12 12 10 12 13 13 15 15 15 15 17 18 19 19 19 20 21 23 24 24 23 22 23 26 26 26
38 37 39 35 34 32 28 28 22 18 19 23 18 16 13 14 13 14 13 13 13 14 15 14 16 16 17 18 19 20 20 21 23 25 27 29 27 26 25 27 28 27 27
35 42 36 37 36 32 27 25 20 18 23 20 20 17 17 16 15 16 16 16 16 17 17 18 19 20 20 21 23 23 24 26 28 28 29 29 28 26 29 29 29 29 28
41 38 38 35 36 32 27 26 25 23 22 21 21 21 21 20 16 16 18 19 19 21 21 22 23 24 27 29 29 29 29 29 31 30 27 27 25 27 28 29 30 30 30
44 40 39 38 38 33 30 29 29 30 23 24 24 24 25 22 21 20 21 23 23 24 26 26 27 29 31 34 36 35 34 33 34 31 29 30 30 30 32 31 31 31 33
44 51 44 43 40 33 37 36 34 31 26 26 29 28 26 26 25 29 25 26 28 27 28 29 32 32 33 36 39 42 41 37 34 31 34 33 36 38 38 36 34 34 35
35 42 47 51 45 42 45 43 35 31 27 28 31 30 29 29 29 31 32 33 32 31 32 35 37 36 36 39 40 39 45 42 36 36 37 35 36 36 39 40 41 40 39
28 40 33 42 40 42 43 44 35 32 30 29 33 34 34 33 33 34 38 41 39 41 33 39 40 38 44 41 41 40 38 41 37 38 40 39 36 37 37 37 38 39 40
25 24 24 27 27 30 33 36 38 34 33 35 34 35 40 41 40 42 46 48 47 40 40 40 41 43 43 43 41 39 39 40 44 42 40 40 38 37 37 38 39 40 39
27 25 21 26 31 31 26 31 35 37 38 38 37 38 39 42 45 49 48 47 48 50 44 42 43 42 44 44 41 41 41 38 40 41 40 40 38 39 40 41 42 41 40
25 28 26 27 28 28 33 38 40 40 40 40 44 45 46 47 50 53 51 50 51 51 54 48 51 43 41 42 39 40 39 40 40 39 40 39 40 40 43 44 45 44 42
18 21 22 23 24 26 31 35 37 37 41 44 47 49 52 53 55 59 56 56 57 60 56 57 51 48 45 47 41 40 41 41 41 45 41 41 42 44 45 46 46 45 44
15 17 18 20 22 24 26 31 34 38 43 47 49 53 57 59 64 64 61 62 63 65 56 52 59 48 48 47 48 44 44 43 44 44 45 44 45 46 47 48 47 47 47
16 18 20 23 25 28 30 34 37 39 44 49 53 52 45 54 56 62 61 55 47 53 67 62 58 47 59 51 51 52 51 48 47 51 53 48 47 49 50 50 49 50 49
21 23 25 27 29 31 34 37 40 42 46 50 51 48 46 46 43 39 40 46 52 54 50 53 56 52 55 60 58 57 55 49 55 56 53 47 50 53 55 53 50 52 53
26 28 30 31 33 36 39 42 45 46 48 51 47 45 49 47 43 39 41 45 47 50 56 56 62 58 59 63 61 56 61 57 55 52 52 54 52 53 51 49 51 57 51
28 32 33 37 39 42 43 43 45 45 48 46 49 48 45 44 45 44 46 49 52 56 51 53 52 55 60 58 61 61 58 56 52 53 55 53 53 49 52 56 54 52 49
31 31 32 33 35 37 38 39 39 41 43 44 44 46 48 47 49 49 49 52 54 55 59 59 50 54 56 60 58 56 53 53 56 56 56 56 53 52 49 53 50 49 52
29 30 31 33 36 37 36 38 41 42 44 46 46 48 49 51 52 51 55 50 56 56 51 51 48 53 58 56 56 55 58 61 59 56 58 58 55 52 49 50 49 47 45
34 34 34 35 37 38 40 41 43 41 40 43 45 47 49 50 53 54 50 52 50 49 45 45 48 50 52 56 61 61 57 56 57 57 55 56 51 52 51 50 48 44 40
32 34 35 36 38 40 41 38 39 42 44 44 45 46 46 45 47 46 44 47 46 46 48 47 49 53 54 52 50 52 54 57 59 57 53 54 52 52 49 47 44 40 37
32 33 35 39 40 39 39 41 44 44 43 45 45 43 43 43 44 45 44 44 47 48 50 50 50 50 50 52 54 57 59 59 56 56 52 52 51 48 46 42 40 39 39

GFSMA_700_spd_099.txt.gz
Wind_Speed
29 29 28 26 27 26 24 21 19 16 13 11 8 3 1 3 8 7 7 9 10 11 10 9 8 9 9 9 9 7 5 3 2 4 6 9 11 12 12 11 11 12 13
33 31 30 30 30 28 26 23 20 17 13 11 7 4 3 5 8 9 6 9 10 12 13 13 12 13 13 12 12 11 11 10 10 11 13 14 15 14 14 14 15 16 16
34 34 29 32 28 31 29 26 23 18 14 12 9 7 4 7 8 10 9 10 11 13 15 15 15 15 14 14 14 13 13 13 14 16 18 18 17 17 16 17 18 17 18
35 37 37 37 33 30 31 29 22 17 15 12 9 8 8 9 10 10 13 12 13 14 15 15 15 15 15 15 15 16 16 17 18 20 20 20 20 21 21 21 21 21 22
36 37 42 37 33 34 31 27 23 17 15 12 11 11 13 13 11 13 14 14 14 16 16 15 14 13 14 14 16 17 17 18 20 21 22 23 24 24 24 23 22 23 24
38 44 48 43 37 37 34 29 24 20 18 15 15 16 18 15 15 14 15 16 17 16 15 13 14 14 16 17 18 20 21 21 22 24 25 26 27 28 27 24 22 23 25
50 41 47 33 39 36 32 27 24 23 22 18 17 18 18 19 15 15 16 17 17 17 17 18 18 20 20 21 23 24 26 27 28 29 30 30 29 28 25 23 24 26 28
45 47 40 36 38 37 34 29 27 24 24 21 18 20 22 20 19 17 16 17 18 19 20 22 24 24 27 27 27 29 31 33 33 35 35 33 31 28 26 25 26 29 29
44 48 35 37 35 38 33 30 27 24 25 23 23 22 23 25 23 22 20 20 21 23 25 26 26 27 30 35 36 31 34 34 36 39 39 36 34 33 31 31 32 32 31
41 40 35 40 42 40 35 32 30 30 29 28 29 25 25 27 23 27 29 24 26 27 28 29 31 31 34 37 38 43 39 38 40 43 42 41 40 38 34 33 35 34 33
36 33 39 46 52 37 41 38 37 37 39 35 31 29 27 28 27 29 30 34 35 32 35 38 38 40 39 37 38 43 47 48 41 42 44 40 40 41 40 39 38 37 36
32 30 29 42 44 38 42 42 45 46 44 34 33 36 30 29 29 32 34 34 36 38 39 43 45 48 47 44 41 45 49 47 47 42 44 43 41 43 42 40 40 40 39
27 32 31 39 38 46 48 50 44 40 37 38 35 35 32 33 32 34 37 43 47 45 46 49 47 47 48 48 44 43 46 49 45 46 47 45 45 46 44 40 40 40 40
27 31 26 30 33 28 36 38 32 31 38 37 37 41 37 39 38 38 40 42 49 51 55 57 54 53 55 49 48 43 48 49 48 45 47 45 43 44 44 43 42 41 42
19 20 25 23 22 21 26 28 29 29 32 37 38 41 41 41 42 44 46 47 52 60 65 63 63 56 53 58 52 58 45 54 47 46 46 46 46 47 46 45 45 43 44
22 23 24 25 24 22 22 26 28 29 32 35 38 41 42 42 44 46 50 56 60 62 71 70 70 66 60 59 58 57 55 46 49 48 49 53 49 48 50 48 46 45 45
13 14 15 17 19 20 21 25 29 30 32 35 38 40 42 45 49 54 55 49 50 53 58 54 55 59 61 54 54 63 57 49 53 52 53 55 55 50 50 49 50 48 48
12 13 14 16 19 20 22 23 25 27 30 33 35 40 45 47 51 55 50 52 56 47 50 51 44 45 49 50 52 56 64 50 57 65 59 57 62 57 54 56 57 54 52
15 16 16 18 20 21 24 27 29 31 33 36 39 44 46 48 51 53 52 53 55 51 48 51 47 48 52 52 54 58 61 67 63 71 64 65 66 66 63 63 58 55 58
17 17 18 22 24 26 29 32 34 36 39 41 43 45 50 54 54 48 54 60 57 48 50 52 52 55 56 55 60 59 62 62 66 66 70 69 69 66 63 57 57 56 52
24 26 25 25 26 31 35 38 39 41 41 41 42 46 48 41 51 52 52 54 54 55 54 52 59 54 64 54 57 53 53 54 58 61 63 66 64 64 61 60 61 56 57
24 25 27 30 32 35 33 34 35 39 41 41 42 44 46 47 48 50 51 53 53 52 54 53 58 62 61 52 56 53 50 51 54 58 61 62 63 64 61 58 56 57 55
29 31 32 33 34 34 32 33 34 36 39 41 44 44 44 53 49 53 55 54 55 55 58 60 56 55 57 53 50 50 50 52 54 56 57 59 58 60 58 57 58 59 57
32 33 33 33 35 36 33 34 37 38 40 42 42 48 48 54 54 56 54 55 54 54 53 53 52 53 53 50 49 47 47 48 50 52 52 57 57 60 60 62 62 59 53
32 32 34 35 37 38 37 39 40 42 46 46 46 48 54 56 54 55 53 51 51 52 52 51 50 50 48 46 47 50 52 55 57 57 58 61 63 64 63 62 58 53 50
32 33 33 35 37 38 39 40 41 45 45 47 50 53 53 51 51 51 50 50 51 50 49 50 51 53 55 57 57 57 58 59 60 62 59 59 59 56 56 55 50 46 42

GFSMA_700_spd_102.txt.gz
Wind_Speed
28 23 27 25 25 26 24 23 22 18 14 13 10 7 4 3 3 0 3 6 8 9 8 9 8 8 7 8 7 7 4 3 2 4 7 10 12 11 10 10 10 10 12
30 26 27 28 27 27 26 24 22 18 16 14 12 7 5 3 1 2 6 7 9 10 11 11 12 11 11 10 9 9 9 8 10 12 15 16 16 15 14 13 14 15 16
33 30 28 30 30 29 27 27 24 20 18 16 13 10 5 4 5 4 6 9 9 12 12 13 15 15 14 12 11 11 12 11 13 15 17 18 18 18 17 18 18 19 19
36 34 29 33 30 31 30 29 26 21 19 17 14 8 6 6 5 8 8 9 12 11 11 13 16 15 13 12 12 12 13 13 15 17 18 18 18 20 22 23 24 23 23
39 36 31 34 30 32 30 30 26 23 20 18 14 10 7 8 8 9 14 11 9 10 11 14 14 13 13 13 13 14 14 15 16 18 19 20 21 23 24 25 26 25 23
39 43 38 37 32 35 32 32 28 25 20 17 15 11 10 12 12 12 13 16 13 11 11 12 14 13 15 15 15 16 18 19 20 22 24 25 26 27 28 29 27 24 22
40 36 42 42 39 36 37 39 28 27 25 21 19 17 13 14 13 14 13 14 14 14 16 15 15 17 18 19 19 21 22 25 26 28 30 31 32 31 30 31 28 27 26
44 38 41 45 47 43 43 32 30 28 25 22 19 17 16 18 15 15 16 15 15 16 14 18 19 18 21 21 23 25 27 28 29 31 32 32 34 36 35 33 33 32 30
43 42 38 41 39 44 39 34 30 28 25 20 24 19 21 19 22 21 18 19 19 17 18 18 21 25 26 29 29 30 30 32 33 36 39 38 39 44 38 37 36 37 35
39 36 43 40 39 40 33 34 30 31 26 26 24 20 25 23 27 27 24 21 21 21 23 24 24 25 29 32 36 38 40 38 37 38 42 41 42 44 39 39 39 38 39
34 28 33 40 34 32 37 37 45 34 35 30 27 28 28 29 31 28 29 28 28 27 27 28 27 30 32 35 39 43 43 42 44 43 41 43 47 47 45 40 39 40 40
30 37 44 42 35 31 37 49 41 36 31 31 36 38 33 33 33 31 31 31 34 35 34 36 38 39 42 41 43 46 50 50 49 49 42 44 46 49 48 46 41 42 43
28 36 34 32 32 31 39 37 39 35 35 39 44 38 37 34 36 35 35 33 37 37 39 42 41 43 44 46 51 52 49 51 52 51 48 46 48 49 48 48 45 44 48
18 26 27 21 21 30 32 28 26 31 39 45 43 40 31 35 34 37 37 37 41 44 45 47 47 50 53 53 53 56 56 51 55 49 51 55 52 51 47 50 47 47 47
22 18 17 20 18 24 25 29 25 33 41 41 41 39 35 33 35 41 40 43 45 49 51 53 55 46 43 45 43 41 41 50 55 59 52 60 55 56 48 49 51 51 53
20 19 18 24 20 19 25 21 24 27 33 36 34 29 28 30 31 37 42 44 46 51 56 48 42 43 50 48 40 39 31 34 40 49 53 50 51 49 50 52 54 55 54
19 20 19 19 23 22 21 22 23 24 30 29 28 29 30 31 34 38 41 44 47 48 52 53 52 49 51 51 47 45 43 38 45 46 46 47 52 52 55 59 59 59 61
12 13 15 15 17 18 19 20 21 20 23 25 27 30 30 32 36 38 42 45 48 49 53 58 50 54 52 50 52 48 49 48 52 52 51 48 56 59 61 65 66 67 69
11 11 11 13 13 14 15 17 19 21 24 25 27 30 33 35 38 41 44 50 54 55 48 48 55 53 51 55 54 53 55 55 51 57 52 53 52 51 51 57 62 75 73
14 14 13 14 15 17 18 19 22 24 27 28 29 33 36 39 41 41 45 46 44 39 49 56 56 53 56 51 56 53 53 55 58 53 60 54 53 53 53 60 60 66 72
16 15 16 17 19 21 24 23 24 28 31 32 34 37 38 40 41 48 44 43 49 52 51 48 55 60 58 59 55 58 60 58 53 51 52 58 52 52 55 58 60 61 62
20 20 22 24 26 26 26 28 30 31 31 32 35 36 39 41 44 46 47 51 49 47 50 54 60 61 58 56 56 55 56 56 57 57 55 53 50 51 52 54 56 58 58
21 23 25 27 28 29 29 30 32 32 32 31 35 40 40 43 46 50 47 57 54 57 60 59 57 55 54 54 55 56 55 54 55 54 53 53 49 50 49 53 56 58 59
24 26 28 29 30 31 31 32 32 33 33 35 39 43 42 45 44 53 54 50 59 59 56 54 54 54 54 54 53 53 53 54 54 53 52 57 55 56 56 58 59 60 61
28 29 30 32 33 33 33 33 31 33 36 41 44 40 44 46 51 49 51 53 53 51 50 50 50 50 51 53 54 55 56 57 59 58 56 60 60 62 62 62 60 60 59
28 30 30 31 32 32 31 31 33 37 41 36 39 47 51 47 49 50 50 50 51 51 51 52 53 54 55 55 55 57 57 56 57 58 58 58 58 58 62 60 57 55 53

GFSMA_700_spd_105.txt.gz
Wind_Speed
37 34 31 29 31 31 29 28 26 22 19 16 15 12 10 7 5 3 3 5 8 8 7 8 8 8 6 5 4 3 2 1 3 5 5 7 10 12 12 10 10 11 12
32 31 35 31 31 30 30 28 26 23 19 17 16 14 10 7 4 0 2 4 6 6 7 10 10 9 8 7 6 6 6 8 7 9 10 11 12 13 14 14 13 14 15
34 29 31 30 30 31 31 30 28 25 21 20 18 14 11 7 3 2 3 3 5 6 8 11 12 11 11 9 8 9 11 9 10 10 11 11 13 14 15 16 17 18 20
34 30 26 31 30 33 33 32 30 25 23 22 18 14 10 8 6 4 2 4 5 8 9 11 12 13 12 10 10 9 11 11 11 11 11 11 13 16 17 19 21 21 22
37 34 31 28 32 33 34 33 31 28 25 22 19 17 12 9 7 6 6 4 6 7 9 11 11 12 11 11 10 11 12 12 11 12 13 14 16 20 22 23 25 25 24
35 34 35 33 32 36 34 34 32 28 24 22 21 18 14 12 9 7 8 10 5 7 9 10 10 9 10 11 11 14 16 16 15 17 18 20 22 24 25 27 26 27 26
38 39 40 36 34 37 37 35 34 30 28 26 24 22 18 14 10 11 13 13 10 7 8 9 9 10 11 13 14 16 18 19 22 24 24 27 25 24 28 30 30 33 32
31 40 42 40 39 39 38 37 36 33 29 29 27 24 20 15 12 13 11 13 14 11 9 9 8 9 12 14 16 18 20 21 25 27 29 30 31 34 34 32 33 34 32
35 40 43 43 39 40 40 35 38 32 31 30 27 25 18 17 15 14 15 15 15 15 15 14 14 14 15 15 17 20 22 26 28 31 32 37 40 39 37 36 35 36 35
35 39 40 44 42 38 42 39 33 35 30 28 30 23 24 21 19 18 18 20 20 18 17 17 21 21 22 24 25 25 29 31 31 35 36 42 37 39 41 41 39 39 40
41 44 42 42 37 40 42 38 40 42 35 35 29 26 23 24 20 22 24 24 26 24 24 24 25 26 26 30 31 34 34 34 39 41 44 44 42 43 44 43 44 42 42
35 41 44 47 33 37 40 40 40 41 40 44 40 40 28 26 26 29 30 30 30 28 29 29 29 30 32 35 36 39 41 43 44 45 47 46 44 46 47 45 48 48 47
36 35 44 34 26 33 42 36 41 45 44 39 36 33 29 31 31 36 35 33 35 33 34 34 31 34 37 39 43 44 38 33 38 41 38 40 42 42 47 53 51 51 53
21 39 31 37 33 35 24 28 39 36 41 34 27 26 31 33 35 36 32 33 34 38 39 37 37 38 40 41 33 35 39 37 41 38 37 35 39 40 43 48 55 59 54
22 24 30 29 31 20 24 24 30 27 28 28 29 28 30 30 37 36 34 34 35 40 41 37 41 36 40 40 38 42 39 42 36 37 38 34 33 38 39 43 47 50 53
18 17 22 18 15 18 19 20 22 25 21 20 25 27 32 34 36 33 30 31 34 38 45 41 40 41 41 43 42 36 42 37 39 38 44 45 46 41 42 39 44 47 53
20 21 21 19 18 14 15 17 17 19 22 24 25 28 28 29 30 29 30 34 37 39 45 46 45 44 47 40 43 40 44 47 46 45 41 45 49 50 45 49 47 47 55
18 19 18 18 21 22 20 19 17 18 21 21 20 26 28 29 29 30 32 34 37 38 44 47 45 49 52 41 48 57 51 47 51 51 52 50 50 48 54 51 46 51 56
11 11 12 14 15 16 16 16 17 18 18 19 23 28 31 31 31 33 34 35 38 39 43 41 50 37 55 47 51 49 58 54 57 55 55 55 53 52 50 50 50 44 51
11 12 13 12 13 13 13 15 18 20 20 25 28 29 31 32 33 33 33 38 39 41 45 48 41 43 57 53 56 56 62 59 57 57 57 56 54 53 52 54 55 56 52
13 14 14 15 16 17 20 20 21 22 24 25 25 27 29 31 32 35 40 40 40 43 42 46 54 52 60 55 61 63 62 58 55 57 56 56 56 57 56 56 56 55 53
17 19 20 20 20 21 20 22 23 25 26 26 28 34 37 38 39 38 44 54 43 44 49 48 53 60 55 63 62 58 58 57 56 54 53 50 49 50 51 53 53 52 52
18 20 22 23 24 24 23 24 24 27 31 34 34 34 38 40 52 54 53 39 45 41 45 54 56 58 62 57 56 56 57 57 57 57 59 60 56 56 56 57 56 56 55
21 21 22 24 24 26 26 27 29 31 31 30 32 35 42 48 52 52 37 38 49 48 50 53 53 53 53 53 55 56 57 57 58 58 62 63 64 64 61 58 58 57 58
26 27 29 29 28 32 31 32 30 27 32 35 37 44 50 49 33 43 46 47 50 53 55 51 50 49 50 52 54 55 55 56 58 56 59 61 63 64 63 61 60 59 58
30 31 31 30 30 30 29 29 33 37 39 42 44 41 32 40 41 42 45 47 46 45 44 45 48 50 52 53 55 57 58 58 59 60 57 58 59 61 66 64 61 60 58

GFSMA_700_spd_108.txt.gz
Wind_Speed
45 41 42 37 35 33 31 28 31 28 23 21 16 15 14 13 13 10 7 7 8 10 11 12 9 9 6 5 3 2 2 2 5 6 5 4 7 8 8 8 8 8 10
48 47 43 38 35 33 32 32 32 27 24 21 17 16 14 13 9 5 6 7 8 10 12 12 12 9 7 6 6 5 5 4 6 6 7 9 10 10 10 9 10 11 13
51 43 40 39 36 35 34 34 34 30 25 22 17 16 15 12 10 6 6 7 8 9 11 11 11 10 9 9 7 7 7 7 8 7 9 10 11 11 10 10 12 14 16
49 44 39 37 36 36 36 36 34 30 27 23 20 18 16 14 10 8 6 7 8 8 10 11 10 10 9 10 9 9 8 8 7 7 9 11 11 12 13 15 16 18 20
43 39 41 36 35 36 37 37 35 31 27 25 23 20 18 16 11 9 8 6 5 6 8 8 8 9 9 9 9 9 9 8 8 8 10 13 16 17 18 20 21 22 22
39 36 36 35 34 36 38 38 36 33 28 26 24 22 22 19 16 11 8 6 6 6 7 8 8 8 8 8 9 9 10 11 11 12 14 17 20 21 23 22 22 26 26
43 38 36 33 38 35 36 37 37 35 32 31 29 27 25 22 18 13 10 11 9 9 8 8 8 9 9 10 11 12 13 13 14 15 18 22 24 24 25 28 31 31 30
37 40 38 38 37 34 41 40 39 38 36 34 32 29 28 25 18 14 13 15 12 9 8 8 8 9 10 11 12 13 14 16 16 19 22 24 24 26 27 30 30 32 31
36 39 37 41 42 39 38 42 41 40 37 37 35 33 31 27 18 16 13 13 12 11 11 11 11 12 13 15 14 16 17 20 22 27 29 30 30 32 36 33 30 33 37
42 41 37 44 46 43 43 42 43 42 40 39 36 34 31 22 23 22 16 12 14 13 14 13 16 17 17 17 18 18 21 23 26 28 30 34 36 38 40 41 37 34 39
49 48 42 36 46 47 45 43 44 45 44 38 37 38 35 32 26 25 18 16 18 17 19 20 21 21 21 20 23 24 26 28 32 34 35 33 36 39 37 42 42 41 38
53 51 46 37 48 46 48 43 50 46 36 39 37 39 35 37 31 30 22 22 25 24 24 25 25 25 23 24 27 30 32 35 34 31 30 30 35 32 34 36 41 41 41
44 55 46 47 47 47 45 40 48 40 42 39 38 36 37 31 29 21 29 25 27 28 32 28 30 28 27 29 32 34 36 36 34 34 36 36 39 37 34 36 39 43 44
43 33 47 48 47 41 43 40 42 52 49 43 45 39 38 38 29 30 30 32 31 31 28 26 27 32 33 33 36 37 35 38 40 39 39 38 36 36 37 37 36 39 40
33 34 37 55 40 40 35 24 45 43 46 38 41 40 31 23 24 25 29 29 31 37 31 24 29 28 32 35 34 36 38 43 39 34 37 42 44 41 45 44 44 43 47
9 18 32 40 46 41 42 26 39 34 33 29 24 35 30 25 23 26 30 34 37 38 39 28 28 29 32 35 36 39 42 46 39 36 46 45 46 41 45 44 47 52 50
14 16 19 36 40 32 38 24 20 19 20 19 20 21 21 24 26 28 28 32 36 37 40 34 34 33 36 39 42 42 35 40 40 46 49 48 47 53 53 52 53 55 53
16 16 16 20 28 25 19 22 20 13 16 17 20 23 23 23 27 30 33 34 34 33 37 40 39 39 35 41 46 48 38 44 53 47 58 52 54 56 56 56 56 57 58
15 17 17 22 24 25 23 23 20 20 19 19 22 24 25 28 29 32 32 33 34 35 38 40 44 42 45 50 46 46 47 52 53 57 58 60 60 56 56 57 58 59 59
13 15 16 17 20 21 20 20 22 22 21 26 27 26 27 28 29 31 34 37 38 39 41 44 48 48 53 49 50 54 51 54 57 55 61 61 55 55 56 57 58 57 55
15 16 16 18 18 19 20 20 21 23 25 24 24 28 28 28 32 36 36 36 39 40 48 47 50 49 50 52 56 54 62 58 57 62 60 58 58 59 59 57 57 57 57
19 19 19 19 19 19 19 19 20 23 25 27 28 30 32 32 32 40 49 44 43 44 51 55 47 48 47 57 58 58 58 60 61 61 61 58 57 58 59 59 60 61 62
20 20 19 19 19 20 21 23 25 26 27 27 32 32 32 39 41 45 44 54 56 52 53 43 50 48 54 55 55 56 57 57 59 62 63 64 63 63 62 61 61 65 64
21 21 21 23 24 24 23 24 26 29 29 28 32 35 44 46 45 48 52 56 37 37 48 47 46 48 50 51 52 54 55 57 59 60 66 68 68 69 68 64 61 63 64
23 24 25 26 26 27 28 28 26 26 33 37 41 42 43 56 52 46 44 35 41 42 44 44 44 45 47 50 52 54 55 58 60 58 61 62 65 68 66 65 63 59 57
28 29 30 29 27 27 28 31 33 30 32 32 39 46 52 45 41 34 40 37 35 39 41 42 45 47 49 50 53 55 57 59 59 60 57 61 60 61 65 62 58 56 55

GFSMA_700_spd_114.txt.gz
Wind_Speed
33 38 34 33 32 26 38 34 31 29 27 25 21 18 15 14 16 15 13 11 10 10 10 8 7 7 6 4 2 1 3 4 7 9 10 7 3 3 3 2 2 2 4
30 39 39 39 31 31 38 35 33 32 29 26 23 19 13 16 15 14 13 11 12 11 11 10 8 8 7 5 3 3 3 4 6 9 9 7 6 5 4 3 4 4 7
36 36 40 39 38 31 39 38 36 34 31 28 24 19 17 16 15 15 13 12 12 12 12 10 10 10 10 6 7 6 6 7 9 9 8 7 6 5 5 5 6 9 10
29 32 37 43 39 37 45 41 39 35 31 26 23 20 18 18 17 15 14 14 13 13 12 11 10 13 11 10 9 9 8 8 7 7 8 7 6 5 6 8 10 12 12
39 34 40 36 46 45 46 44 40 37 32 30 25 20 20 21 18 15 15 14 12 13 11 10 12 13 12 12 11 10 9 9 8 7 7 5 5 7 10 12 14 15 15
35 35 44 38 45 47 48 44 41 36 33 30 27 24 24 23 20 19 17 13 12 12 9 10 11 13 13 13 12 11 11 11 9 8 7 7 8 11 14 16 17 18 19
41 51 43 48 37 48 45 43 38 36 36 33 29 28 28 25 24 21 17 15 13 12 8 7 10 12 13 13 12 12 12 11 10 9 9 10 13 15 18 20 24 23 24
32 36 45 43 44 48 48 45 42 42 39 34 32 30 28 28 27 23 19 15 12 10 6 9 14 15 14 13 12 11 11 12 11 10 11 14 17 20 22 24 26 28 30
30 30 42 44 48 47 47 46 43 41 38 36 33 33 32 33 26 24 20 19 20 13 11 10 14 14 13 12 12 11 11 12 13 14 16 19 21 23 28 31 33 31 30
32 33 44 48 48 47 46 45 42 41 39 40 37 37 33 30 28 26 23 19 21 19 17 18 18 17 15 15 14 14 14 15 17 19 21 23 25 28 31 28 32 32 33
14 36 47 50 49 45 45 44 44 43 41 38 36 35 33 32 28 28 24 23 27 24 23 22 22 19 19 18 18 18 18 19 21 22 25 27 28 29 31 34 32 35 36
19 21 39 42 43 44 45 45 44 44 43 40 38 38 36 31 31 33 33 37 31 26 27 27 27 28 25 25 23 23 23 23 24 28 28 30 34 34 35 35 37 38 39
26 28 35 41 44 45 45 46 45 44 43 39 39 40 37 33 33 37 38 35 39 37 39 34 28 21 23 28 29 27 30 30 32 33 36 35 39 37 41 43 42 42 38
28 30 35 35 40 46 48 48 47 45 45 44 44 43 41 39 38 42 39 38 38 37 38 31 26 19 21 24 19 25 32 35 37 39 41 39 40 42 45 42 45 47 44
26 33 40 43 48 48 50 49 48 49 55 53 51 47 46 52 45 43 37 48 47 34 23 19 22 24 26 26 24 22 27 31 37 39 41 42 42 44 48 43 50 38 41
22 36 39 42 44 50 49 54 49 49 48 48 46 41 45 47 44 44 42 40 30 30 28 26 26 29 26 28 27 28 31 33 36 38 41 42 41 46 47 43 42 48 49
15 25 27 33 49 41 54 45 47 42 40 44 38 40 37 43 34 34 31 32 31 28 29 27 24 29 32 32 33 30 33 36 41 42 44 46 49 51 48 49 52 55 59
13 8 14 19 31 22 45 44 38 39 34 42 31 33 30 31 32 28 21 22 27 29 32 22 30 34 36 34 34 36 38 44 46 45 48 48 45 53 54 59 55 59 65
9 8 7 18 20 18 28 37 36 34 35 35 19 28 30 33 32 26 25 26 24 26 27 30 36 37 35 37 38 41 40 46 46 44 52 54 52 55 60 59 63 65 66
9 7 8 12 15 21 20 11 29 23 18 37 40 24 25 26 29 26 25 25 28 33 35 37 36 38 36 39 44 44 43 52 49 55 56 52 56 55 58 60 63 64 66
11 12 10 10 12 13 15 16 28 22 27 27 26 27 27 26 29 29 28 33 34 34 35 40 37 38 40 43 41 44 47 50 50 50 50 52 55 56 57 59 63 65 66
8 9 10 13 13 17 18 26 28 22 24 28 29 31 31 32 32 33 32 34 32 37 35 38 40 46 47 44 50 49 45 48 45 50 50 52 56 57 58 61 65 66 69
12 10 10 11 14 16 22 27 27 29 27 30 31 30 31 31 30 30 30 33 32 38 36 41 42 46 50 49 49 45 45 45 47 50 53 56 58 58 59 60 61 61 63
16 15 14 15 15 17 19 22 24 26 27 28 28 29 29 26 28 33 31 36 39 40 43 46 45 50 48 44 42 41 42 46 51 55 57 60 61 62 63 62 62 61 63
19 19 18 18 19 20 22 23 24 26 28 29 29 29 28 33 32 33 40 42 45 49 45 43 45 39 39 38 38 43 45 47 48 50 55 58 61 66 66 66 65 63 64
23 23 23 23 24 24 25 25 26 27 28 29 29 29 29 32 35 40 41 43 50 47 41 37 35 32 32 37 39 42 45 47 50 53 56 60 61 64 71 71 69 65 64

GFSMA_700_spd_117.txt.gz
Wind_Speed
30 27 30 28 27 23 22 21 28 30 29 28 26 22 20 16 14 11 12 10 11 14 14 10 8 8 7 5 4 5 5 8 10 12 12 10 6 4 3 3 4 4 3
27 29 29 33 31 30 19 24 30 32 32 28 26 23 20 16 14 14 13 14 15 15 12 10 10 10 9 7 6 5 5 7 10 11 10 9 8 7 5 5 6 5 5
21 26 25 30 34 30 28 32 37 34 33 30 27 24 21 19 16 14 15 16 15 12 10 11 12 11 11 9 6 7 8 8 10 11 11 11 10 8 7 8 7 7 8
25 28 25 31 38 36 33 28 41 35 35 33 29 26 22 18 17 16 18 16 14 12 12 12 12 12 11 10 8 10 10 9 10 10 10 10 9 9 9 9 9 9 11
28 33 29 30 42 37 38 36 40 36 37 34 29 26 22 18 18 18 17 16 15 12 12 12 12 13 12 11 12 13 12 10 10 9 10 9 10 10 10 11 12 14 15
27 32 39 33 36 37 40 40 38 40 38 35 32 29 24 22 20 19 19 18 15 14 13 12 13 14 12 12 13 13 12 11 11 11 11 11 12 12 13 14 14 17 17
31 34 43 36 42 45 43 43 44 44 43 39 34 31 27 24 22 21 20 18 16 15 13 11 13 12 11 12 12 13 13 12 11 11 12 13 14 15 16 16 18 20 22
30 36 37 47 42 44 48 46 47 47 44 40 36 32 31 28 24 23 21 17 16 13 12 10 7 8 9 10 12 12 12 12 13 13 14 15 16 17 18 19 21 24 28
18 27 39 43 41 43 48 49 51 49 45 42 37 36 35 32 25 24 19 19 17 14 13 15 20 16 12 11 11 12 12 13 14 15 17 19 19 20 21 22 24 26 27
14 17 38 40 44 42 47 51 49 45 43 40 40 40 34 27 26 23 22 23 23 19 23 24 18 19 18 15 15 16 16 17 18 19 22 22 23 25 26 26 28 28 30
7 15 26 37 44 45 46 50 47 46 41 41 40 39 36 32 28 25 26 25 24 21 25 19 16 23 21 23 24 24 22 23 24 24 25 28 29 29 30 31 31 33 34
12 13 22 25 38 40 47 45 43 43 42 41 40 37 34 30 26 26 26 27 25 26 26 24 28 24 22 27 27 26 29 29 32 32 32 33 33 34 34 33 36 39 38
19 16 22 39 41 46 44 43 43 43 42 42 39 36 35 33 30 29 27 29 28 30 28 30 30 31 35 33 28 37 38 37 36 35 34 36 38 39 40 41 41 40 44
19 22 18 24 41 46 48 44 43 43 43 43 40 38 36 35 33 33 34 34 40 39 41 31 35 31 35 29 24 28 25 28 37 37 37 39 39 41 41 41 44 45 44
21 20 27 27 31 45 43 48 45 45 45 44 42 40 39 39 37 41 41 42 51 45 37 34 37 31 27 26 29 23 28 26 24 26 29 34 39 41 43 46 46 42 42
23 24 29 34 36 41 38 41 46 46 45 46 45 44 44 46 49 49 45 45 36 39 39 38 39 31 30 30 33 29 32 32 30 29 32 36 38 41 43 44 44 48 49
22 24 25 34 37 43 50 46 47 49 51 53 53 56 54 59 52 49 40 49 36 36 41 31 27 31 29 30 29 32 36 36 34 35 37 37 42 46 46 47 48 52 51
20 22 20 21 32 44 43 46 54 53 54 54 43 42 47 41 43 37 37 38 30 34 34 31 32 29 30 27 32 36 34 40 40 38 44 43 49 49 49 54 57 52 56
18 19 14 17 25 28 43 46 41 44 46 46 44 30 28 32 30 28 33 35 33 25 27 24 30 34 30 31 36 36 41 42 40 46 46 51 50 52 54 58 57 57 59
18 18 14 10 12 15 18 20 17 37 35 33 34 34 21 19 24 26 29 25 25 24 23 26 27 31 34 37 41 39 44 42 46 48 49 51 56 56 53 55 56 58 61
12 12 11 12 13 12 23 19 20 28 31 30 30 32 27 27 30 28 25 27 28 26 25 27 28 34 38 39 39 42 46 47 46 49 51 53 52 51 53 56 59 59 62
11 10 9 10 17 13 20 17 5 19 20 22 23 34 35 27 24 25 25 25 24 25 28 31 35 40 42 43 44 46 46 49 47 48 48 48 48 51 53 56 58 60 63
12 10 9 8 10 15 13 9 13 27 22 18 24 24 24 25 25 27 30 30 32 34 36 36 36 41 45 45 47 48 47 47 46 46 46 47 50 52 52 54 56 58 60
14 12 11 10 10 13 16 19 21 19 18 19 23 25 28 28 29 32 33 31 28 32 32 37 42 45 49 50 52 46 42 41 42 44 46 49 51 53 52 52 51 53 56
17 15 14 13 13 14 15 20 22 23 24 25 27 26 27 29 29 31 25 30 33 35 40 44 44 47 51 52 44 38 34 36 38 43 48 50 52 54 54 54 53 56 59
20 19 19 18 17 16 17 19 21 23 24 25 25 26 28 28 32 28 29 32 37 40 46 46 45 42 39 34 33 33 35 39 42 45 46 47 48 53 57 59 56 56 58

GFSMA_700_spd_120.txt.gz
Wind_Speed
28 29 28 24 30 30 27 23 25 22 31 29 26 23 21 19 17 16 15 14 12 12 11 9 8 10 11 9 9 7 6 8 9 13 14 13 11 9 7 7 7 7 6
27 30 29 35 29 34 28 25 23 29 28 30 28 26 23 21 18 20 18 15 13 15 10 10 12 13 12 10 8 6 6 8 11 13 14 12 10 8 8 8 8 9 8
26 25 30 31 29 37 27 31 24 30 31 32 30 28 24 22 20 20 19 15 15 13 13 14 16 16 13 10 7 7 7 8 10 13 14 13 12 11 11 11 10 10 10
24 24 27 26 20 30 31 27 28 33 32 35 32 30 27 24 22 21 20 17 15 15 16 18 18 15 13 11 11 10 10 10 11 14 16 15 15 13 12 11 12 12 13
26 28 29 31 40 26 36 33 35 34 34 36 34 32 28 25 21 21 21 19 18 17 17 18 15 15 14 13 12 12 12 11 12 15 15 15 15 14 12 12 14 15 15
27 30 31 34 33 32 40 35 40 40 38 38 37 34 30 26 24 24 23 20 19 18 17 14 14 13 12 12 13 13 12 11 14 15 14 15 15 13 14 15 16 17 17
27 30 33 34 37 36 39 42 41 36 43 41 41 35 31 27 26 25 22 21 20 17 16 15 14 12 11 11 14 14 12 12 14 14 15 15 15 17 18 19 19 19 20
26 30 34 39 38 33 36 47 44 42 46 46 43 39 36 31 29 25 23 21 19 18 17 15 13 11 6 8 15 14 13 14 14 14 15 17 19 19 20 21 21 22 23
24 28 34 38 42 42 41 47 45 45 50 47 45 41 38 35 29 26 24 20 19 19 18 17 17 13 15 14 17 16 16 16 16 18 20 22 22 23 24 24 24 25 26
24 25 31 30 41 44 43 51 48 47 51 48 47 43 37 35 32 29 26 21 19 20 20 20 18 19 23 21 22 21 20 20 20 23 25 26 27 27 28 28 27 28 29
23 23 24 24 35 44 48 48 55 51 49 46 47 46 40 38 29 27 25 22 19 21 22 22 21 22 21 21 24 25 27 26 26 27 27 28 29 31 32 31 32 32 33
22 20 19 15 25 35 40 43 50 52 49 47 46 43 39 36 35 30 29 24 19 23 28 24 23 22 21 24 28 29 27 30 32 31 31 32 34 35 36 36 37 38 39
21 19 16 16 20 32 39 42 46 51 47 47 46 44 40 35 33 31 29 27 24 29 28 27 24 21 24 28 33 31 35 33 36 36 37 39 39 39 40 41 42 43 45
21 19 17 13 20 22 40 43 42 48 46 44 43 43 38 36 37 34 32 28 27 27 30 34 31 29 34 40 39 42 33 30 28 31 32 42 47 45 44 44 42 43 43
20 19 21 18 17 27 35 40 47 47 44 44 43 41 38 38 38 37 35 34 32 33 37 37 41 46 43 40 40 34 31 28 26 26 31 31 28 30 37 41 43 44 46
20 19 21 22 23 21 32 42 49 45 46 47 44 42 42 42 39 39 37 39 38 35 38 45 48 36 40 40 44 39 37 31 35 34 33 34 34 35 37 37 43 45 47
20 21 21 23 26 30 30 36 43 47 50 47 45 44 44 43 43 44 44 45 47 48 52 52 47 36 46 49 37 39 36 35 32 33 34 33 38 40 43 46 47 48 53
20 22 25 27 26 29 35 43 46 44 52 49 45 44 45 44 45 47 54 57 63 49 45 41 40 39 42 46 36 35 37 32 35 37 35 42 44 42 45 44 49 53 54
21 19 21 25 25 32 39 35 45 45 42 50 48 47 47 44 52 43 39 46 35 41 32 33 36 36 35 35 36 35 35 35 40 41 43 44 43 46 50 50 54 56 58
19 19 21 23 23 28 29 33 36 49 49 50 48 47 48 57 51 25 30 28 28 24 27 34 26 28 29 30 35 34 39 40 43 47 45 46 49 50 53 55 57 58 59
15 16 20 22 23 22 24 27 21 37 41 37 51 48 50 40 45 30 24 21 25 27 36 25 30 30 31 29 30 37 39 45 46 49 52 54 54 55 53 55 56 55 56
15 14 17 16 17 18 12 19 11 19 24 31 40 29 39 35 38 23 23 24 20 24 22 31 30 29 28 31 36 42 45 48 50 50 52 56 56 58 51 50 51 53 57
16 14 13 11 14 13 11 15 14 7 17 18 22 26 22 30 31 25 27 23 29 26 28 26 31 35 39 41 42 44 47 52 53 53 53 51 47 45 45 46 50 52 54
18 15 12 10 9 10 15 15 11 16 17 16 19 24 20 20 24 24 21 21 25 27 30 34 35 38 39 41 46 48 50 50 50 46 41 41 43 43 43 45 47 47 48
21 18 15 12 10 9 12 16 11 20 16 16 10 21 23 23 19 20 22 24 29 32 33 35 36 39 43 46 49 52 43 40 39 38 36 39 41 42 43 43 44 45 45
24 22 19 17 15 13 12 13 15 15 14 15 15 20 19 22 25 27 28 29 30 32 34 38 40 43 44 43 40 36 34 32 32 35 35 36 40 44 46 42 44 45 45

GFSMA_700_spd_123.txt.gz
Wind_Speed
23 24 24 27 26 27 26 30 25 17 18 22 21 22 22 22 21 20 14 14 15 14 14 12 10 10 8 8 6 7 7 8 10 11 13 13 13 12 11 9 8 7 7
24 25 24 27 29 28 26 32 26 22 17 31 19 23 25 24 20 19 16 16 17 16 15 13 13 12 10 8 8 8 8 9 10 13 14 13 13 11 10 8 8 9 8
26 26 24 24 28 27 33 27 23 26 20 28 28 27 26 24 21 18 16 17 18 18 15 15 14 11 10 9 10 9 8 9 11 14 14 14 13 12 12 10 11 12 11
27 27 26 25 22 28 35 22 29 23 21 28 28 29 29 25 23 21 18 19 20 18 15 13 13 12 11 12 12 11 10 10 11 13 14 15 15 16 16 14 14 14 13
28 29 28 27 24 27 25 24 30 36 30 33 30 32 31 29 24 23 21 22 22 19 15 15 12 13 14 14 13 12 11 12 13 14 15 16 16 18 17 16 15 16 15
30 31 30 28 29 30 31 32 31 30 35 31 32 34 32 29 26 24 24 25 25 21 18 15 16 15 15 15 13 12 13 13 14 15 14 15 15 17 18 16 16 17 18
29 31 31 29 29 34 33 31 28 38 40 34 37 36 34 30 28 27 25 25 24 21 18 16 15 15 15 12 11 11 11 13 15 15 14 15 16 18 18 18 19 21 21
28 30 30 30 30 29 33 31 42 43 42 39 43 42 39 31 30 28 25 26 25 22 19 16 16 15 12 8 7 11 13 14 15 16 17 19 20 21 21 21 23 24 23
28 31 30 31 29 32 35 37 38 43 41 47 44 43 41 39 33 30 27 25 24 22 19 18 17 16 13 7 8 12 16 17 18 20 21 22 22 22 23 25 25 25 24
26 29 31 31 30 31 37 40 41 36 46 47 47 41 38 37 37 32 30 27 25 22 19 18 19 20 19 13 18 19 20 21 23 23 23 23 24 25 26 27 28 29 29
25 27 30 29 27 32 39 35 33 39 55 44 51 46 43 38 35 33 30 28 27 23 21 20 21 20 21 19 14 28 20 22 24 24 25 26 27 28 29 30 31 33 34
24 27 29 24 26 29 38 36 41 45 57 45 50 48 45 43 38 31 30 28 26 24 21 21 22 21 22 22 29 25 21 25 26 25 28 32 33 33 32 34 36 37 39
24 27 25 22 24 25 24 33 39 31 48 49 53 47 46 42 40 27 23 23 26 23 21 25 25 23 25 33 31 23 23 27 30 30 35 32 35 40 40 41 41 41 43
24 27 24 22 23 23 26 30 36 45 49 54 51 49 46 45 39 30 29 25 24 29 25 25 29 29 31 30 30 31 33 36 35 38 37 37 30 31 36 38 39 47 50
26 26 23 23 21 18 18 28 27 35 51 52 47 50 45 43 40 36 33 33 33 30 30 30 32 33 35 35 35 36 45 43 37 33 33 29 28 34 35 34 34 35 41
27 26 22 22 23 20 16 18 27 38 42 50 48 45 44 43 40 40 38 40 35 34 34 33 33 38 40 46 47 46 42 42 43 39 37 33 38 34 37 38 40 40 45
26 26 21 22 21 21 19 19 27 30 41 51 52 47 43 42 42 44 40 38 37 37 37 35 35 38 38 43 47 47 39 41 46 39 37 38 38 35 37 36 41 43 45
26 24 22 22 21 23 20 21 23 27 39 52 47 43 43 43 47 44 39 40 39 39 40 43 44 45 48 50 41 41 38 41 50 42 39 35 39 42 40 46 45 45 49
26 23 22 22 25 25 25 25 23 28 33 48 47 50 48 48 49 41 40 42 45 43 49 56 51 53 52 39 45 39 42 40 37 38 37 40 40 41 48 47 49 53 56
25 23 23 21 25 27 24 25 27 37 38 43 46 47 48 49 42 41 39 44 53 53 42 44 41 41 36 36 37 37 33 33 36 36 38 40 44 49 48 53 53 58 61
25 23 23 23 25 23 24 24 27 32 42 41 50 53 47 49 46 43 44 50 47 27 34 34 29 30 30 31 31 33 37 35 35 37 41 47 50 51 53 55 57 56 55
25 24 22 21 19 22 24 24 27 30 32 43 46 48 49 51 57 51 48 51 41 28 26 30 31 31 33 30 32 36 33 35 39 43 48 50 51 53 52 50 51 49 50
24 23 18 17 16 18 19 17 19 24 20 16 32 32 41 45 49 38 43 29 28 30 29 24 24 26 29 32 32 37 41 43 46 48 49 53 49 47 46 46 45 45 46
24 23 18 17 13 15 19 14 12 11 20 16 23 27 27 26 32 33 28 30 26 29 25 26 29 31 32 33 38 41 43 45 48 46 46 45 43 39 39 39 40 41 42
26 24 20 18 14 11 13 14 13 13 14 14 14 18 15 20 19 20 28 32 24 21 25 28 30 33 34 37 42 43 44 46 46 41 38 37 35 32 35 36 37 36 37
28 26 23 20 17 14 14 18 15 20 18 15 12 14 19 23 19 18 18 18 22 24 26 29 30 34 38 41 42 42 41 37 36 35 33 33 34 34 32 34 34 33 33

GFSMA_700_spd_126.txt.gz
Wind_Speed
20 18 20 21 23 22 22 23 22 23 22 24 24 22 23 20 24 19 15 15 15 15 14 13 12 12 11 8 6 6 8 7 6 8 9 10 10 10 9 8 9 8 7
23 22 21 22 22 24 22 22 21 24 23 22 26 19 25 24 28 17 16 15 15 15 15 15 14 10 8 9 8 8 7 5 6 7 9 10 11 11 10 9 9 9 8
26 23 21 22 23 23 20 23 24 29 27 23 17 20 25 28 29 19 18 17 17 16 16 16 14 12 11 10 8 8 5 4 6 8 10 11 12 11 10 10 10 11 12
27 25 23 22 24 24 22 27 20 27 29 25 27 25 27 28 24 22 18 18 18 17 16 16 14 15 12 11 8 6 5 6 6 8 10 12 14 14 13 13 13 14 15
29 27 24 23 25 27 26 23 27 22 24 32 28 29 31 30 24 25 20 18 19 18 18 17 16 14 11 10 8 7 7 7 8 10 12 14 16 16 16 16 16 15 15
31 29 26 26 26 28 26 28 22 19 20 31 29 26 30 32 25 25 22 20 21 20 20 20 15 12 12 9 9 9 9 11 11 13 14 15 17 18 17 17 17 17 17
30 29 26 26 27 28 26 27 25 24 15 29 29 27 27 33 28 26 25 22 23 20 21 20 17 14 13 11 9 9 10 12 13 14 14 16 17 17 17 17 18 18 19
28 28 26 26 26 27 27 28 31 31 27 27 37 35 38 30 36 28 27 22 22 19 22 22 18 16 14 12 10 8 10 9 11 13 14 16 18 19 19 19 20 21 22
28 27 26 27 26 27 28 28 32 32 31 26 42 43 44 42 33 31 28 25 25 21 22 22 19 16 15 14 12 4 4 8 11 13 15 17 18 18 19 20 21 23 23
28 28 27 26 26 27 29 30 30 31 36 31 42 44 44 39 33 33 32 29 26 23 23 23 19 18 18 20 16 11 13 15 12 12 16 18 18 20 21 23 25 26 27
30 29 26 26 26 27 28 29 31 31 35 38 37 47 46 45 40 36 29 30 29 23 24 23 22 21 21 22 24 18 11 14 12 14 16 18 19 24 26 28 29 30 31
31 27 26 27 25 25 28 29 32 29 31 39 37 48 45 44 44 40 34 28 26 25 24 24 23 22 21 27 22 18 18 14 15 15 19 22 24 27 28 31 35 36 36
30 25 26 27 26 25 27 29 27 33 48 40 41 48 48 42 39 36 32 31 28 27 27 24 22 23 28 26 25 23 17 19 21 20 23 27 31 32 33 36 31 31 34
28 26 26 25 26 26 27 26 28 24 37 38 42 51 46 45 40 38 34 32 28 28 27 28 29 29 29 28 26 25 22 27 29 29 33 35 33 33 29 26 29 34 32
29 26 26 24 25 27 27 27 24 24 34 37 47 48 48 49 44 36 30 29 28 28 30 32 30 29 29 28 25 28 27 26 33 35 41 37 32 30 32 33 36 36 38
29 26 25 24 24 25 27 25 18 23 33 37 33 47 48 45 48 41 38 35 32 27 28 29 28 27 26 27 28 34 42 41 38 37 38 36 35 38 35 37 42 35 39
29 26 25 23 23 24 25 23 11 14 25 27 38 42 52 55 45 44 42 38 35 34 34 31 29 30 31 31 36 34 37 37 39 34 34 36 39 40 38 38 39 38 41
30 28 26 23 22 22 25 21 15 15 16 25 26 55 61 49 45 48 46 44 37 41 33 32 34 36 36 35 36 39 40 45 46 39 36 39 38 36 39 38 40 40 43
30 29 27 24 21 24 25 22 18 14 17 18 30 32 40 51 48 45 47 47 43 40 36 36 38 36 36 36 40 50 51 51 45 43 37 35 33 34 36 38 39 44 49
32 29 27 25 23 23 24 24 24 21 19 25 18 35 47 45 48 44 48 46 45 37 40 41 40 38 40 52 49 47 35 35 37 37 32 34 35 35 39 43 46 49 49
33 30 27 24 24 25 21 18 20 18 21 23 32 26 50 48 42 45 47 38 35 37 45 47 49 53 55 41 32 30 27 30 30 33 35 38 38 40 45 48 50 50 49
35 31 27 25 23 24 21 20 18 16 20 23 31 39 50 50 43 50 42 34 38 43 48 55 47 34 25 26 26 29 31 31 32 37 38 39 44 46 47 46 46 46 43
36 30 26 23 21 22 19 21 20 22 23 22 27 35 44 37 45 45 42 47 50 39 39 41 36 26 28 27 28 29 30 29 33 37 42 43 45 44 43 43 42 39 38
35 29 27 23 20 20 19 20 18 18 18 14 22 25 30 44 40 50 47 50 44 37 34 23 24 27 26 28 26 28 32 35 36 41 45 43 41 42 39 35 33 35 38
33 30 26 22 21 20 17 17 17 16 14 15 21 18 19 20 44 48 35 39 39 36 42 25 27 28 27 28 29 32 34 38 43 42 40 36 35 31 29 31 33 35 35
33 30 27 24 23 20 17 15 15 15 13 9 13 18 21 28 33 20 17 23 28 25 23 24 21 25 28 29 31 34 38 42 40 34 33 29 26 26 28 30 31 31 30

GFSMA_700_spd_129.txt.gz
Wind_Speed
18 18 15 13 14 14 13 15 17 17 16 18 17 17 22 23 22 26 15 15 17 14 13 14 16 15 14 13 10 8 5 3 3 5 7 5 5 7 8 7 7 7 6
21 21 20 15 15 15 12 11 20 19 18 20 22 22 24 24 23 25 16 17 17 15 14 14 16 16 13 10 9 7 5 5 5 7 7 6 8 8 8 8 7 6 6
24 24 23 18 16 16 14 12 17 14 16 21 22 27 27 28 28 23 19 18 15 14 14 16 17 15 12 10 7 6 6 5 7 7 7 7 8 9 9 8 8 8 8
24 27 26 21 18 18 15 14 20 22 18 21 24 27 22 25 27 24 18 16 17 16 15 16 17 13 12 10 8 8 8 7 8 7 7 8 10 10 10 11 11 12 12
25 26 27 23 20 20 19 18 18 21 26 12 24 30 26 30 29 23 20 19 18 17 17 17 16 15 12 12 10 10 8 8 7 7 8 10 12 13 15 15 15 15 14
29 28 28 26 22 20 22 20 18 22 20 11 23 25 29 31 29 25 22 22 21 20 19 18 17 16 15 14 12 10 9 8 7 8 9 13 14 15 16 17 16 15 15
33 33 31 28 23 22 22 22 19 21 23 17 11 31 35 31 32 28 25 24 22 21 20 20 20 19 19 15 12 11 10 8 8 9 11 14 15 15 16 16 16 15 16
34 33 33 29 25 23 23 23 22 22 23 27 12 20 29 32 37 29 30 27 24 23 22 22 21 20 19 16 14 13 10 8 8 8 11 13 14 14 15 15 16 17 18
35 32 32 29 27 24 23 24 23 22 25 29 33 25 33 38 36 33 33 29 26 24 24 23 22 21 21 19 18 16 12 7 3 7 9 9 11 12 14 16 18 19 21
33 32 30 27 27 26 24 24 24 23 27 32 35 32 29 38 41 35 30 32 29 26 24 23 22 24 24 23 21 19 13 6 5 6 9 9 11 12 13 16 19 22 24
33 33 31 31 29 27 26 24 26 23 28 33 34 37 33 38 41 42 33 34 32 28 24 24 25 26 27 26 24 21 16 9 6 7 9 11 12 14 16 17 21 25 28
33 34 34 32 30 27 26 26 26 26 27 31 33 39 44 36 39 47 41 29 27 27 25 25 27 29 30 28 25 24 20 15 11 10 12 12 11 16 21 25 27 26 28
36 36 33 32 30 26 26 27 27 26 27 31 34 41 37 52 44 42 43 37 31 27 28 29 30 31 31 26 27 26 23 20 11 11 15 17 21 24 21 28 30 25 27
36 35 31 31 31 27 27 28 27 29 28 32 34 43 47 47 45 45 43 42 37 33 32 32 32 32 30 28 29 27 25 23 19 13 20 25 26 27 33 29 32 27 30
31 33 32 32 31 27 26 27 27 28 28 30 33 35 40 43 52 42 41 41 38 39 38 37 34 33 32 31 31 30 27 25 22 22 36 27 28 30 35 29 30 35 31
33 32 30 32 31 28 26 26 26 26 25 26 33 39 47 40 51 46 42 40 36 31 34 36 35 33 32 28 28 29 29 28 28 32 31 29 32 32 29 28 33 37 35
35 32 31 32 30 27 25 25 23 24 21 15 25 37 45 41 44 55 46 39 35 33 33 26 27 28 28 25 25 29 28 32 30 30 33 39 38 39 34 33 35 35 33
37 34 33 33 31 27 24 23 22 24 24 21 16 33 30 37 40 53 50 44 38 38 36 28 26 26 27 28 30 29 31 36 36 37 38 39 42 46 34 32 31 31 34
36 35 34 33 30 27 23 22 23 25 24 21 13 18 28 33 43 51 45 50 46 39 36 35 34 31 30 31 30 31 32 34 38 39 44 37 35 35 31 31 33 33 39
41 39 36 32 31 26 24 23 23 24 24 24 22 13 12 30 45 42 54 38 44 44 41 41 47 34 32 33 34 36 34 38 42 43 38 30 29 29 31 34 36 40 43
39 37 37 34 33 28 24 19 20 24 27 24 22 19 21 22 35 56 56 51 42 48 50 50 48 39 40 37 39 38 35 38 43 32 28 29 31 34 35 36 40 43 44
38 37 39 36 33 29 23 20 19 21 23 23 23 22 25 25 31 47 60 60 53 52 55 54 50 39 44 37 44 41 47 34 30 29 31 31 34 33 38 42 45 44 40
38 36 39 37 33 29 24 22 22 22 23 22 25 21 27 38 30 41 57 50 46 53 49 46 43 43 40 42 43 36 27 27 29 32 32 32 34 36 43 44 39 39 36
35 35 37 38 32 30 26 23 22 20 23 25 26 26 28 32 37 40 53 42 40 43 41 39 39 45 42 48 34 27 30 32 29 29 34 37 36 40 39 37 37 34 32
36 38 36 38 34 29 26 22 21 22 22 22 22 25 25 28 40 51 50 45 39 42 40 44 50 40 35 29 29 28 28 26 30 35 34 36 38 37 35 31 28 29 31
38 40 36 36 34 29 26 23 22 21 22 20 18 14 18 29 27 35 50 39 48 41 41 40 45 41 37 29 25 26 28 29 30 33 34 32 33 31 26 26 27 30 30